GEFSCGP_prec_meanprecacc_186.txt.gz
Total_Precipitation_Accumulation
0.75 0.75 0.64 0.46 0.45 0.43 0.38 0.31 0.25 0.16 0.15 0.22 0.21 0.16 0.12 0.12 0.13 0.11 0.09 0.09 0.08 0.08 0.08 0.09 0.13 0.14 0.18 0.24 0.31 0.36 0.36 0.41 0.50 0.56 0.62 0.58 0.55 0.51 0.48 0.42 0.45 0.44 0.42 0.40
0.82 0.64 0.31 0.21 0.26 0.35 0.41 0.40 0.26 0.18 0.18 0.24 0.20 0.13 0.09 0.09 0.11 0.10 0.09 0.09 0.07 0.08 0.09 0.09 0.12 0.17 0.19 0.23 0.28 0.33 0.35 0.36 0.42 0.44 0.49 0.51 0.48 0.46 0.47 0.42 0.41 0.46 0.44 0.42
0.60 0.41 0.20 0.22 0.29 0.36 0.38 0.37 0.27 0.22 0.20 0.24 0.23 0.18 0.08 0.06 0.07 0.07 0.07 0.08 0.07 0.07 0.09 0.08 0.10 0.16 0.20 0.23 0.27 0.30 0.37 0.34 0.37 0.42 0.52 0.55 0.55 0.54 0.53 0.49 0.42 0.41 0.42 0.41
0.41 0.29 0.28 0.31 0.30 0.33 0.36 0.25 0.23 0.25 0.34 0.38 0.30 0.31 0.09 0.06 0.07 0.08 0.08 0.08 0.07 0.08 0.09 0.08 0.09 0.14 0.19 0.22 0.29 0.31 0.38 0.42 0.38 0.44 0.51 0.48 0.47 0.49 0.45 0.43 0.40 0.40 0.42 0.40
0.43 0.31 0.36 0.38 0.26 0.26 0.29 0.23 0.27 0.29 0.38 0.44 0.29 0.33 0.12 0.05 0.10 0.11 0.11 0.10 0.09 0.08 0.09 0.08 0.07 0.12 0.18 0.23 0.29 0.34 0.38 0.45 0.46 0.45 0.47 0.45 0.39 0.40 0.44 0.47 0.47 0.44 0.45 0.45
0.36 0.29 0.34 0.29 0.21 0.23 0.29 0.39 0.50 0.53 0.67 0.75 0.28 0.24 0.14 0.09 0.11 0.10 0.09 0.10 0.11 0.09 0.10 0.09 0.08 0.11 0.16 0.22 0.28 0.32 0.37 0.42 0.50 0.51 0.50 0.45 0.40 0.38 0.44 0.49 0.54 0.52 0.53 0.52
0.51 0.38 0.37 0.32 0.36 0.40 0.52 0.82 1.21 1.29 1.26 0.74 0.14 0.15 0.15 0.10 0.08 0.08 0.08 0.08 0.11 0.12 0.12 0.11 0.10 0.13 0.15 0.20 0.27 0.30 0.33 0.39 0.48 0.54 0.54 0.48 0.40 0.37 0.39 0.44 0.49 0.52 0.54 0.56
0.65 0.49 0.38 0.38 0.44 0.54 0.57 0.71 0.95 0.97 0.68 0.26 0.08 0.10 0.10 0.07 0.05 0.04 0.04 0.05 0.06 0.09 0.12 0.12 0.11 0.13 0.15 0.18 0.24 0.29 0.32 0.35 0.44 0.50 0.52 0.50 0.44 0.39 0.36 0.37 0.42 0.48 0.48 0.47
0.70 0.49 0.28 0.26 0.26 0.36 0.50 0.52 0.45 0.59 0.43 0.25 0.14 0.09 0.08 0.06 0.03 0.03 0.04 0.05 0.06 0.06 0.10 0.13 0.13 0.15 0.15 0.17 0.21 0.27 0.31 0.36 0.43 0.46 0.49 0.51 0.48 0.44 0.38 0.37 0.37 0.42 0.45 0.42
0.76 0.59 0.31 0.26 0.31 0.36 0.44 0.50 0.58 0.84 0.70 0.37 0.16 0.11 0.12 0.08 0.06 0.04 0.05 0.06 0.07 0.07 0.10 0.13 0.12 0.16 0.18 0.19 0.19 0.22 0.31 0.37 0.44 0.46 0.49 0.52 0.51 0.47 0.44 0.42 0.39 0.38 0.41 0.43
0.71 0.72 0.45 0.41 0.46 0.43 0.44 0.59 0.82 0.86 0.62 0.47 0.27 0.17 0.15 0.10 0.07 0.06 0.05 0.07 0.07 0.06 0.09 0.11 0.10 0.14 0.19 0.21 0.20 0.20 0.26 0.36 0.47 0.48 0.47 0.52 0.55 0.51 0.49 0.48 0.43 0.40 0.39 0.44
0.71 0.85 0.61 0.41 0.34 0.28 0.37 0.49 0.64 0.83 0.63 0.35 0.30 0.21 0.14 0.09 0.07 0.06 0.06 0.07 0.08 0.07 0.09 0.09 0.09 0.12 0.17 0.21 0.22 0.22 0.24 0.32 0.43 0.50 0.48 0.50 0.56 0.55 0.53 0.55 0.52 0.48 0.44 0.45
0.84 1.08 0.94 0.68 0.58 0.50 0.50 0.42 0.45 0.53 0.56 0.40 0.30 0.19 0.12 0.09 0.07 0.06 0.05 0.07 0.08 0.09 0.10 0.08 0.08 0.10 0.15 0.17 0.20 0.21 0.23 0.28 0.36 0.47 0.49 0.50 0.54 0.56 0.55 0.55 0.59 0.61 0.61 0.61
0.90 1.06 0.85 0.79 0.67 0.63 0.59 0.42 0.37 0.52 0.62 0.41 0.24 0.15 0.10 0.08 0.08 0.06 0.05 0.06 0.08 0.10 0.10 0.08 0.08 0.09 0.12 0.15 0.17 0.19 0.18 0.23 0.31 0.43 0.53 0.54 0.56 0.56 0.56 0.58 0.62 0.73 0.79 0.82
0.90 0.89 0.42 0.28 0.28 0.33 0.35 0.29 0.29 0.38 0.40 0.32 0.16 0.13 0.14 0.11 0.09 0.08 0.08 0.07 0.08 0.10 0.09 0.07 0.08 0.08 0.10 0.14 0.16 0.16 0.15 0.18 0.26 0.37 0.48 0.55 0.60 0.68 0.72 0.71 0.69 0.75 0.87 0.90
0.85 0.81 0.40 0.21 0.16 0.22 0.25 0.18 0.18 0.19 0.17 0.18 0.13 0.13 0.14 0.12 0.09 0.08 0.08 0.08 0.09 0.09 0.07 0.07 0.07 0.08 0.10 0.12 0.14 0.13 0.15 0.18 0.23 0.32 0.40 0.50 0.64 0.74 0.84 0.84 0.83 0.83 0.87 0.90
0.74 0.71 0.60 0.36 0.18 0.30 0.34 0.19 0.16 0.16 0.13 0.12 0.15 0.14 0.11 0.09 0.08 0.07 0.08 0.10 0.10 0.07 0.06 0.05 0.06 0.08 0.10 0.11 0.12 0.13 0.15 0.18 0.21 0.29 0.38 0.44 0.57 0.68 0.75 0.78 0.80 0.78 0.70 0.66
0.53 0.63 0.77 0.53 0.41 0.60 0.31 0.14 0.12 0.14 0.13 0.12 0.12 0.11 0.10 0.10 0.09 0.07 0.09 0.10 0.08 0.08 0.08 0.07 0.07 0.07 0.08 0.09 0.10 0.11 0.11 0.14 0.20 0.27 0.37 0.40 0.48 0.58 0.61 0.64 0.67 0.67 0.56 0.52
0.28 0.53 0.86 0.72 0.57 0.34 0.16 0.12 0.16 0.20 0.21 0.14 0.11 0.09 0.08 0.08 0.09 0.10 0.11 0.09 0.09 0.08 0.08 0.08 0.08 0.07 0.06 0.07 0.08 0.08 0.09 0.11 0.17 0.24 0.32 0.37 0.42 0.53 0.52 0.52 0.57 0.57 0.55 0.48
0.30 0.53 0.94 0.81 0.62 0.31 0.17 0.10 0.12 0.19 0.26 0.13 0.10 0.10 0.10 0.11 0.21 0.18 0.15 0.11 0.09 0.06 0.06 0.07 0.06 0.04 0.04 0.04 0.05 0.05 0.07 0.10 0.14 0.19 0.25 0.29 0.33 0.41 0.40 0.40 0.42 0.43 0.42 0.40
0.56 0.80 0.90 0.66 0.49 0.21 0.13 0.12 0.14 0.34 0.37 0.15 0.10 0.10 0.11 0.17 0.26 0.21 0.14 0.11 0.08 0.06 0.05 0.05 0.05 0.04 0.03 0.04 0.04 0.04 0.05 0.08 0.11 0.15 0.20 0.24 0.26 0.30 0.32 0.34 0.36 0.37 0.38 0.37
0.43 0.58 0.57 0.52 0.54 0.26 0.12 0.18 0.32 0.36 0.19 0.11 0.09 0.08 0.09 0.10 0.09 0.08 0.09 0.08 0.06 0.05 0.05 0.04 0.04 0.03 0.03 0.03 0.04 0.03 0.04 0.07 0.09 0.13 0.17 0.21 0.25 0.25 0.28 0.30 0.33 0.33 0.36 0.39
0.28 0.35 0.38 0.36 0.28 0.17 0.14 0.21 0.23 0.16 0.11 0.08 0.08 0.08 0.09 0.08 0.07 0.08 0.09 0.08 0.07 0.06 0.06 0.05 0.04 0.04 0.03 0.03 0.04 0.04 0.05 0.08 0.10 0.12 0.14 0.19 0.23 0.20 0.25 0.29 0.34 0.34 0.36 0.41
0.18 0.17 0.21 0.17 0.10 0.08 0.09 0.12 0.12 0.11 0.08 0.06 0.06 0.08 0.08 0.08 0.07 0.08 0.08 0.08 0.09 0.07 0.06 0.05 0.04 0.04 0.04 0.03 0.03 0.04 0.06 0.09 0.10 0.11 0.11 0.16 0.21 0.21 0.22 0.26 0.33 0.35 0.36 0.48
0.15 0.15 0.17 0.12 0.05 0.04 0.05 0.07 0.08 0.09 0.07 0.04 0.04 0.05 0.05 0.05 0.05 0.07 0.09 0.09 0.09 0.09 0.07 0.05 0.04 0.05 0.05 0.03 0.03 0.04 0.06 0.09 0.11 0.11 0.12 0.15 0.21 0.24 0.24 0.26 0.29 0.33 0.34 0.52
0.10 0.12 0.15 0.11 0.05 0.06 0.04 0.04 0.05 0.06 0.06 0.05 0.05 0.04 0.03 0.03 0.05 0.05 0.07 0.09 0.08 0.08 0.08 0.06 0.04 0.04 0.05 0.04 0.04 0.05 0.06 0.09 0.12 0.14 0.15 0.19 0.24 0.27 0.27 0.27 0.29 0.34 0.34 0.41

GEFSCGP_prec_meanprecacc_192.txt.gz
Total_Precipitation_Accumulation
0.77 0.76 0.65 0.46 0.45 0.44 0.38 0.32 0.25 0.16 0.15 0.23 0.21 0.16 0.12 0.12 0.13 0.11 0.10 0.09 0.09 0.09 0.08 0.10 0.14 0.16 0.20 0.27 0.36 0.41 0.44 0.50 0.60 0.67 0.76 0.77 0.77 0.67 0.58 0.52 0.54 0.52 0.50 0.48
0.83 0.65 0.31 0.21 0.26 0.35 0.42 0.40 0.26 0.18 0.18 0.24 0.21 0.13 0.09 0.09 0.11 0.10 0.09 0.10 0.08 0.08 0.09 0.09 0.14 0.20 0.22 0.27 0.35 0.42 0.44 0.47 0.52 0.54 0.61 0.67 0.66 0.62 0.61 0.54 0.50 0.53 0.51 0.49
0.60 0.41 0.21 0.23 0.30 0.37 0.39 0.37 0.27 0.22 0.20 0.24 0.24 0.18 0.08 0.06 0.07 0.08 0.08 0.08 0.07 0.08 0.10 0.09 0.11 0.19 0.23 0.25 0.32 0.38 0.45 0.44 0.49 0.53 0.62 0.69 0.71 0.67 0.66 0.63 0.53 0.49 0.49 0.48
0.41 0.29 0.29 0.33 0.31 0.34 0.37 0.25 0.23 0.25 0.35 0.39 0.30 0.32 0.09 0.06 0.08 0.09 0.09 0.09 0.08 0.09 0.10 0.09 0.10 0.16 0.21 0.23 0.31 0.37 0.46 0.51 0.49 0.55 0.61 0.60 0.60 0.60 0.54 0.53 0.51 0.49 0.48 0.46
0.44 0.32 0.37 0.39 0.26 0.26 0.30 0.24 0.28 0.30 0.39 0.44 0.29 0.33 0.12 0.06 0.11 0.13 0.13 0.12 0.10 0.09 0.10 0.09 0.08 0.13 0.19 0.23 0.30 0.38 0.44 0.54 0.54 0.54 0.56 0.55 0.51 0.51 0.52 0.54 0.56 0.54 0.54 0.53
0.36 0.30 0.35 0.30 0.21 0.23 0.30 0.40 0.51 0.53 0.68 0.77 0.28 0.25 0.14 0.10 0.14 0.13 0.11 0.13 0.14 0.11 0.11 0.10 0.09 0.12 0.18 0.23 0.29 0.34 0.42 0.50 0.57 0.57 0.58 0.55 0.50 0.48 0.54 0.58 0.63 0.61 0.63 0.63
0.52 0.39 0.38 0.32 0.36 0.40 0.52 0.82 1.22 1.31 1.28 0.75 0.14 0.15 0.16 0.11 0.10 0.10 0.09 0.10 0.14 0.15 0.15 0.13 0.12 0.14 0.16 0.22 0.28 0.33 0.38 0.47 0.56 0.59 0.60 0.57 0.50 0.47 0.48 0.53 0.59 0.59 0.61 0.64
0.66 0.50 0.38 0.39 0.44 0.54 0.57 0.72 0.97 0.98 0.69 0.27 0.08 0.11 0.10 0.07 0.05 0.05 0.05 0.06 0.08 0.12 0.16 0.16 0.14 0.15 0.16 0.19 0.26 0.32 0.35 0.42 0.51 0.55 0.57 0.58 0.54 0.50 0.46 0.46 0.52 0.57 0.55 0.54
0.72 0.50 0.28 0.26 0.26 0.36 0.51 0.53 0.46 0.61 0.45 0.26 0.14 0.10 0.08 0.06 0.04 0.03 0.05 0.06 0.07 0.08 0.12 0.17 0.16 0.18 0.19 0.21 0.24 0.30 0.34 0.41 0.49 0.52 0.54 0.57 0.56 0.53 0.47 0.45 0.45 0.52 0.54 0.50
0.78 0.62 0.32 0.27 0.32 0.37 0.45 0.51 0.61 0.87 0.73 0.39 0.17 0.12 0.13 0.10 0.07 0.04 0.05 0.07 0.08 0.08 0.11 0.14 0.14 0.18 0.22 0.22 0.22 0.26 0.34 0.41 0.48 0.53 0.54 0.57 0.57 0.55 0.51 0.49 0.47 0.46 0.50 0.52
0.73 0.75 0.47 0.43 0.49 0.45 0.45 0.62 0.86 0.90 0.65 0.50 0.29 0.18 0.17 0.13 0.08 0.06 0.06 0.07 0.08 0.07 0.10 0.12 0.12 0.16 0.22 0.25 0.24 0.25 0.30 0.40 0.50 0.53 0.55 0.58 0.61 0.60 0.58 0.56 0.52 0.49 0.47 0.53
0.73 0.88 0.63 0.42 0.36 0.31 0.40 0.53 0.68 0.88 0.67 0.38 0.32 0.22 0.17 0.12 0.08 0.06 0.06 0.07 0.09 0.09 0.10 0.10 0.10 0.14 0.20 0.23 0.25 0.26 0.29 0.35 0.45 0.54 0.55 0.57 0.61 0.62 0.62 0.65 0.61 0.58 0.52 0.51
0.87 1.12 0.97 0.69 0.61 0.53 0.53 0.45 0.48 0.57 0.59 0.43 0.34 0.22 0.15 0.11 0.07 0.06 0.06 0.07 0.09 0.10 0.12 0.10 0.10 0.13 0.17 0.19 0.23 0.25 0.28 0.31 0.39 0.51 0.55 0.57 0.59 0.62 0.63 0.65 0.70 0.72 0.71 0.70
0.96 1.12 0.87 0.81 0.70 0.64 0.60 0.42 0.38 0.54 0.65 0.43 0.27 0.18 0.13 0.11 0.09 0.07 0.06 0.06 0.09 0.11 0.12 0.10 0.10 0.11 0.15 0.18 0.20 0.22 0.22 0.27 0.34 0.48 0.58 0.59 0.61 0.61 0.63 0.67 0.72 0.83 0.90 0.93
0.98 0.96 0.44 0.29 0.29 0.33 0.36 0.29 0.30 0.40 0.42 0.35 0.19 0.16 0.19 0.15 0.11 0.09 0.08 0.08 0.08 0.11 0.10 0.09 0.10 0.11 0.13 0.17 0.19 0.19 0.19 0.22 0.29 0.41 0.52 0.59 0.65 0.73 0.78 0.79 0.79 0.85 0.98 1.03
0.90 0.88 0.43 0.23 0.16 0.22 0.26 0.19 0.18 0.19 0.18 0.19 0.15 0.16 0.19 0.16 0.11 0.09 0.09 0.09 0.09 0.10 0.08 0.08 0.09 0.11 0.12 0.15 0.17 0.17 0.18 0.22 0.28 0.37 0.45 0.55 0.69 0.80 0.91 0.91 0.92 0.93 0.98 1.04
0.79 0.75 0.64 0.39 0.18 0.31 0.36 0.19 0.16 0.16 0.14 0.14 0.18 0.18 0.14 0.13 0.11 0.09 0.09 0.11 0.10 0.08 0.07 0.07 0.08 0.10 0.12 0.13 0.14 0.15 0.18 0.22 0.26 0.36 0.44 0.50 0.63 0.75 0.85 0.87 0.88 0.88 0.80 0.80
0.58 0.69 0.85 0.58 0.44 0.63 0.31 0.14 0.13 0.14 0.14 0.13 0.14 0.14 0.13 0.13 0.11 0.09 0.10 0.10 0.09 0.09 0.09 0.09 0.09 0.09 0.09 0.11 0.12 0.12 0.13 0.17 0.24 0.32 0.44 0.46 0.55 0.66 0.71 0.75 0.78 0.78 0.68 0.67
0.31 0.59 0.96 0.80 0.61 0.35 0.16 0.12 0.16 0.20 0.22 0.15 0.13 0.11 0.10 0.10 0.11 0.12 0.13 0.10 0.09 0.09 0.09 0.09 0.09 0.09 0.09 0.10 0.11 0.11 0.11 0.13 0.20 0.27 0.37 0.42 0.48 0.61 0.62 0.63 0.70 0.70 0.68 0.63
0.32 0.58 1.03 0.89 0.66 0.33 0.17 0.10 0.12 0.20 0.28 0.14 0.11 0.11 0.11 0.12 0.23 0.20 0.18 0.13 0.09 0.07 0.07 0.08 0.08 0.07 0.08 0.09 0.09 0.08 0.08 0.11 0.16 0.23 0.30 0.33 0.37 0.48 0.50 0.49 0.55 0.57 0.54 0.52
0.58 0.85 0.97 0.71 0.53 0.22 0.13 0.12 0.14 0.34 0.38 0.16 0.11 0.11 0.12 0.18 0.27 0.23 0.16 0.13 0.10 0.08 0.07 0.07 0.08 0.08 0.08 0.08 0.08 0.06 0.06 0.09 0.14 0.19 0.23 0.27 0.30 0.35 0.38 0.41 0.45 0.48 0.47 0.47
0.44 0.61 0.59 0.54 0.59 0.28 0.13 0.18 0.32 0.37 0.20 0.13 0.11 0.09 0.10 0.11 0.10 0.10 0.11 0.10 0.09 0.08 0.08 0.07 0.07 0.06 0.06 0.06 0.06 0.05 0.05 0.09 0.12 0.16 0.20 0.24 0.29 0.29 0.33 0.36 0.40 0.41 0.45 0.50
0.30 0.37 0.41 0.39 0.30 0.18 0.15 0.21 0.24 0.17 0.13 0.10 0.10 0.09 0.10 0.09 0.08 0.09 0.10 0.09 0.08 0.08 0.08 0.06 0.06 0.05 0.05 0.05 0.06 0.05 0.06 0.09 0.12 0.15 0.17 0.23 0.27 0.25 0.30 0.35 0.41 0.42 0.46 0.54
0.19 0.17 0.22 0.18 0.11 0.08 0.10 0.12 0.13 0.12 0.09 0.08 0.08 0.10 0.09 0.08 0.07 0.08 0.09 0.09 0.09 0.08 0.07 0.06 0.05 0.05 0.05 0.04 0.04 0.05 0.07 0.11 0.13 0.15 0.16 0.20 0.26 0.27 0.27 0.32 0.40 0.42 0.44 0.59
0.15 0.16 0.18 0.13 0.05 0.05 0.06 0.07 0.09 0.10 0.08 0.06 0.07 0.08 0.07 0.06 0.06 0.07 0.09 0.09 0.09 0.09 0.08 0.06 0.04 0.05 0.05 0.04 0.04 0.05 0.08 0.12 0.14 0.15 0.16 0.20 0.26 0.30 0.29 0.31 0.35 0.39 0.40 0.59
0.10 0.12 0.16 0.12 0.05 0.06 0.05 0.04 0.05 0.07 0.07 0.06 0.07 0.07 0.05 0.04 0.05 0.06 0.07 0.09 0.09 0.08 0.08 0.07 0.05 0.05 0.05 0.05 0.05 0.06 0.08 0.12 0.16 0.19 0.21 0.24 0.29 0.32 0.32 0.33 0.35 0.40 0.39 0.46

GEFSCGP_prec_meanprecacc_198.txt.gz
Total_Precipitation_Accumulation
0.77 0.77 0.66 0.47 0.46 0.44 0.39 0.32 0.26 0.16 0.15 0.23 0.21 0.16 0.12 0.12 0.13 0.11 0.10 0.10 0.09 0.09 0.08 0.10 0.14 0.17 0.21 0.29 0.37 0.43 0.48 0.56 0.67 0.74 0.81 0.83 0.89 0.85 0.75 0.67 0.69 0.67 0.62 0.55
0.84 0.66 0.32 0.21 0.26 0.36 0.43 0.41 0.27 0.19 0.18 0.24 0.21 0.13 0.09 0.09 0.11 0.10 0.09 0.10 0.08 0.08 0.09 0.09 0.14 0.21 0.24 0.28 0.36 0.44 0.47 0.52 0.59 0.60 0.66 0.74 0.75 0.77 0.77 0.69 0.66 0.69 0.66 0.59
0.61 0.41 0.21 0.23 0.30 0.38 0.40 0.38 0.27 0.23 0.21 0.25 0.24 0.19 0.08 0.06 0.07 0.08 0.08 0.08 0.07 0.08 0.10 0.09 0.12 0.20 0.24 0.27 0.34 0.40 0.47 0.48 0.55 0.60 0.69 0.78 0.82 0.80 0.81 0.78 0.71 0.67 0.65 0.61
0.42 0.29 0.29 0.33 0.32 0.35 0.38 0.26 0.24 0.26 0.35 0.39 0.31 0.32 0.10 0.07 0.08 0.09 0.09 0.09 0.08 0.09 0.10 0.09 0.10 0.17 0.22 0.25 0.33 0.39 0.48 0.55 0.55 0.63 0.71 0.69 0.70 0.72 0.65 0.63 0.64 0.67 0.67 0.61
0.45 0.32 0.38 0.39 0.27 0.27 0.31 0.24 0.29 0.31 0.40 0.46 0.30 0.34 0.12 0.06 0.11 0.13 0.14 0.12 0.10 0.10 0.10 0.09 0.09 0.13 0.20 0.26 0.33 0.40 0.46 0.58 0.61 0.61 0.66 0.65 0.61 0.62 0.63 0.64 0.66 0.67 0.68 0.68
0.37 0.30 0.35 0.31 0.22 0.23 0.31 0.40 0.52 0.54 0.69 0.78 0.29 0.26 0.15 0.10 0.15 0.14 0.12 0.13 0.14 0.11 0.12 0.11 0.09 0.13 0.19 0.26 0.33 0.37 0.45 0.54 0.63 0.63 0.66 0.65 0.61 0.60 0.66 0.69 0.73 0.72 0.74 0.75
0.52 0.39 0.38 0.33 0.37 0.41 0.53 0.84 1.24 1.32 1.29 0.76 0.15 0.16 0.16 0.11 0.11 0.13 0.11 0.11 0.14 0.15 0.15 0.14 0.13 0.15 0.18 0.25 0.34 0.36 0.39 0.50 0.61 0.64 0.66 0.65 0.60 0.58 0.61 0.65 0.71 0.70 0.72 0.75
0.67 0.51 0.38 0.39 0.45 0.55 0.58 0.73 0.99 1.00 0.70 0.27 0.09 0.11 0.11 0.08 0.05 0.06 0.06 0.06 0.08 0.12 0.17 0.17 0.15 0.18 0.19 0.23 0.31 0.36 0.37 0.44 0.56 0.59 0.61 0.64 0.62 0.58 0.58 0.60 0.64 0.68 0.65 0.64
0.73 0.51 0.29 0.27 0.26 0.37 0.52 0.54 0.47 0.63 0.46 0.27 0.15 0.10 0.09 0.06 0.04 0.04 0.06 0.08 0.08 0.08 0.13 0.17 0.17 0.20 0.22 0.24 0.28 0.35 0.38 0.43 0.53 0.56 0.57 0.61 0.64 0.62 0.56 0.56 0.58 0.63 0.62 0.57
0.81 0.63 0.33 0.27 0.33 0.39 0.47 0.52 0.63 0.90 0.75 0.40 0.18 0.12 0.14 0.10 0.07 0.04 0.06 0.09 0.09 0.09 0.12 0.15 0.14 0.19 0.24 0.26 0.27 0.31 0.39 0.44 0.51 0.56 0.57 0.61 0.64 0.64 0.59 0.58 0.58 0.58 0.60 0.59
0.75 0.78 0.49 0.45 0.51 0.47 0.48 0.64 0.88 0.92 0.67 0.52 0.30 0.19 0.18 0.14 0.09 0.07 0.07 0.09 0.11 0.09 0.12 0.13 0.13 0.17 0.24 0.28 0.28 0.29 0.34 0.44 0.53 0.57 0.58 0.62 0.67 0.67 0.66 0.64 0.59 0.57 0.57 0.63
0.74 0.91 0.65 0.43 0.37 0.33 0.43 0.55 0.70 0.91 0.69 0.40 0.34 0.24 0.18 0.13 0.09 0.07 0.07 0.09 0.11 0.11 0.13 0.12 0.12 0.16 0.21 0.24 0.27 0.29 0.32 0.39 0.50 0.60 0.61 0.62 0.66 0.68 0.69 0.74 0.70 0.65 0.59 0.60
0.90 1.16 1.01 0.72 0.64 0.57 0.57 0.49 0.51 0.61 0.63 0.46 0.37 0.23 0.15 0.12 0.08 0.07 0.06 0.08 0.10 0.12 0.15 0.12 0.12 0.15 0.19 0.21 0.24 0.27 0.31 0.36 0.45 0.58 0.62 0.64 0.65 0.68 0.70 0.74 0.80 0.81 0.80 0.79
1.00 1.17 0.90 0.83 0.74 0.69 0.64 0.45 0.41 0.59 0.71 0.46 0.29 0.20 0.14 0.12 0.10 0.08 0.07 0.07 0.10 0.13 0.14 0.13 0.13 0.13 0.17 0.20 0.22 0.24 0.25 0.32 0.40 0.55 0.67 0.68 0.68 0.66 0.69 0.75 0.82 0.92 0.99 1.03
1.03 1.02 0.46 0.29 0.29 0.35 0.38 0.31 0.31 0.43 0.45 0.38 0.21 0.19 0.21 0.17 0.12 0.11 0.09 0.09 0.09 0.12 0.12 0.11 0.12 0.12 0.14 0.18 0.20 0.20 0.21 0.25 0.34 0.49 0.60 0.66 0.71 0.78 0.85 0.87 0.89 0.94 1.07 1.13
0.97 0.94 0.46 0.24 0.17 0.23 0.27 0.19 0.19 0.21 0.20 0.21 0.17 0.18 0.22 0.19 0.13 0.11 0.10 0.10 0.10 0.11 0.09 0.09 0.10 0.12 0.14 0.16 0.18 0.18 0.20 0.24 0.30 0.42 0.52 0.60 0.74 0.85 0.98 0.99 1.02 1.03 1.07 1.15
0.84 0.80 0.69 0.41 0.19 0.33 0.37 0.19 0.17 0.17 0.16 0.17 0.21 0.21 0.17 0.16 0.14 0.12 0.12 0.13 0.11 0.09 0.07 0.07 0.09 0.11 0.12 0.13 0.15 0.16 0.19 0.23 0.28 0.38 0.48 0.54 0.67 0.80 0.91 0.93 0.96 0.97 0.90 0.90
0.63 0.73 0.91 0.63 0.46 0.65 0.32 0.14 0.13 0.15 0.15 0.15 0.17 0.16 0.15 0.16 0.14 0.13 0.13 0.13 0.11 0.10 0.10 0.09 0.09 0.09 0.10 0.11 0.13 0.14 0.15 0.19 0.26 0.34 0.46 0.49 0.58 0.70 0.76 0.82 0.86 0.87 0.77 0.76
0.34 0.65 1.05 0.87 0.66 0.37 0.16 0.13 0.17 0.21 0.23 0.16 0.14 0.12 0.11 0.11 0.12 0.14 0.16 0.13 0.12 0.10 0.10 0.10 0.10 0.09 0.09 0.11 0.12 0.12 0.12 0.15 0.22 0.30 0.39 0.44 0.50 0.64 0.66 0.71 0.80 0.79 0.78 0.75
0.35 0.63 1.12 0.97 0.72 0.35 0.18 0.10 0.12 0.20 0.28 0.14 0.11 0.12 0.12 0.13 0.24 0.22 0.22 0.17 0.13 0.09 0.09 0.09 0.09 0.08 0.08 0.10 0.11 0.10 0.11 0.14 0.19 0.25 0.31 0.35 0.39 0.51 0.54 0.56 0.63 0.66 0.67 0.67
0.61 0.90 1.04 0.77 0.59 0.24 0.14 0.12 0.14 0.35 0.40 0.16 0.12 0.12 0.13 0.19 0.29 0.25 0.21 0.18 0.15 0.12 0.10 0.09 0.09 0.09 0.09 0.10 0.11 0.10 0.09 0.12 0.16 0.21 0.25 0.29 0.33 0.38 0.43 0.48 0.52 0.57 0.58 0.59
0.46 0.63 0.62 0.58 0.63 0.31 0.14 0.19 0.33 0.38 0.21 0.13 0.11 0.10 0.12 0.12 0.11 0.12 0.15 0.16 0.13 0.13 0.13 0.11 0.10 0.09 0.09 0.10 0.11 0.09 0.09 0.12 0.14 0.18 0.22 0.27 0.31 0.33 0.37 0.41 0.47 0.49 0.55 0.62
0.30 0.39 0.43 0.41 0.32 0.19 0.15 0.22 0.24 0.18 0.13 0.10 0.10 0.10 0.11 0.11 0.09 0.11 0.12 0.13 0.12 0.13 0.13 0.12 0.11 0.11 0.10 0.10 0.10 0.09 0.09 0.12 0.15 0.18 0.20 0.26 0.30 0.29 0.35 0.41 0.47 0.50 0.55 0.64
0.20 0.18 0.23 0.19 0.12 0.08 0.10 0.12 0.13 0.12 0.09 0.08 0.09 0.11 0.10 0.10 0.09 0.10 0.10 0.11 0.13 0.12 0.11 0.10 0.11 0.11 0.11 0.10 0.10 0.09 0.10 0.13 0.17 0.18 0.20 0.24 0.30 0.31 0.31 0.37 0.46 0.51 0.54 0.67
0.17 0.17 0.20 0.14 0.06 0.05 0.06 0.07 0.09 0.10 0.08 0.06 0.07 0.09 0.08 0.07 0.07 0.09 0.11 0.12 0.12 0.13 0.11 0.10 0.10 0.10 0.12 0.11 0.10 0.09 0.11 0.15 0.18 0.20 0.21 0.25 0.31 0.35 0.33 0.35 0.41 0.47 0.48 0.65
0.11 0.13 0.17 0.12 0.06 0.07 0.05 0.04 0.05 0.07 0.07 0.06 0.07 0.08 0.06 0.06 0.07 0.08 0.09 0.11 0.10 0.10 0.11 0.10 0.09 0.09 0.10 0.10 0.09 0.10 0.12 0.16 0.21 0.24 0.25 0.27 0.33 0.36 0.36 0.37 0.39 0.44 0.44 0.51

GEFSCGP_prec_meanprecacc_204.txt.gz
Total_Precipitation_Accumulation
0.78 0.78 0.66 0.47 0.46 0.44 0.40 0.33 0.26 0.17 0.16 0.24 0.22 0.16 0.12 0.12 0.13 0.11 0.10 0.11 0.10 0.09 0.08 0.11 0.15 0.18 0.22 0.30 0.38 0.44 0.48 0.57 0.70 0.81 0.87 0.86 0.91 0.87 0.77 0.71 0.74 0.75 0.73 0.67
0.85 0.66 0.32 0.21 0.27 0.36 0.43 0.42 0.28 0.20 0.19 0.26 0.22 0.13 0.09 0.09 0.11 0.10 0.10 0.10 0.09 0.08 0.10 0.10 0.15 0.22 0.25 0.29 0.36 0.44 0.47 0.52 0.60 0.63 0.71 0.77 0.78 0.80 0.80 0.73 0.71 0.75 0.76 0.71
0.62 0.41 0.21 0.23 0.30 0.39 0.41 0.39 0.29 0.24 0.22 0.26 0.26 0.19 0.08 0.07 0.07 0.08 0.08 0.08 0.08 0.08 0.10 0.09 0.12 0.21 0.25 0.27 0.34 0.40 0.47 0.49 0.56 0.63 0.75 0.84 0.89 0.89 0.87 0.82 0.75 0.73 0.74 0.73
0.43 0.30 0.29 0.33 0.32 0.35 0.38 0.27 0.25 0.27 0.37 0.41 0.32 0.34 0.10 0.07 0.08 0.09 0.09 0.09 0.09 0.09 0.10 0.09 0.11 0.18 0.23 0.25 0.34 0.39 0.48 0.56 0.56 0.65 0.76 0.76 0.77 0.77 0.70 0.70 0.70 0.74 0.76 0.75
0.45 0.32 0.38 0.40 0.27 0.27 0.31 0.25 0.29 0.32 0.41 0.47 0.31 0.36 0.13 0.06 0.11 0.13 0.14 0.12 0.11 0.10 0.11 0.09 0.09 0.14 0.21 0.27 0.34 0.41 0.47 0.59 0.62 0.64 0.71 0.70 0.67 0.66 0.67 0.71 0.74 0.75 0.78 0.80
0.37 0.30 0.36 0.31 0.22 0.23 0.31 0.41 0.52 0.55 0.71 0.80 0.29 0.26 0.15 0.11 0.15 0.15 0.13 0.14 0.14 0.12 0.12 0.11 0.09 0.13 0.20 0.27 0.35 0.39 0.47 0.58 0.66 0.66 0.71 0.71 0.68 0.66 0.71 0.75 0.81 0.82 0.83 0.86
0.53 0.39 0.38 0.33 0.38 0.41 0.54 0.85 1.27 1.34 1.31 0.77 0.15 0.16 0.16 0.11 0.11 0.13 0.11 0.11 0.14 0.15 0.15 0.14 0.13 0.15 0.19 0.26 0.35 0.39 0.43 0.56 0.65 0.68 0.70 0.71 0.66 0.65 0.67 0.72 0.77 0.80 0.83 0.86
0.68 0.51 0.38 0.39 0.45 0.56 0.59 0.74 1.01 1.01 0.71 0.27 0.09 0.11 0.11 0.08 0.05 0.06 0.06 0.06 0.08 0.12 0.17 0.17 0.15 0.18 0.19 0.24 0.33 0.38 0.39 0.49 0.63 0.65 0.66 0.68 0.66 0.63 0.63 0.66 0.69 0.75 0.73 0.74
0.74 0.51 0.29 0.27 0.27 0.38 0.54 0.56 0.49 0.66 0.48 0.27 0.15 0.10 0.09 0.06 0.04 0.04 0.06 0.08 0.08 0.08 0.13 0.18 0.17 0.21 0.22 0.25 0.30 0.37 0.41 0.48 0.61 0.66 0.63 0.66 0.68 0.66 0.60 0.62 0.65 0.70 0.70 0.66
0.82 0.65 0.33 0.28 0.34 0.40 0.48 0.55 0.66 0.94 0.78 0.41 0.18 0.12 0.14 0.11 0.07 0.05 0.06 0.09 0.10 0.09 0.12 0.15 0.14 0.20 0.24 0.27 0.28 0.33 0.42 0.48 0.56 0.63 0.64 0.67 0.69 0.68 0.63 0.62 0.63 0.64 0.67 0.68
0.77 0.80 0.50 0.45 0.52 0.49 0.49 0.67 0.91 0.95 0.69 0.54 0.31 0.20 0.19 0.15 0.10 0.08 0.07 0.10 0.11 0.10 0.13 0.15 0.14 0.18 0.24 0.28 0.29 0.30 0.36 0.47 0.57 0.61 0.63 0.68 0.74 0.72 0.71 0.68 0.63 0.61 0.63 0.70
0.76 0.94 0.68 0.45 0.38 0.34 0.45 0.57 0.73 0.94 0.71 0.41 0.36 0.25 0.18 0.14 0.10 0.08 0.07 0.09 0.12 0.11 0.13 0.13 0.13 0.16 0.22 0.25 0.28 0.31 0.34 0.41 0.53 0.63 0.65 0.67 0.72 0.74 0.74 0.78 0.74 0.68 0.62 0.64
0.92 1.21 1.05 0.75 0.66 0.59 0.59 0.51 0.54 0.63 0.66 0.48 0.39 0.24 0.16 0.13 0.10 0.08 0.07 0.08 0.11 0.13 0.15 0.13 0.12 0.15 0.19 0.21 0.26 0.29 0.33 0.38 0.47 0.61 0.66 0.70 0.72 0.76 0.75 0.78 0.84 0.86 0.84 0.82
1.05 1.23 0.94 0.86 0.76 0.71 0.66 0.48 0.43 0.62 0.74 0.48 0.31 0.21 0.14 0.13 0.11 0.09 0.08 0.08 0.10 0.14 0.15 0.14 0.14 0.15 0.18 0.21 0.23 0.26 0.27 0.34 0.42 0.58 0.70 0.72 0.74 0.73 0.75 0.79 0.86 0.97 1.03 1.07
1.09 1.10 0.50 0.31 0.31 0.37 0.40 0.33 0.33 0.45 0.46 0.39 0.22 0.20 0.22 0.19 0.14 0.13 0.10 0.09 0.10 0.13 0.13 0.12 0.13 0.15 0.16 0.20 0.22 0.22 0.23 0.27 0.36 0.51 0.64 0.71 0.75 0.83 0.90 0.91 0.93 0.98 1.11 1.17
1.04 1.02 0.50 0.26 0.18 0.24 0.28 0.20 0.20 0.22 0.20 0.22 0.18 0.19 0.23 0.20 0.15 0.13 0.13 0.11 0.11 0.12 0.10 0.10 0.11 0.14 0.16 0.18 0.21 0.20 0.22 0.25 0.32 0.45 0.55 0.64 0.77 0.89 1.02 1.03 1.06 1.08 1.12 1.19
0.92 0.87 0.74 0.44 0.20 0.35 0.40 0.20 0.18 0.18 0.16 0.17 0.22 0.23 0.19 0.18 0.16 0.14 0.14 0.14 0.12 0.10 0.08 0.08 0.10 0.12 0.14 0.16 0.17 0.18 0.21 0.25 0.30 0.40 0.51 0.57 0.70 0.83 0.94 0.97 1.01 1.03 0.96 0.95
0.68 0.79 0.98 0.67 0.48 0.69 0.33 0.14 0.13 0.16 0.16 0.16 0.18 0.18 0.17 0.18 0.16 0.14 0.14 0.14 0.12 0.11 0.10 0.10 0.10 0.10 0.11 0.13 0.15 0.15 0.16 0.20 0.27 0.35 0.48 0.50 0.60 0.72 0.79 0.85 0.90 0.92 0.83 0.83
0.37 0.70 1.13 0.94 0.70 0.39 0.17 0.13 0.17 0.22 0.24 0.18 0.16 0.14 0.12 0.13 0.13 0.15 0.17 0.13 0.12 0.11 0.10 0.11 0.11 0.10 0.10 0.12 0.13 0.13 0.13 0.16 0.23 0.30 0.40 0.45 0.52 0.65 0.67 0.73 0.83 0.83 0.83 0.83
0.37 0.68 1.20 1.05 0.78 0.37 0.18 0.11 0.13 0.20 0.31 0.17 0.13 0.13 0.13 0.14 0.25 0.23 0.22 0.17 0.13 0.09 0.09 0.10 0.10 0.09 0.10 0.11 0.12 0.11 0.12 0.15 0.20 0.26 0.32 0.37 0.41 0.53 0.55 0.58 0.65 0.69 0.70 0.73
0.64 0.96 1.11 0.83 0.64 0.27 0.14 0.12 0.15 0.37 0.43 0.17 0.12 0.13 0.14 0.20 0.30 0.26 0.21 0.19 0.15 0.12 0.11 0.10 0.10 0.10 0.10 0.11 0.13 0.11 0.11 0.14 0.18 0.22 0.26 0.31 0.35 0.40 0.45 0.49 0.53 0.59 0.61 0.64
0.48 0.67 0.66 0.61 0.68 0.34 0.15 0.19 0.34 0.40 0.21 0.13 0.11 0.10 0.12 0.13 0.12 0.13 0.15 0.16 0.14 0.14 0.14 0.12 0.11 0.10 0.10 0.11 0.12 0.10 0.10 0.13 0.15 0.20 0.24 0.29 0.34 0.34 0.38 0.43 0.49 0.52 0.59 0.68
0.32 0.41 0.45 0.44 0.36 0.22 0.16 0.23 0.24 0.18 0.13 0.10 0.10 0.10 0.12 0.11 0.10 0.12 0.13 0.13 0.13 0.14 0.14 0.13 0.12 0.13 0.12 0.11 0.11 0.10 0.10 0.13 0.16 0.19 0.23 0.29 0.33 0.31 0.37 0.43 0.50 0.53 0.60 0.69
0.22 0.20 0.25 0.22 0.14 0.10 0.11 0.13 0.14 0.12 0.10 0.08 0.09 0.11 0.10 0.10 0.09 0.11 0.11 0.12 0.14 0.14 0.12 0.11 0.12 0.14 0.13 0.11 0.11 0.10 0.10 0.14 0.18 0.20 0.22 0.27 0.34 0.35 0.35 0.40 0.49 0.54 0.58 0.72
0.18 0.19 0.21 0.16 0.08 0.06 0.07 0.08 0.09 0.10 0.08 0.06 0.07 0.09 0.08 0.08 0.08 0.09 0.12 0.13 0.14 0.14 0.12 0.11 0.11 0.12 0.13 0.12 0.10 0.09 0.11 0.16 0.20 0.22 0.24 0.28 0.35 0.39 0.37 0.39 0.44 0.50 0.51 0.70
0.11 0.14 0.17 0.13 0.07 0.08 0.06 0.05 0.05 0.07 0.07 0.06 0.07 0.08 0.06 0.06 0.07 0.08 0.10 0.12 0.12 0.12 0.13 0.12 0.10 0.11 0.12 0.11 0.10 0.10 0.12 0.17 0.23 0.27 0.29 0.32 0.38 0.40 0.39 0.40 0.42 0.47 0.48 0.55

GEFSCGP_prec_meanprecacc_210.txt.gz
Total_Precipitation_Accumulation
0.78 0.78 0.66 0.47 0.46 0.45 0.40 0.34 0.27 0.17 0.16 0.24 0.22 0.16 0.12 0.12 0.13 0.11 0.10 0.11 0.10 0.10 0.09 0.11 0.16 0.20 0.24 0.32 0.40 0.46 0.50 0.59 0.71 0.81 0.87 0.86 0.92 0.88 0.79 0.73 0.76 0.77 0.74 0.68
0.85 0.66 0.32 0.21 0.27 0.36 0.44 0.43 0.28 0.20 0.19 0.26 0.22 0.13 0.09 0.09 0.11 0.10 0.10 0.10 0.09 0.09 0.10 0.11 0.16 0.24 0.27 0.31 0.39 0.47 0.49 0.54 0.61 0.63 0.71 0.78 0.79 0.81 0.81 0.75 0.73 0.79 0.79 0.73
0.62 0.42 0.21 0.23 0.31 0.39 0.41 0.39 0.29 0.24 0.22 0.26 0.26 0.19 0.08 0.07 0.07 0.08 0.08 0.09 0.08 0.09 0.10 0.10 0.13 0.22 0.27 0.30 0.37 0.43 0.50 0.50 0.57 0.63 0.75 0.84 0.90 0.91 0.89 0.84 0.78 0.77 0.78 0.76
0.43 0.30 0.30 0.33 0.32 0.35 0.39 0.27 0.25 0.27 0.38 0.41 0.33 0.34 0.10 0.07 0.08 0.09 0.09 0.09 0.09 0.10 0.11 0.10 0.12 0.19 0.25 0.27 0.36 0.43 0.51 0.58 0.58 0.66 0.76 0.76 0.77 0.78 0.72 0.72 0.73 0.77 0.79 0.78
0.45 0.32 0.38 0.40 0.27 0.27 0.31 0.25 0.29 0.32 0.42 0.48 0.31 0.36 0.13 0.06 0.11 0.13 0.14 0.12 0.11 0.11 0.11 0.10 0.10 0.16 0.22 0.28 0.37 0.44 0.50 0.61 0.63 0.64 0.71 0.71 0.67 0.66 0.68 0.73 0.78 0.79 0.81 0.83
0.37 0.30 0.36 0.31 0.22 0.24 0.31 0.41 0.53 0.56 0.72 0.82 0.30 0.26 0.15 0.11 0.15 0.15 0.13 0.14 0.14 0.12 0.12 0.12 0.11 0.15 0.22 0.29 0.37 0.42 0.50 0.59 0.67 0.68 0.72 0.72 0.68 0.67 0.72 0.77 0.84 0.86 0.87 0.90
0.54 0.40 0.38 0.33 0.38 0.42 0.55 0.86 1.28 1.35 1.33 0.78 0.15 0.16 0.16 0.12 0.11 0.13 0.11 0.11 0.14 0.16 0.16 0.14 0.14 0.18 0.22 0.29 0.37 0.42 0.46 0.57 0.66 0.69 0.71 0.71 0.66 0.66 0.69 0.74 0.80 0.84 0.86 0.89
0.70 0.52 0.39 0.39 0.45 0.57 0.60 0.75 1.02 1.02 0.71 0.28 0.09 0.11 0.11 0.08 0.05 0.06 0.06 0.06 0.08 0.12 0.17 0.17 0.16 0.19 0.23 0.27 0.34 0.40 0.42 0.50 0.64 0.66 0.67 0.69 0.67 0.64 0.65 0.69 0.73 0.78 0.76 0.76
0.76 0.52 0.29 0.27 0.27 0.38 0.54 0.57 0.50 0.68 0.49 0.28 0.15 0.10 0.09 0.06 0.04 0.04 0.06 0.08 0.09 0.09 0.13 0.18 0.18 0.22 0.26 0.30 0.32 0.39 0.43 0.49 0.61 0.67 0.65 0.67 0.69 0.67 0.61 0.64 0.68 0.76 0.75 0.69
0.86 0.67 0.33 0.28 0.34 0.40 0.49 0.55 0.67 0.97 0.80 0.42 0.18 0.12 0.14 0.11 0.07 0.05 0.06 0.09 0.10 0.10 0.13 0.16 0.15 0.21 0.27 0.32 0.31 0.35 0.43 0.49 0.57 0.64 0.66 0.69 0.72 0.71 0.65 0.64 0.66 0.68 0.72 0.73
0.80 0.84 0.52 0.46 0.53 0.49 0.50 0.68 0.92 0.97 0.72 0.55 0.32 0.20 0.19 0.15 0.10 0.08 0.07 0.10 0.11 0.10 0.13 0.15 0.15 0.19 0.26 0.31 0.31 0.32 0.38 0.48 0.58 0.62 0.64 0.69 0.77 0.75 0.74 0.72 0.68 0.65 0.66 0.74
0.79 0.98 0.71 0.46 0.39 0.35 0.46 0.58 0.74 0.96 0.73 0.42 0.37 0.25 0.18 0.14 0.11 0.09 0.08 0.10 0.12 0.11 0.13 0.13 0.13 0.17 0.23 0.27 0.31 0.33 0.37 0.43 0.54 0.64 0.66 0.68 0.76 0.81 0.79 0.84 0.83 0.74 0.66 0.68
0.98 1.27 1.10 0.78 0.68 0.60 0.62 0.53 0.56 0.66 0.68 0.50 0.40 0.24 0.16 0.13 0.10 0.08 0.08 0.09 0.11 0.13 0.15 0.13 0.12 0.15 0.20 0.23 0.29 0.33 0.35 0.40 0.49 0.64 0.69 0.72 0.76 0.83 0.84 0.86 0.93 0.92 0.89 0.90
1.13 1.33 1.01 0.90 0.79 0.73 0.68 0.50 0.46 0.66 0.78 0.50 0.31 0.21 0.14 0.13 0.11 0.10 0.08 0.08 0.11 0.14 0.16 0.14 0.14 0.15 0.19 0.22 0.26 0.30 0.30 0.37 0.46 0.62 0.74 0.75 0.78 0.79 0.83 0.88 0.92 1.04 1.10 1.16
1.15 1.18 0.55 0.34 0.33 0.39 0.42 0.34 0.35 0.48 0.48 0.40 0.23 0.20 0.22 0.19 0.14 0.13 0.11 0.10 0.10 0.13 0.13 0.12 0.14 0.15 0.16 0.20 0.23 0.25 0.28 0.33 0.42 0.57 0.69 0.75 0.80 0.90 0.97 0.99 1.01 1.05 1.17 1.23
1.09 1.08 0.54 0.29 0.19 0.25 0.29 0.21 0.21 0.23 0.22 0.23 0.18 0.20 0.23 0.20 0.15 0.14 0.13 0.12 0.11 0.12 0.10 0.10 0.12 0.14 0.16 0.19 0.22 0.21 0.24 0.31 0.39 0.53 0.62 0.70 0.84 0.95 1.08 1.10 1.14 1.15 1.20 1.26
0.96 0.92 0.79 0.47 0.21 0.37 0.43 0.21 0.19 0.20 0.17 0.19 0.23 0.23 0.20 0.19 0.16 0.15 0.14 0.15 0.13 0.10 0.09 0.09 0.10 0.13 0.16 0.18 0.18 0.19 0.22 0.28 0.33 0.44 0.57 0.64 0.78 0.91 1.00 1.03 1.07 1.09 1.02 1.00
0.73 0.83 1.03 0.71 0.51 0.72 0.35 0.15 0.14 0.17 0.17 0.17 0.20 0.19 0.18 0.19 0.16 0.14 0.14 0.14 0.12 0.11 0.11 0.10 0.11 0.11 0.13 0.15 0.16 0.16 0.17 0.23 0.31 0.39 0.52 0.56 0.66 0.79 0.84 0.90 0.96 0.97 0.88 0.88
0.42 0.76 1.19 0.99 0.74 0.41 0.18 0.14 0.18 0.23 0.26 0.20 0.18 0.16 0.13 0.13 0.14 0.16 0.17 0.14 0.12 0.11 0.11 0.11 0.11 0.11 0.11 0.14 0.16 0.15 0.15 0.18 0.24 0.32 0.42 0.49 0.57 0.71 0.72 0.77 0.88 0.87 0.87 0.86
0.41 0.75 1.28 1.11 0.82 0.39 0.19 0.11 0.13 0.22 0.34 0.19 0.15 0.15 0.14 0.15 0.26 0.24 0.23 0.18 0.13 0.10 0.09 0.10 0.10 0.09 0.10 0.12 0.14 0.13 0.14 0.16 0.21 0.28 0.35 0.40 0.45 0.58 0.61 0.62 0.68 0.72 0.73 0.76
0.68 1.03 1.20 0.90 0.69 0.30 0.16 0.13 0.16 0.40 0.46 0.18 0.13 0.14 0.14 0.20 0.30 0.26 0.21 0.19 0.15 0.12 0.11 0.10 0.10 0.10 0.10 0.12 0.13 0.13 0.13 0.15 0.19 0.24 0.28 0.33 0.37 0.43 0.48 0.53 0.56 0.60 0.63 0.67
0.50 0.69 0.69 0.65 0.73 0.38 0.17 0.20 0.36 0.42 0.23 0.14 0.12 0.11 0.13 0.13 0.12 0.13 0.16 0.17 0.14 0.14 0.14 0.12 0.11 0.10 0.10 0.12 0.13 0.11 0.12 0.15 0.17 0.22 0.27 0.31 0.36 0.37 0.41 0.46 0.51 0.53 0.61 0.70
0.33 0.43 0.47 0.46 0.39 0.24 0.18 0.24 0.25 0.19 0.14 0.11 0.11 0.10 0.12 0.11 0.10 0.12 0.14 0.14 0.13 0.14 0.15 0.13 0.13 0.13 0.12 0.11 0.12 0.10 0.10 0.14 0.18 0.22 0.25 0.31 0.35 0.33 0.39 0.47 0.53 0.56 0.63 0.72
0.24 0.22 0.27 0.24 0.15 0.11 0.12 0.13 0.14 0.12 0.10 0.09 0.09 0.11 0.10 0.10 0.10 0.11 0.12 0.13 0.14 0.14 0.12 0.11 0.12 0.14 0.13 0.11 0.11 0.10 0.11 0.15 0.19 0.22 0.25 0.29 0.36 0.37 0.37 0.44 0.53 0.58 0.62 0.76
0.19 0.20 0.23 0.18 0.10 0.07 0.07 0.08 0.09 0.10 0.08 0.06 0.07 0.09 0.08 0.08 0.08 0.10 0.12 0.14 0.14 0.15 0.13 0.12 0.12 0.12 0.13 0.13 0.10 0.09 0.12 0.17 0.21 0.23 0.25 0.30 0.37 0.41 0.39 0.41 0.47 0.55 0.58 0.77
0.12 0.14 0.18 0.14 0.07 0.09 0.07 0.05 0.05 0.07 0.08 0.06 0.07 0.08 0.06 0.06 0.08 0.09 0.11 0.13 0.12 0.13 0.13 0.13 0.11 0.12 0.12 0.11 0.10 0.11 0.13 0.18 0.24 0.28 0.30 0.34 0.40 0.41 0.41 0.41 0.45 0.52 0.55 0.62

GEFSCGP_prec_meanprecacc_216.txt.gz
Total_Precipitation_Accumulation
0.79 0.79 0.67 0.48 0.47 0.45 0.40 0.34 0.27 0.17 0.16 0.24 0.22 0.16 0.12 0.12 0.13 0.11 0.10 0.11 0.10 0.10 0.09 0.11 0.16 0.20 0.24 0.32 0.41 0.46 0.50 0.59 0.72 0.83 0.89 0.88 0.94 0.89 0.80 0.74 0.77 0.78 0.75 0.69
0.87 0.67 0.32 0.22 0.27 0.37 0.44 0.43 0.29 0.20 0.19 0.26 0.22 0.13 0.09 0.09 0.11 0.10 0.10 0.10 0.09 0.09 0.10 0.11 0.16 0.24 0.27 0.32 0.40 0.48 0.50 0.54 0.62 0.65 0.73 0.79 0.80 0.82 0.81 0.75 0.74 0.80 0.80 0.74
0.63 0.42 0.21 0.24 0.31 0.40 0.42 0.40 0.29 0.24 0.22 0.26 0.26 0.19 0.08 0.07 0.07 0.08 0.08 0.09 0.08 0.09 0.10 0.10 0.13 0.23 0.28 0.30 0.38 0.44 0.51 0.51 0.59 0.65 0.78 0.86 0.92 0.92 0.89 0.84 0.79 0.77 0.79 0.77
0.44 0.30 0.30 0.34 0.32 0.36 0.40 0.27 0.25 0.27 0.38 0.42 0.33 0.34 0.10 0.07 0.08 0.09 0.09 0.09 0.09 0.10 0.11 0.10 0.12 0.19 0.25 0.28 0.37 0.44 0.52 0.59 0.60 0.69 0.79 0.79 0.79 0.79 0.72 0.72 0.73 0.78 0.80 0.79
0.46 0.33 0.38 0.40 0.27 0.28 0.32 0.25 0.30 0.33 0.43 0.48 0.31 0.36 0.13 0.06 0.11 0.13 0.14 0.13 0.11 0.11 0.12 0.11 0.11 0.17 0.23 0.29 0.37 0.46 0.50 0.63 0.66 0.67 0.74 0.74 0.70 0.68 0.69 0.74 0.78 0.79 0.82 0.84
0.38 0.30 0.36 0.31 0.22 0.24 0.32 0.42 0.53 0.56 0.73 0.82 0.30 0.26 0.15 0.11 0.15 0.15 0.13 0.14 0.16 0.15 0.15 0.15 0.14 0.17 0.23 0.30 0.38 0.44 0.51 0.62 0.71 0.70 0.75 0.75 0.71 0.69 0.73 0.77 0.85 0.86 0.87 0.91
0.57 0.41 0.39 0.34 0.39 0.42 0.56 0.88 1.31 1.37 1.35 0.78 0.15 0.16 0.16 0.12 0.11 0.13 0.11 0.12 0.18 0.20 0.19 0.19 0.16 0.19 0.22 0.29 0.38 0.43 0.47 0.60 0.71 0.72 0.73 0.74 0.70 0.68 0.70 0.74 0.80 0.84 0.87 0.90
0.72 0.54 0.40 0.41 0.47 0.58 0.60 0.76 1.04 1.04 0.72 0.28 0.09 0.11 0.11 0.08 0.05 0.06 0.06 0.07 0.10 0.14 0.20 0.21 0.18 0.20 0.23 0.28 0.35 0.42 0.44 0.53 0.68 0.70 0.70 0.72 0.70 0.66 0.66 0.70 0.73 0.79 0.76 0.76
0.79 0.54 0.30 0.28 0.27 0.39 0.56 0.57 0.50 0.69 0.50 0.28 0.15 0.10 0.09 0.06 0.04 0.04 0.06 0.08 0.09 0.09 0.14 0.21 0.19 0.22 0.26 0.31 0.33 0.41 0.46 0.52 0.65 0.72 0.69 0.71 0.72 0.70 0.63 0.65 0.69 0.76 0.75 0.69
0.89 0.69 0.34 0.29 0.35 0.41 0.50 0.57 0.69 0.99 0.82 0.43 0.18 0.12 0.14 0.11 0.07 0.05 0.07 0.10 0.10 0.10 0.13 0.17 0.17 0.22 0.28 0.32 0.32 0.37 0.47 0.52 0.60 0.68 0.70 0.72 0.75 0.73 0.67 0.66 0.67 0.68 0.73 0.74
0.83 0.87 0.54 0.48 0.56 0.52 0.52 0.71 0.96 1.00 0.73 0.56 0.32 0.20 0.19 0.15 0.10 0.08 0.07 0.10 0.12 0.11 0.13 0.16 0.16 0.21 0.27 0.32 0.31 0.33 0.41 0.52 0.60 0.64 0.66 0.72 0.80 0.78 0.76 0.73 0.68 0.65 0.67 0.75
0.83 1.03 0.75 0.49 0.42 0.37 0.48 0.61 0.78 1.00 0.76 0.43 0.37 0.25 0.18 0.14 0.11 0.09 0.08 0.10 0.12 0.12 0.14 0.14 0.16 0.19 0.24 0.27 0.31 0.34 0.38 0.46 0.57 0.66 0.68 0.70 0.79 0.83 0.81 0.85 0.84 0.74 0.67 0.69
1.01 1.33 1.15 0.83 0.72 0.64 0.66 0.58 0.59 0.69 0.71 0.52 0.42 0.25 0.16 0.13 0.10 0.08 0.08 0.09 0.11 0.13 0.16 0.15 0.15 0.17 0.22 0.25 0.30 0.33 0.36 0.41 0.51 0.65 0.70 0.74 0.77 0.84 0.85 0.87 0.93 0.93 0.90 0.91
1.18 1.38 1.05 0.94 0.82 0.76 0.72 0.53 0.49 0.69 0.82 0.52 0.32 0.21 0.15 0.13 0.11 0.10 0.08 0.08 0.11 0.15 0.17 0.15 0.15 0.16 0.21 0.24 0.28 0.31 0.32 0.39 0.48 0.64 0.75 0.76 0.79 0.80 0.84 0.88 0.92 1.04 1.11 1.18
1.21 1.23 0.57 0.36 0.34 0.40 0.44 0.36 0.37 0.51 0.51 0.42 0.23 0.20 0.23 0.19 0.15 0.14 0.11 0.10 0.10 0.13 0.13 0.13 0.15 0.17 0.19 0.23 0.25 0.26 0.29 0.35 0.44 0.60 0.70 0.76 0.82 0.91 0.98 1.00 1.02 1.07 1.19 1.26
1.14 1.12 0.56 0.30 0.20 0.27 0.31 0.22 0.22 0.25 0.23 0.24 0.19 0.20 0.23 0.21 0.15 0.14 0.13 0.12 0.11 0.13 0.11 0.11 0.13 0.17 0.19 0.21 0.24 0.23 0.25 0.32 0.41 0.56 0.64 0.72 0.86 0.97 1.09 1.11 1.15 1.17 1.22 1.30
1.00 0.95 0.82 0.49 0.22 0.38 0.44 0.22 0.20 0.20 0.18 0.19 0.24 0.24 0.21 0.19 0.17 0.15 0.15 0.15 0.13 0.10 0.09 0.09 0.11 0.15 0.18 0.20 0.20 0.21 0.24 0.29 0.35 0.46 0.59 0.66 0.80 0.92 1.02 1.05 1.09 1.12 1.06 1.05
0.78 0.87 1.07 0.74 0.54 0.76 0.36 0.16 0.15 0.18 0.18 0.18 0.20 0.20 0.19 0.20 0.17 0.15 0.15 0.15 0.12 0.11 0.11 0.11 0.12 0.13 0.15 0.17 0.18 0.18 0.19 0.24 0.33 0.41 0.54 0.59 0.68 0.82 0.88 0.94 0.99 1.01 0.93 0.92
0.46 0.81 1.25 1.03 0.77 0.43 0.19 0.14 0.19 0.25 0.28 0.21 0.19 0.17 0.14 0.14 0.15 0.17 0.18 0.14 0.13 0.11 0.11 0.11 0.12 0.12 0.12 0.15 0.17 0.17 0.17 0.19 0.26 0.34 0.45 0.52 0.60 0.76 0.77 0.83 0.92 0.91 0.91 0.90
0.44 0.80 1.36 1.17 0.86 0.42 0.21 0.12 0.14 0.23 0.37 0.21 0.16 0.17 0.16 0.16 0.28 0.25 0.23 0.18 0.14 0.10 0.10 0.10 0.10 0.09 0.10 0.13 0.14 0.14 0.15 0.17 0.22 0.29 0.37 0.43 0.48 0.62 0.65 0.67 0.73 0.75 0.77 0.81
0.70 1.08 1.26 0.95 0.73 0.33 0.17 0.13 0.16 0.42 0.49 0.20 0.14 0.15 0.15 0.21 0.31 0.26 0.22 0.19 0.15 0.12 0.11 0.10 0.10 0.10 0.10 0.12 0.14 0.14 0.14 0.16 0.20 0.25 0.30 0.35 0.40 0.46 0.51 0.56 0.60 0.64 0.67 0.72
0.51 0.72 0.72 0.68 0.76 0.40 0.18 0.21 0.37 0.44 0.24 0.15 0.12 0.11 0.13 0.14 0.13 0.13 0.16 0.17 0.14 0.14 0.14 0.12 0.11 0.10 0.10 0.12 0.13 0.11 0.12 0.16 0.18 0.23 0.28 0.33 0.38 0.39 0.43 0.48 0.54 0.56 0.64 0.75
0.35 0.45 0.50 0.48 0.41 0.26 0.19 0.24 0.26 0.19 0.15 0.12 0.12 0.11 0.12 0.12 0.11 0.13 0.14 0.14 0.13 0.14 0.15 0.13 0.13 0.13 0.12 0.11 0.12 0.11 0.11 0.15 0.19 0.23 0.27 0.32 0.37 0.34 0.41 0.48 0.55 0.58 0.66 0.76
0.25 0.24 0.29 0.26 0.17 0.13 0.13 0.15 0.15 0.13 0.11 0.09 0.10 0.12 0.11 0.11 0.10 0.12 0.12 0.13 0.14 0.14 0.13 0.12 0.12 0.14 0.13 0.12 0.11 0.10 0.11 0.15 0.20 0.23 0.26 0.31 0.38 0.39 0.39 0.45 0.54 0.59 0.64 0.79
0.20 0.21 0.25 0.20 0.12 0.09 0.09 0.10 0.11 0.12 0.09 0.07 0.08 0.10 0.09 0.09 0.09 0.11 0.13 0.14 0.15 0.15 0.13 0.12 0.12 0.13 0.13 0.13 0.10 0.10 0.13 0.18 0.22 0.24 0.26 0.31 0.39 0.43 0.41 0.43 0.49 0.57 0.61 0.80
0.12 0.15 0.20 0.16 0.09 0.10 0.08 0.06 0.06 0.08 0.08 0.07 0.08 0.09 0.07 0.07 0.09 0.10 0.12 0.13 0.13 0.13 0.14 0.13 0.12 0.12 0.12 0.11 0.10 0.11 0.14 0.19 0.25 0.29 0.31 0.35 0.42 0.43 0.43 0.43 0.47 0.55 0.59 0.66

GEFSCGP_prec_meanprecacc_222.txt.gz
Total_Precipitation_Accumulation
0.80 0.81 0.69 0.50 0.47 0.45 0.40 0.34 0.27 0.17 0.16 0.24 0.22 0.16 0.12 0.12 0.13 0.11 0.10 0.11 0.10 0.10 0.09 0.11 0.16 0.20 0.24 0.32 0.41 0.46 0.50 0.59 0.72 0.83 0.89 0.88 0.94 0.90 0.82 0.75 0.79 0.80 0.77 0.70
0.88 0.68 0.32 0.23 0.29 0.37 0.44 0.44 0.29 0.20 0.19 0.26 0.22 0.13 0.09 0.09 0.11 0.10 0.10 0.10 0.09 0.09 0.10 0.11 0.16 0.24 0.27 0.32 0.40 0.48 0.50 0.54 0.62 0.65 0.73 0.79 0.80 0.83 0.84 0.77 0.76 0.81 0.82 0.76
0.64 0.43 0.21 0.24 0.32 0.42 0.43 0.40 0.29 0.24 0.22 0.26 0.26 0.19 0.08 0.07 0.07 0.08 0.08 0.09 0.08 0.09 0.10 0.10 0.13 0.23 0.28 0.30 0.38 0.44 0.51 0.51 0.59 0.65 0.78 0.87 0.93 0.94 0.93 0.88 0.82 0.80 0.81 0.79
0.44 0.30 0.30 0.34 0.33 0.37 0.42 0.28 0.26 0.27 0.39 0.42 0.33 0.35 0.10 0.07 0.08 0.09 0.09 0.09 0.09 0.10 0.11 0.10 0.12 0.19 0.25 0.28 0.37 0.44 0.52 0.59 0.60 0.69 0.79 0.79 0.80 0.81 0.75 0.75 0.76 0.80 0.82 0.81
0.47 0.33 0.39 0.41 0.28 0.28 0.33 0.27 0.30 0.33 0.44 0.49 0.32 0.36 0.13 0.06 0.11 0.13 0.14 0.13 0.11 0.11 0.12 0.11 0.12 0.17 0.23 0.29 0.37 0.46 0.51 0.63 0.66 0.67 0.74 0.74 0.70 0.69 0.72 0.77 0.82 0.82 0.85 0.86
0.39 0.31 0.37 0.32 0.23 0.24 0.33 0.43 0.55 0.57 0.74 0.84 0.30 0.27 0.15 0.11 0.15 0.15 0.13 0.14 0.16 0.15 0.15 0.15 0.14 0.17 0.23 0.30 0.39 0.44 0.51 0.62 0.71 0.70 0.75 0.75 0.72 0.70 0.76 0.81 0.89 0.89 0.90 0.93
0.57 0.41 0.41 0.35 0.40 0.43 0.57 0.90 1.35 1.43 1.39 0.80 0.15 0.16 0.16 0.12 0.11 0.13 0.11 0.12 0.18 0.20 0.20 0.20 0.17 0.19 0.22 0.29 0.39 0.44 0.48 0.61 0.71 0.72 0.74 0.75 0.71 0.69 0.73 0.78 0.83 0.87 0.89 0.92
0.74 0.56 0.41 0.42 0.48 0.59 0.63 0.78 1.06 1.06 0.74 0.28 0.09 0.11 0.11 0.08 0.05 0.06 0.06 0.07 0.10 0.14 0.21 0.23 0.19 0.20 0.24 0.28 0.35 0.42 0.45 0.54 0.69 0.70 0.71 0.73 0.72 0.68 0.70 0.74 0.77 0.81 0.79 0.78
0.81 0.56 0.31 0.29 0.28 0.41 0.59 0.61 0.52 0.71 0.51 0.29 0.15 0.10 0.09 0.06 0.04 0.04 0.06 0.08 0.09 0.10 0.15 0.22 0.20 0.23 0.26 0.31 0.33 0.41 0.47 0.53 0.66 0.73 0.71 0.72 0.74 0.73 0.66 0.70 0.73 0.80 0.79 0.71
0.92 0.71 0.36 0.30 0.36 0.43 0.52 0.60 0.72 1.04 0.84 0.44 0.19 0.12 0.14 0.11 0.07 0.05 0.07 0.10 0.10 0.10 0.14 0.18 0.18 0.22 0.28 0.33 0.32 0.37 0.48 0.52 0.61 0.71 0.73 0.76 0.78 0.77 0.71 0.70 0.72 0.72 0.77 0.76
0.85 0.89 0.56 0.51 0.59 0.55 0.55 0.74 1.00 1.04 0.76 0.58 0.34 0.21 0.19 0.15 0.10 0.08 0.08 0.10 0.12 0.11 0.14 0.16 0.17 0.21 0.27 0.32 0.32 0.33 0.41 0.52 0.61 0.67 0.70 0.76 0.86 0.84 0.81 0.78 0.73 0.69 0.70 0.77
0.84 1.06 0.79 0.52 0.45 0.40 0.52 0.65 0.81 1.04 0.79 0.45 0.39 0.27 0.19 0.14 0.11 0.09 0.08 0.10 0.12 0.12 0.14 0.14 0.16 0.20 0.24 0.27 0.31 0.34 0.38 0.47 0.58 0.68 0.70 0.73 0.83 0.90 0.87 0.91 0.89 0.79 0.70 0.71
1.05 1.37 1.21 0.90 0.78 0.67 0.70 0.62 0.63 0.72 0.73 0.54 0.44 0.28 0.17 0.13 0.10 0.08 0.08 0.09 0.12 0.14 0.17 0.15 0.15 0.17 0.22 0.25 0.30 0.34 0.37 0.42 0.52 0.67 0.71 0.75 0.79 0.87 0.89 0.92 0.99 0.98 0.93 0.93
1.24 1.44 1.09 0.99 0.88 0.80 0.74 0.55 0.51 0.72 0.85 0.54 0.34 0.23 0.16 0.14 0.12 0.10 0.09 0.09 0.11 0.15 0.17 0.16 0.15 0.16 0.21 0.25 0.28 0.31 0.32 0.40 0.49 0.65 0.76 0.78 0.81 0.82 0.86 0.91 0.96 1.08 1.15 1.21
1.29 1.29 0.59 0.37 0.35 0.42 0.46 0.37 0.38 0.54 0.53 0.43 0.24 0.21 0.24 0.20 0.15 0.14 0.12 0.10 0.11 0.13 0.14 0.13 0.15 0.17 0.19 0.23 0.26 0.27 0.29 0.36 0.45 0.60 0.71 0.77 0.83 0.93 0.99 1.02 1.04 1.08 1.21 1.28
1.20 1.17 0.58 0.32 0.21 0.28 0.32 0.23 0.23 0.26 0.25 0.26 0.20 0.21 0.24 0.21 0.16 0.14 0.14 0.12 0.12 0.13 0.11 0.12 0.13 0.17 0.20 0.22 0.24 0.23 0.25 0.33 0.42 0.56 0.65 0.73 0.86 0.98 1.10 1.12 1.17 1.19 1.23 1.31
1.04 1.00 0.86 0.51 0.24 0.40 0.46 0.23 0.21 0.22 0.20 0.21 0.25 0.25 0.21 0.19 0.17 0.16 0.15 0.15 0.14 0.11 0.10 0.10 0.12 0.16 0.18 0.20 0.21 0.22 0.24 0.30 0.35 0.47 0.59 0.66 0.80 0.93 1.03 1.06 1.10 1.13 1.06 1.05
0.82 0.92 1.13 0.77 0.56 0.79 0.38 0.16 0.16 0.19 0.20 0.19 0.21 0.21 0.20 0.20 0.19 0.16 0.16 0.15 0.13 0.11 0.11 0.11 0.13 0.14 0.15 0.18 0.19 0.19 0.20 0.25 0.34 0.41 0.54 0.59 0.69 0.83 0.89 0.95 1.00 1.01 0.93 0.92
0.49 0.86 1.31 1.08 0.81 0.46 0.20 0.15 0.19 0.26 0.31 0.22 0.20 0.18 0.16 0.16 0.17 0.19 0.19 0.15 0.13 0.11 0.11 0.11 0.12 0.13 0.13 0.16 0.18 0.18 0.18 0.21 0.27 0.35 0.45 0.52 0.61 0.77 0.78 0.84 0.93 0.92 0.92 0.91
0.46 0.84 1.41 1.21 0.90 0.45 0.22 0.12 0.14 0.24 0.40 0.22 0.17 0.18 0.17 0.17 0.30 0.27 0.24 0.18 0.14 0.10 0.10 0.10 0.11 0.10 0.11 0.14 0.16 0.16 0.16 0.19 0.24 0.31 0.38 0.44 0.49 0.64 0.67 0.68 0.74 0.76 0.78 0.82
0.74 1.12 1.31 0.99 0.76 0.35 0.18 0.14 0.17 0.45 0.52 0.21 0.15 0.16 0.17 0.22 0.32 0.28 0.22 0.20 0.15 0.12 0.11 0.10 0.10 0.11 0.11 0.13 0.15 0.15 0.15 0.18 0.23 0.28 0.32 0.37 0.41 0.48 0.53 0.58 0.61 0.65 0.69 0.74
0.53 0.75 0.76 0.71 0.80 0.43 0.19 0.21 0.38 0.46 0.24 0.15 0.13 0.12 0.14 0.14 0.13 0.14 0.16 0.17 0.15 0.14 0.14 0.13 0.12 0.11 0.11 0.13 0.14 0.13 0.14 0.18 0.20 0.26 0.31 0.35 0.40 0.42 0.45 0.50 0.56 0.58 0.67 0.77
0.36 0.47 0.52 0.51 0.44 0.27 0.20 0.26 0.28 0.20 0.16 0.12 0.13 0.13 0.13 0.13 0.12 0.13 0.14 0.14 0.13 0.14 0.15 0.14 0.13 0.14 0.12 0.12 0.13 0.12 0.12 0.17 0.21 0.27 0.30 0.36 0.40 0.38 0.45 0.51 0.58 0.61 0.69 0.78
0.27 0.25 0.31 0.28 0.19 0.14 0.15 0.16 0.16 0.14 0.12 0.11 0.12 0.14 0.13 0.13 0.11 0.12 0.13 0.13 0.15 0.14 0.13 0.12 0.13 0.14 0.14 0.12 0.12 0.11 0.13 0.17 0.22 0.26 0.29 0.34 0.41 0.42 0.43 0.48 0.57 0.62 0.67 0.82
0.22 0.23 0.26 0.22 0.13 0.11 0.11 0.12 0.13 0.13 0.10 0.08 0.10 0.12 0.12 0.11 0.11 0.12 0.14 0.15 0.15 0.15 0.13 0.12 0.12 0.13 0.14 0.13 0.11 0.10 0.14 0.19 0.23 0.25 0.28 0.34 0.42 0.46 0.43 0.45 0.51 0.58 0.62 0.82
0.14 0.18 0.22 0.18 0.10 0.12 0.10 0.08 0.08 0.10 0.10 0.09 0.11 0.12 0.10 0.10 0.12 0.12 0.13 0.14 0.14 0.14 0.14 0.14 0.12 0.12 0.12 0.11 0.10 0.12 0.15 0.20 0.27 0.30 0.32 0.36 0.44 0.45 0.44 0.45 0.48 0.56 0.60 0.67

GEFSCGP_prec_meanprecacc_228.txt.gz
Total_Precipitation_Accumulation
0.81 0.83 0.71 0.52 0.48 0.45 0.40 0.34 0.27 0.17 0.16 0.24 0.22 0.17 0.12 0.12 0.13 0.11 0.10 0.11 0.10 0.10 0.09 0.11 0.16 0.20 0.24 0.32 0.41 0.46 0.50 0.59 0.72 0.83 0.89 0.88 0.95 0.91 0.82 0.76 0.79 0.81 0.79 0.73
0.89 0.70 0.34 0.24 0.30 0.38 0.45 0.44 0.29 0.20 0.19 0.26 0.22 0.14 0.09 0.09 0.11 0.10 0.10 0.10 0.09 0.09 0.10 0.11 0.16 0.24 0.28 0.32 0.40 0.48 0.50 0.54 0.62 0.65 0.73 0.79 0.80 0.84 0.84 0.78 0.77 0.82 0.84 0.78
0.65 0.43 0.22 0.25 0.35 0.43 0.43 0.40 0.30 0.24 0.22 0.26 0.26 0.20 0.09 0.07 0.07 0.08 0.08 0.09 0.08 0.09 0.10 0.10 0.13 0.23 0.28 0.30 0.38 0.44 0.51 0.51 0.59 0.65 0.78 0.87 0.93 0.95 0.93 0.88 0.83 0.81 0.83 0.81
0.45 0.30 0.30 0.35 0.35 0.40 0.44 0.28 0.26 0.28 0.39 0.43 0.33 0.36 0.10 0.07 0.08 0.09 0.09 0.09 0.09 0.10 0.11 0.10 0.12 0.19 0.25 0.28 0.37 0.44 0.52 0.59 0.60 0.69 0.79 0.79 0.80 0.81 0.75 0.75 0.77 0.81 0.84 0.83
0.47 0.33 0.39 0.42 0.29 0.30 0.34 0.27 0.31 0.34 0.44 0.50 0.32 0.37 0.13 0.06 0.11 0.14 0.14 0.13 0.11 0.11 0.12 0.11 0.12 0.17 0.23 0.29 0.37 0.46 0.51 0.63 0.66 0.67 0.74 0.74 0.70 0.69 0.72 0.78 0.82 0.83 0.86 0.89
0.39 0.31 0.37 0.32 0.23 0.25 0.34 0.44 0.57 0.59 0.76 0.86 0.30 0.27 0.16 0.11 0.16 0.15 0.13 0.14 0.16 0.15 0.15 0.15 0.14 0.17 0.23 0.30 0.39 0.44 0.51 0.62 0.71 0.70 0.75 0.75 0.72 0.70 0.76 0.81 0.89 0.90 0.91 0.95
0.59 0.42 0.41 0.35 0.40 0.43 0.59 0.94 1.39 1.47 1.42 0.81 0.15 0.16 0.16 0.12 0.11 0.13 0.11 0.12 0.18 0.20 0.20 0.20 0.17 0.19 0.22 0.29 0.39 0.44 0.48 0.61 0.71 0.72 0.74 0.75 0.71 0.70 0.73 0.78 0.83 0.87 0.90 0.94
0.75 0.56 0.42 0.42 0.48 0.60 0.64 0.82 1.09 1.09 0.76 0.29 0.09 0.11 0.11 0.08 0.05 0.06 0.06 0.07 0.10 0.14 0.21 0.23 0.19 0.21 0.24 0.28 0.35 0.42 0.45 0.54 0.69 0.70 0.71 0.73 0.72 0.69 0.70 0.74 0.77 0.82 0.80 0.80
0.83 0.57 0.31 0.29 0.28 0.41 0.60 0.63 0.55 0.73 0.53 0.30 0.16 0.10 0.09 0.06 0.04 0.04 0.06 0.08 0.09 0.10 0.15 0.22 0.20 0.23 0.26 0.31 0.33 0.41 0.47 0.53 0.67 0.74 0.71 0.73 0.75 0.73 0.67 0.70 0.74 0.81 0.80 0.73
0.94 0.73 0.36 0.31 0.37 0.44 0.54 0.62 0.75 1.08 0.87 0.46 0.20 0.13 0.15 0.12 0.07 0.05 0.07 0.10 0.10 0.11 0.14 0.18 0.18 0.22 0.28 0.33 0.32 0.37 0.48 0.52 0.61 0.71 0.74 0.76 0.79 0.78 0.72 0.71 0.73 0.74 0.78 0.79
0.86 0.92 0.58 0.52 0.61 0.57 0.57 0.77 1.03 1.08 0.78 0.60 0.36 0.23 0.22 0.17 0.10 0.08 0.08 0.10 0.12 0.11 0.14 0.16 0.17 0.21 0.28 0.32 0.32 0.33 0.41 0.52 0.61 0.67 0.70 0.77 0.87 0.85 0.83 0.80 0.75 0.71 0.72 0.80
0.86 1.07 0.81 0.54 0.46 0.41 0.54 0.67 0.84 1.08 0.83 0.47 0.41 0.30 0.21 0.15 0.11 0.09 0.08 0.10 0.12 0.12 0.14 0.15 0.16 0.20 0.24 0.28 0.32 0.34 0.39 0.47 0.58 0.68 0.70 0.73 0.84 0.91 0.89 0.94 0.91 0.81 0.73 0.75
1.07 1.40 1.23 0.93 0.81 0.69 0.72 0.65 0.66 0.75 0.77 0.56 0.47 0.31 0.19 0.14 0.11 0.09 0.08 0.09 0.12 0.14 0.17 0.16 0.15 0.18 0.22 0.25 0.31 0.34 0.37 0.42 0.52 0.67 0.72 0.75 0.79 0.88 0.90 0.93 1.00 0.99 0.96 0.97
1.30 1.47 1.11 1.01 0.91 0.82 0.76 0.56 0.53 0.77 0.90 0.58 0.37 0.26 0.18 0.16 0.13 0.11 0.09 0.09 0.11 0.15 0.17 0.16 0.16 0.17 0.21 0.25 0.29 0.32 0.33 0.40 0.49 0.65 0.76 0.78 0.81 0.82 0.86 0.91 0.96 1.09 1.17 1.25
1.36 1.32 0.60 0.38 0.36 0.43 0.47 0.39 0.39 0.56 0.56 0.47 0.27 0.24 0.27 0.22 0.17 0.15 0.13 0.11 0.11 0.14 0.14 0.14 0.15 0.17 0.20 0.23 0.26 0.28 0.30 0.36 0.45 0.61 0.71 0.77 0.83 0.93 1.00 1.02 1.05 1.10 1.23 1.32
1.27 1.21 0.59 0.32 0.22 0.28 0.33 0.24 0.25 0.28 0.27 0.28 0.23 0.26 0.27 0.22 0.17 0.15 0.15 0.13 0.13 0.14 0.12 0.12 0.14 0.18 0.20 0.22 0.25 0.25 0.26 0.33 0.42 0.57 0.65 0.73 0.87 0.98 1.11 1.13 1.18 1.20 1.25 1.34
1.08 1.04 0.89 0.53 0.25 0.42 0.48 0.26 0.22 0.24 0.23 0.23 0.29 0.30 0.24 0.22 0.19 0.17 0.16 0.16 0.14 0.12 0.11 0.11 0.13 0.17 0.20 0.22 0.22 0.23 0.26 0.30 0.36 0.48 0.60 0.67 0.81 0.94 1.04 1.07 1.11 1.15 1.09 1.08
0.85 0.96 1.17 0.81 0.59 0.83 0.41 0.19 0.18 0.21 0.23 0.23 0.25 0.25 0.23 0.24 0.22 0.18 0.16 0.16 0.13 0.12 0.12 0.12 0.14 0.15 0.16 0.19 0.20 0.20 0.22 0.26 0.35 0.42 0.55 0.59 0.69 0.83 0.90 0.96 1.01 1.03 0.97 0.95
0.50 0.89 1.36 1.12 0.84 0.48 0.22 0.16 0.21 0.28 0.34 0.25 0.23 0.22 0.20 0.19 0.21 0.23 0.21 0.15 0.13 0.12 0.11 0.12 0.13 0.13 0.13 0.16 0.19 0.19 0.19 0.22 0.28 0.35 0.46 0.53 0.62 0.78 0.79 0.85 0.95 0.94 0.95 0.92
0.48 0.86 1.45 1.24 0.93 0.48 0.24 0.13 0.15 0.26 0.43 0.25 0.19 0.21 0.21 0.20 0.33 0.31 0.26 0.19 0.15 0.11 0.10 0.10 0.11 0.10 0.12 0.14 0.16 0.16 0.17 0.20 0.25 0.32 0.39 0.44 0.50 0.65 0.68 0.70 0.76 0.78 0.81 0.83
0.77 1.16 1.35 1.01 0.79 0.36 0.20 0.15 0.18 0.47 0.55 0.23 0.17 0.18 0.19 0.25 0.34 0.29 0.24 0.21 0.17 0.14 0.12 0.11 0.11 0.11 0.12 0.14 0.16 0.16 0.16 0.19 0.24 0.29 0.33 0.38 0.42 0.50 0.54 0.59 0.62 0.67 0.71 0.75
0.55 0.78 0.79 0.74 0.82 0.45 0.20 0.22 0.40 0.48 0.26 0.16 0.15 0.14 0.16 0.16 0.15 0.16 0.18 0.19 0.16 0.16 0.16 0.14 0.13 0.11 0.12 0.13 0.14 0.14 0.15 0.19 0.21 0.27 0.32 0.36 0.41 0.43 0.47 0.51 0.57 0.59 0.67 0.77
0.38 0.49 0.54 0.54 0.48 0.31 0.21 0.27 0.29 0.22 0.17 0.14 0.15 0.15 0.15 0.15 0.14 0.15 0.15 0.15 0.14 0.15 0.15 0.14 0.14 0.14 0.13 0.13 0.14 0.13 0.13 0.18 0.22 0.28 0.32 0.38 0.41 0.39 0.46 0.52 0.58 0.62 0.69 0.79
0.30 0.27 0.33 0.30 0.23 0.17 0.16 0.17 0.17 0.15 0.13 0.11 0.13 0.15 0.14 0.14 0.13 0.13 0.13 0.14 0.15 0.15 0.13 0.12 0.13 0.15 0.14 0.13 0.12 0.12 0.13 0.18 0.23 0.27 0.30 0.36 0.43 0.44 0.44 0.50 0.58 0.63 0.68 0.82
0.25 0.25 0.29 0.25 0.16 0.12 0.12 0.12 0.13 0.14 0.11 0.09 0.11 0.13 0.13 0.13 0.12 0.13 0.15 0.15 0.16 0.16 0.14 0.13 0.13 0.13 0.14 0.13 0.11 0.11 0.14 0.20 0.24 0.26 0.29 0.35 0.44 0.48 0.45 0.47 0.53 0.60 0.63 0.83
0.17 0.20 0.25 0.21 0.12 0.13 0.11 0.09 0.08 0.11 0.11 0.10 0.12 0.13 0.11 0.11 0.13 0.14 0.15 0.15 0.15 0.15 0.15 0.15 0.13 0.13 0.13 0.12 0.11 0.12 0.15 0.21 0.28 0.32 0.34 0.38 0.46 0.48 0.46 0.47 0.51 0.59 0.62 0.70

GEFSCGP_prec_meanprecacc_234.txt.gz
Total_Precipitation_Accumulation
0.84 0.85 0.73 0.53 0.49 0.47 0.41 0.34 0.27 0.17 0.16 0.25 0.23 0.17 0.12 0.12 0.13 0.11 0.10 0.11 0.11 0.11 0.10 0.13 0.18 0.22 0.26 0.34 0.41 0.47 0.51 0.59 0.73 0.84 0.90 0.89 0.97 0.93 0.85 0.78 0.82 0.83 0.81 0.75
0.92 0.71 0.34 0.25 0.31 0.39 0.47 0.45 0.29 0.20 0.19 0.26 0.22 0.14 0.09 0.10 0.11 0.10 0.10 0.10 0.09 0.10 0.12 0.13 0.18 0.25 0.29 0.33 0.40 0.48 0.50 0.54 0.62 0.66 0.74 0.80 0.82 0.85 0.85 0.79 0.78 0.84 0.86 0.80
0.67 0.44 0.22 0.26 0.35 0.45 0.46 0.42 0.30 0.25 0.23 0.27 0.26 0.20 0.09 0.08 0.08 0.08 0.08 0.09 0.08 0.09 0.12 0.11 0.14 0.24 0.29 0.31 0.38 0.44 0.51 0.51 0.59 0.66 0.78 0.87 0.93 0.95 0.93 0.88 0.83 0.81 0.84 0.83
0.46 0.31 0.31 0.36 0.36 0.41 0.45 0.29 0.27 0.28 0.40 0.43 0.34 0.36 0.11 0.08 0.09 0.09 0.09 0.09 0.09 0.10 0.12 0.11 0.13 0.20 0.26 0.29 0.38 0.44 0.52 0.59 0.60 0.69 0.79 0.79 0.80 0.81 0.75 0.75 0.77 0.81 0.84 0.84
0.50 0.34 0.39 0.42 0.29 0.31 0.35 0.28 0.32 0.35 0.45 0.51 0.33 0.38 0.14 0.07 0.13 0.14 0.14 0.13 0.11 0.12 0.13 0.12 0.12 0.17 0.24 0.29 0.38 0.46 0.51 0.63 0.66 0.67 0.74 0.74 0.70 0.69 0.72 0.78 0.82 0.83 0.86 0.89
0.41 0.32 0.37 0.33 0.23 0.26 0.35 0.45 0.57 0.60 0.78 0.88 0.31 0.28 0.16 0.12 0.17 0.16 0.13 0.14 0.16 0.15 0.16 0.16 0.15 0.18 0.24 0.30 0.39 0.44 0.51 0.62 0.71 0.71 0.75 0.75 0.72 0.71 0.77 0.81 0.89 0.90 0.91 0.95
0.62 0.44 0.41 0.35 0.40 0.44 0.60 0.95 1.42 1.51 1.46 0.82 0.15 0.16 0.17 0.12 0.12 0.14 0.11 0.12 0.18 0.20 0.21 0.20 0.18 0.20 0.23 0.30 0.39 0.44 0.48 0.61 0.71 0.72 0.74 0.75 0.71 0.70 0.73 0.78 0.83 0.87 0.90 0.94
0.78 0.60 0.43 0.43 0.49 0.61 0.65 0.83 1.11 1.11 0.77 0.29 0.09 0.11 0.11 0.08 0.05 0.06 0.06 0.07 0.10 0.14 0.21 0.23 0.19 0.21 0.24 0.29 0.35 0.42 0.45 0.54 0.69 0.71 0.71 0.73 0.72 0.69 0.70 0.75 0.77 0.82 0.80 0.80
0.84 0.58 0.32 0.29 0.29 0.41 0.60 0.64 0.57 0.75 0.54 0.30 0.16 0.10 0.09 0.07 0.04 0.04 0.07 0.08 0.09 0.10 0.16 0.23 0.20 0.23 0.27 0.32 0.34 0.41 0.47 0.53 0.67 0.74 0.71 0.73 0.75 0.73 0.67 0.71 0.74 0.81 0.80 0.73
0.94 0.74 0.37 0.31 0.37 0.44 0.54 0.62 0.77 1.12 0.89 0.47 0.20 0.14 0.16 0.13 0.08 0.05 0.08 0.10 0.10 0.11 0.14 0.18 0.18 0.23 0.29 0.33 0.32 0.37 0.48 0.52 0.62 0.71 0.74 0.76 0.79 0.78 0.72 0.71 0.73 0.74 0.78 0.79
0.87 0.93 0.60 0.53 0.62 0.58 0.58 0.78 1.05 1.10 0.81 0.61 0.37 0.24 0.23 0.17 0.11 0.08 0.08 0.11 0.13 0.11 0.14 0.16 0.17 0.21 0.28 0.32 0.32 0.33 0.42 0.53 0.61 0.68 0.71 0.77 0.87 0.85 0.83 0.81 0.75 0.72 0.73 0.80
0.87 1.09 0.83 0.55 0.46 0.42 0.55 0.69 0.86 1.11 0.85 0.48 0.43 0.31 0.22 0.16 0.12 0.10 0.08 0.10 0.13 0.12 0.14 0.15 0.16 0.20 0.25 0.28 0.32 0.34 0.39 0.47 0.58 0.68 0.71 0.73 0.84 0.92 0.90 0.94 0.92 0.81 0.74 0.75
1.10 1.42 1.26 0.96 0.83 0.70 0.73 0.66 0.67 0.77 0.80 0.59 0.48 0.32 0.20 0.15 0.12 0.10 0.09 0.10 0.12 0.14 0.17 0.16 0.15 0.18 0.23 0.25 0.31 0.34 0.37 0.42 0.52 0.67 0.72 0.76 0.80 0.88 0.91 0.93 1.01 1.00 0.97 0.98
1.37 1.51 1.13 1.03 0.92 0.84 0.77 0.57 0.55 0.78 0.94 0.61 0.38 0.27 0.19 0.16 0.14 0.12 0.11 0.10 0.13 0.16 0.17 0.16 0.16 0.17 0.21 0.25 0.29 0.32 0.33 0.40 0.49 0.65 0.77 0.78 0.81 0.83 0.87 0.92 0.97 1.10 1.18 1.26
1.42 1.35 0.61 0.38 0.36 0.43 0.48 0.40 0.40 0.57 0.58 0.49 0.29 0.25 0.28 0.23 0.18 0.17 0.15 0.13 0.13 0.16 0.15 0.15 0.16 0.17 0.20 0.24 0.27 0.28 0.31 0.36 0.46 0.61 0.72 0.78 0.83 0.93 1.00 1.02 1.05 1.10 1.23 1.33
1.30 1.24 0.60 0.33 0.22 0.29 0.34 0.25 0.25 0.29 0.28 0.29 0.25 0.27 0.28 0.23 0.18 0.16 0.16 0.15 0.15 0.17 0.15 0.15 0.16 0.19 0.21 0.23 0.25 0.25 0.27 0.34 0.43 0.59 0.66 0.74 0.87 0.99 1.11 1.13 1.18 1.20 1.25 1.35
1.11 1.07 0.91 0.54 0.25 0.43 0.50 0.27 0.23 0.25 0.24 0.24 0.30 0.31 0.26 0.23 0.20 0.18 0.17 0.17 0.16 0.14 0.14 0.14 0.17 0.21 0.22 0.23 0.23 0.24 0.26 0.32 0.38 0.51 0.62 0.68 0.81 0.94 1.04 1.08 1.11 1.15 1.10 1.08
0.89 0.99 1.21 0.83 0.61 0.85 0.43 0.20 0.19 0.22 0.25 0.24 0.26 0.26 0.25 0.26 0.24 0.20 0.17 0.17 0.14 0.13 0.13 0.14 0.16 0.17 0.19 0.22 0.22 0.22 0.23 0.28 0.36 0.45 0.57 0.60 0.70 0.84 0.91 0.97 1.02 1.03 0.97 0.95
0.53 0.92 1.40 1.16 0.87 0.50 0.23 0.17 0.23 0.29 0.36 0.27 0.24 0.24 0.22 0.22 0.23 0.26 0.23 0.16 0.14 0.12 0.12 0.13 0.14 0.14 0.15 0.18 0.21 0.21 0.22 0.25 0.30 0.38 0.48 0.54 0.62 0.78 0.80 0.86 0.96 0.95 0.96 0.94
0.52 0.90 1.49 1.29 0.97 0.49 0.25 0.14 0.17 0.27 0.45 0.27 0.21 0.23 0.23 0.22 0.36 0.34 0.28 0.21 0.16 0.12 0.11 0.12 0.12 0.11 0.12 0.15 0.17 0.17 0.19 0.23 0.29 0.35 0.42 0.46 0.51 0.65 0.68 0.70 0.77 0.81 0.83 0.86
0.82 1.22 1.40 1.05 0.81 0.38 0.21 0.16 0.19 0.48 0.58 0.25 0.19 0.21 0.22 0.27 0.36 0.31 0.26 0.22 0.18 0.15 0.14 0.12 0.12 0.12 0.12 0.14 0.16 0.16 0.16 0.20 0.25 0.31 0.36 0.40 0.44 0.51 0.55 0.60 0.64 0.69 0.73 0.77
0.58 0.81 0.83 0.77 0.85 0.47 0.22 0.23 0.41 0.51 0.29 0.19 0.18 0.18 0.19 0.19 0.17 0.18 0.20 0.21 0.19 0.18 0.18 0.16 0.14 0.13 0.12 0.14 0.15 0.14 0.15 0.19 0.23 0.29 0.34 0.38 0.42 0.44 0.48 0.53 0.59 0.61 0.69 0.79
0.41 0.52 0.57 0.56 0.50 0.34 0.24 0.30 0.32 0.24 0.19 0.16 0.18 0.18 0.18 0.17 0.16 0.17 0.18 0.18 0.17 0.17 0.17 0.16 0.16 0.16 0.15 0.14 0.15 0.14 0.14 0.19 0.24 0.30 0.34 0.40 0.43 0.40 0.47 0.53 0.60 0.64 0.70 0.80
0.32 0.29 0.35 0.32 0.25 0.19 0.19 0.20 0.20 0.17 0.15 0.14 0.15 0.17 0.16 0.16 0.15 0.15 0.15 0.16 0.17 0.16 0.15 0.14 0.15 0.17 0.16 0.14 0.13 0.13 0.14 0.19 0.24 0.29 0.33 0.39 0.46 0.46 0.46 0.51 0.59 0.64 0.69 0.83
0.27 0.27 0.31 0.27 0.18 0.14 0.13 0.14 0.15 0.15 0.12 0.10 0.11 0.13 0.13 0.14 0.14 0.14 0.17 0.17 0.17 0.17 0.15 0.14 0.14 0.15 0.15 0.14 0.12 0.11 0.15 0.21 0.25 0.28 0.31 0.37 0.46 0.50 0.47 0.49 0.54 0.61 0.64 0.84
0.19 0.23 0.27 0.23 0.14 0.15 0.13 0.10 0.09 0.11 0.11 0.10 0.12 0.14 0.12 0.12 0.15 0.15 0.16 0.17 0.16 0.16 0.16 0.15 0.13 0.14 0.14 0.13 0.12 0.13 0.15 0.22 0.29 0.33 0.35 0.40 0.47 0.50 0.49 0.49 0.53 0.61 0.64 0.71

GEFSCGP_prec_meanprecacc_240.txt.gz
Total_Precipitation_Accumulation
0.89 0.91 0.78 0.55 0.50 0.48 0.42 0.35 0.28 0.18 0.17 0.25 0.23 0.17 0.12 0.12 0.13 0.11 0.10 0.11 0.11 0.11 0.11 0.14 0.20 0.24 0.28 0.36 0.43 0.48 0.53 0.61 0.74 0.86 0.91 0.90 0.98 0.95 0.87 0.82 0.84 0.85 0.83 0.77
0.98 0.75 0.36 0.26 0.32 0.40 0.48 0.46 0.30 0.21 0.19 0.26 0.22 0.14 0.10 0.10 0.11 0.10 0.10 0.10 0.09 0.10 0.12 0.14 0.20 0.28 0.31 0.34 0.42 0.49 0.51 0.56 0.63 0.67 0.76 0.83 0.85 0.88 0.87 0.81 0.81 0.87 0.88 0.82
0.70 0.46 0.23 0.27 0.37 0.47 0.48 0.44 0.31 0.25 0.23 0.27 0.27 0.20 0.09 0.08 0.08 0.08 0.08 0.09 0.08 0.09 0.12 0.12 0.17 0.27 0.31 0.33 0.40 0.46 0.52 0.52 0.60 0.66 0.79 0.88 0.95 0.97 0.95 0.90 0.84 0.83 0.86 0.85
0.49 0.32 0.32 0.38 0.38 0.42 0.47 0.31 0.28 0.30 0.41 0.44 0.35 0.37 0.11 0.08 0.09 0.09 0.09 0.09 0.09 0.10 0.12 0.12 0.15 0.22 0.28 0.30 0.39 0.46 0.54 0.61 0.61 0.69 0.79 0.79 0.80 0.81 0.76 0.76 0.77 0.82 0.84 0.85
0.54 0.36 0.42 0.45 0.31 0.31 0.36 0.29 0.33 0.37 0.47 0.53 0.34 0.38 0.14 0.07 0.13 0.14 0.14 0.13 0.11 0.12 0.13 0.12 0.13 0.19 0.25 0.31 0.39 0.48 0.53 0.64 0.67 0.68 0.75 0.74 0.70 0.69 0.72 0.78 0.82 0.83 0.86 0.89
0.43 0.34 0.40 0.35 0.25 0.26 0.36 0.46 0.60 0.64 0.83 0.92 0.32 0.28 0.16 0.12 0.17 0.16 0.13 0.14 0.16 0.15 0.16 0.17 0.15 0.19 0.26 0.32 0.40 0.46 0.52 0.63 0.72 0.71 0.75 0.75 0.72 0.71 0.77 0.82 0.89 0.90 0.91 0.95
0.65 0.47 0.44 0.38 0.43 0.47 0.61 0.97 1.45 1.57 1.52 0.85 0.16 0.17 0.17 0.12 0.12 0.14 0.11 0.12 0.18 0.20 0.21 0.21 0.18 0.21 0.25 0.32 0.40 0.45 0.49 0.61 0.72 0.72 0.74 0.75 0.71 0.70 0.74 0.78 0.84 0.87 0.90 0.94
0.82 0.65 0.46 0.45 0.51 0.64 0.67 0.84 1.12 1.13 0.79 0.30 0.09 0.12 0.11 0.08 0.05 0.06 0.06 0.07 0.10 0.14 0.21 0.24 0.19 0.21 0.27 0.32 0.37 0.43 0.47 0.54 0.69 0.71 0.71 0.73 0.72 0.69 0.70 0.75 0.78 0.82 0.80 0.80
0.86 0.62 0.34 0.30 0.29 0.42 0.62 0.65 0.57 0.76 0.55 0.31 0.16 0.11 0.10 0.07 0.04 0.04 0.07 0.08 0.09 0.10 0.16 0.23 0.21 0.24 0.29 0.35 0.36 0.43 0.48 0.53 0.67 0.74 0.71 0.73 0.75 0.73 0.67 0.71 0.74 0.81 0.80 0.73
0.95 0.77 0.40 0.33 0.38 0.46 0.55 0.64 0.78 1.13 0.91 0.48 0.21 0.14 0.16 0.13 0.08 0.05 0.08 0.11 0.11 0.11 0.14 0.18 0.18 0.23 0.30 0.36 0.36 0.39 0.48 0.52 0.62 0.71 0.74 0.76 0.79 0.78 0.72 0.72 0.73 0.74 0.79 0.79
0.87 0.95 0.64 0.55 0.64 0.60 0.60 0.80 1.07 1.12 0.82 0.62 0.37 0.25 0.23 0.18 0.11 0.08 0.08 0.11 0.13 0.11 0.14 0.16 0.17 0.22 0.30 0.35 0.35 0.35 0.42 0.53 0.61 0.68 0.71 0.77 0.87 0.85 0.83 0.81 0.76 0.72 0.73 0.80
0.89 1.11 0.86 0.58 0.47 0.42 0.56 0.69 0.87 1.13 0.87 0.49 0.43 0.31 0.22 0.16 0.12 0.10 0.09 0.11 0.13 0.12 0.15 0.15 0.16 0.20 0.26 0.31 0.34 0.36 0.40 0.47 0.58 0.68 0.71 0.73 0.84 0.92 0.90 0.94 0.92 0.82 0.74 0.76
1.15 1.45 1.30 1.01 0.86 0.72 0.74 0.66 0.68 0.78 0.82 0.60 0.49 0.32 0.20 0.16 0.12 0.10 0.09 0.10 0.12 0.14 0.17 0.16 0.15 0.18 0.24 0.29 0.34 0.36 0.38 0.43 0.52 0.67 0.72 0.76 0.80 0.88 0.91 0.94 1.01 1.00 0.97 0.98
1.42 1.54 1.14 1.05 0.93 0.84 0.78 0.58 0.55 0.79 0.95 0.62 0.39 0.27 0.19 0.17 0.14 0.12 0.11 0.11 0.13 0.17 0.18 0.16 0.16 0.17 0.22 0.28 0.33 0.35 0.34 0.40 0.49 0.66 0.77 0.78 0.82 0.83 0.87 0.92 0.98 1.10 1.18 1.26
1.45 1.38 0.62 0.39 0.37 0.43 0.48 0.40 0.41 0.57 0.59 0.50 0.29 0.25 0.28 0.23 0.18 0.17 0.15 0.13 0.14 0.17 0.16 0.15 0.16 0.18 0.21 0.26 0.30 0.30 0.32 0.37 0.46 0.61 0.72 0.78 0.84 0.94 1.00 1.03 1.05 1.10 1.24 1.33
1.33 1.27 0.61 0.34 0.23 0.29 0.34 0.25 0.26 0.29 0.28 0.30 0.25 0.28 0.29 0.23 0.18 0.16 0.16 0.15 0.15 0.18 0.16 0.16 0.17 0.20 0.22 0.25 0.29 0.27 0.29 0.35 0.44 0.59 0.66 0.74 0.87 0.99 1.11 1.14 1.19 1.21 1.26 1.35
1.15 1.09 0.93 0.56 0.26 0.44 0.52 0.29 0.24 0.26 0.24 0.25 0.31 0.32 0.26 0.24 0.20 0.18 0.17 0.17 0.16 0.14 0.15 0.15 0.18 0.22 0.24 0.26 0.26 0.27 0.28 0.32 0.38 0.51 0.62 0.68 0.82 0.95 1.05 1.08 1.12 1.16 1.10 1.09
0.92 1.01 1.23 0.86 0.63 0.88 0.45 0.22 0.20 0.23 0.25 0.25 0.28 0.28 0.25 0.26 0.24 0.20 0.17 0.17 0.14 0.13 0.14 0.15 0.17 0.19 0.21 0.25 0.26 0.26 0.26 0.29 0.37 0.46 0.58 0.61 0.71 0.85 0.92 0.98 1.03 1.04 0.97 0.95
0.54 0.95 1.43 1.19 0.89 0.51 0.24 0.19 0.24 0.30 0.37 0.29 0.25 0.25 0.24 0.23 0.24 0.27 0.23 0.17 0.14 0.12 0.13 0.14 0.15 0.15 0.17 0.21 0.25 0.25 0.25 0.28 0.33 0.40 0.50 0.56 0.64 0.79 0.80 0.87 0.97 0.96 0.97 0.94
0.53 0.92 1.53 1.32 0.99 0.51 0.26 0.15 0.18 0.28 0.47 0.28 0.22 0.25 0.26 0.24 0.37 0.36 0.30 0.22 0.17 0.13 0.12 0.14 0.14 0.13 0.15 0.17 0.19 0.20 0.21 0.25 0.32 0.39 0.45 0.49 0.54 0.68 0.69 0.71 0.77 0.82 0.84 0.86
0.84 1.25 1.44 1.08 0.83 0.40 0.22 0.17 0.20 0.50 0.60 0.28 0.22 0.23 0.25 0.30 0.38 0.34 0.28 0.24 0.19 0.17 0.16 0.15 0.15 0.16 0.16 0.17 0.18 0.18 0.18 0.21 0.27 0.33 0.39 0.44 0.48 0.55 0.57 0.61 0.65 0.70 0.74 0.78
0.59 0.83 0.85 0.80 0.88 0.49 0.23 0.24 0.43 0.53 0.31 0.22 0.21 0.21 0.23 0.22 0.20 0.21 0.23 0.23 0.20 0.20 0.20 0.18 0.18 0.17 0.17 0.17 0.17 0.16 0.17 0.20 0.24 0.31 0.37 0.41 0.46 0.48 0.51 0.55 0.60 0.62 0.70 0.80
0.42 0.54 0.59 0.58 0.53 0.37 0.26 0.31 0.34 0.26 0.21 0.18 0.20 0.21 0.21 0.20 0.19 0.20 0.20 0.20 0.19 0.19 0.19 0.19 0.19 0.20 0.19 0.18 0.18 0.16 0.16 0.20 0.25 0.31 0.35 0.42 0.45 0.43 0.50 0.56 0.63 0.66 0.72 0.81
0.34 0.31 0.37 0.35 0.28 0.22 0.21 0.22 0.21 0.19 0.17 0.16 0.17 0.20 0.19 0.19 0.18 0.18 0.18 0.18 0.20 0.19 0.17 0.16 0.18 0.20 0.20 0.18 0.17 0.16 0.16 0.20 0.25 0.30 0.34 0.40 0.47 0.48 0.47 0.53 0.61 0.66 0.70 0.84
0.29 0.28 0.33 0.29 0.20 0.17 0.16 0.16 0.17 0.16 0.13 0.12 0.13 0.15 0.15 0.15 0.15 0.16 0.19 0.19 0.20 0.20 0.18 0.16 0.17 0.18 0.19 0.17 0.15 0.14 0.17 0.22 0.26 0.29 0.33 0.39 0.48 0.52 0.48 0.50 0.56 0.63 0.65 0.85
0.20 0.25 0.29 0.25 0.16 0.17 0.15 0.12 0.11 0.12 0.12 0.11 0.13 0.15 0.13 0.13 0.16 0.17 0.18 0.19 0.18 0.18 0.18 0.17 0.15 0.16 0.16 0.15 0.14 0.15 0.17 0.23 0.30 0.34 0.37 0.41 0.49 0.52 0.50 0.50 0.55 0.62 0.65 0.72

GEFSCGP_prec_meanprecacc_246.txt.gz
Total_Precipitation_Accumulation
0.97 1.03 0.86 0.59 0.52 0.49 0.43 0.36 0.28 0.18 0.17 0.25 0.23 0.17 0.12 0.12 0.13 0.11 0.10 0.11 0.11 0.11 0.11 0.14 0.20 0.28 0.33 0.38 0.45 0.51 0.56 0.64 0.76 0.88 0.93 0.92 0.99 0.96 0.89 0.85 0.86 0.86 0.84 0.78
1.05 0.83 0.41 0.29 0.34 0.42 0.50 0.48 0.31 0.22 0.20 0.27 0.23 0.14 0.10 0.10 0.11 0.10 0.10 0.10 0.09 0.10 0.12 0.14 0.21 0.31 0.35 0.37 0.43 0.51 0.53 0.58 0.65 0.69 0.77 0.84 0.86 0.90 0.89 0.84 0.86 0.91 0.90 0.83
0.75 0.49 0.26 0.29 0.40 0.49 0.51 0.46 0.33 0.27 0.24 0.28 0.27 0.21 0.10 0.08 0.08 0.08 0.08 0.09 0.08 0.09 0.12 0.12 0.17 0.29 0.34 0.35 0.42 0.48 0.53 0.54 0.61 0.67 0.79 0.89 0.96 0.97 0.95 0.91 0.85 0.86 0.90 0.89
0.52 0.34 0.34 0.41 0.40 0.44 0.50 0.33 0.30 0.31 0.43 0.46 0.36 0.38 0.11 0.08 0.09 0.09 0.09 0.09 0.09 0.10 0.12 0.12 0.15 0.24 0.30 0.32 0.41 0.48 0.56 0.62 0.61 0.70 0.80 0.80 0.81 0.82 0.76 0.77 0.78 0.82 0.85 0.86
0.57 0.38 0.43 0.48 0.33 0.32 0.37 0.31 0.36 0.39 0.51 0.56 0.35 0.39 0.14 0.07 0.13 0.14 0.14 0.13 0.11 0.12 0.13 0.13 0.14 0.20 0.27 0.32 0.40 0.49 0.54 0.66 0.68 0.69 0.77 0.76 0.72 0.70 0.73 0.79 0.83 0.83 0.86 0.89
0.45 0.35 0.42 0.37 0.27 0.29 0.37 0.49 0.63 0.67 0.88 0.97 0.34 0.29 0.17 0.12 0.17 0.16 0.13 0.14 0.16 0.15 0.16 0.17 0.16 0.20 0.27 0.33 0.41 0.46 0.53 0.64 0.74 0.72 0.76 0.76 0.72 0.71 0.77 0.82 0.89 0.90 0.91 0.95
0.70 0.49 0.47 0.41 0.48 0.52 0.66 1.02 1.54 1.67 1.60 0.88 0.17 0.19 0.18 0.12 0.12 0.14 0.11 0.12 0.18 0.20 0.21 0.21 0.19 0.21 0.26 0.33 0.41 0.45 0.49 0.62 0.73 0.74 0.75 0.76 0.71 0.70 0.74 0.79 0.84 0.87 0.90 0.94
0.87 0.70 0.48 0.48 0.57 0.70 0.72 0.88 1.17 1.18 0.81 0.30 0.10 0.15 0.13 0.08 0.05 0.06 0.06 0.07 0.10 0.14 0.21 0.24 0.20 0.22 0.27 0.33 0.38 0.44 0.47 0.56 0.70 0.71 0.71 0.74 0.72 0.69 0.71 0.75 0.78 0.83 0.80 0.80
0.91 0.66 0.36 0.32 0.31 0.45 0.66 0.69 0.59 0.78 0.56 0.32 0.18 0.13 0.11 0.07 0.04 0.04 0.07 0.08 0.09 0.10 0.16 0.23 0.21 0.24 0.29 0.35 0.37 0.43 0.49 0.55 0.68 0.74 0.72 0.73 0.75 0.73 0.67 0.71 0.75 0.81 0.80 0.74
1.01 0.82 0.42 0.34 0.40 0.49 0.59 0.67 0.81 1.15 0.93 0.50 0.22 0.15 0.17 0.13 0.08 0.05 0.08 0.11 0.11 0.11 0.14 0.19 0.18 0.23 0.30 0.36 0.36 0.40 0.50 0.55 0.63 0.72 0.74 0.77 0.79 0.78 0.73 0.72 0.73 0.74 0.79 0.79
0.93 0.99 0.68 0.58 0.67 0.62 0.63 0.85 1.10 1.14 0.84 0.64 0.39 0.26 0.24 0.18 0.11 0.09 0.08 0.11 0.13 0.11 0.14 0.17 0.17 0.22 0.30 0.35 0.35 0.37 0.44 0.55 0.63 0.68 0.71 0.77 0.87 0.85 0.84 0.81 0.76 0.72 0.73 0.80
0.94 1.16 0.90 0.61 0.49 0.43 0.57 0.72 0.91 1.16 0.89 0.50 0.45 0.33 0.22 0.16 0.12 0.10 0.09 0.11 0.13 0.13 0.15 0.15 0.17 0.20 0.26 0.31 0.35 0.38 0.42 0.49 0.60 0.69 0.71 0.73 0.84 0.92 0.90 0.94 0.92 0.82 0.74 0.76
1.21 1.49 1.35 1.07 0.89 0.73 0.75 0.68 0.70 0.80 0.84 0.62 0.51 0.35 0.21 0.16 0.12 0.10 0.09 0.10 0.12 0.15 0.18 0.16 0.15 0.18 0.24 0.29 0.35 0.38 0.42 0.45 0.54 0.69 0.73 0.76 0.80 0.89 0.91 0.94 1.01 1.00 0.97 0.98
1.46 1.57 1.17 1.09 0.96 0.86 0.79 0.58 0.56 0.81 0.98 0.65 0.41 0.30 0.21 0.17 0.15 0.13 0.11 0.11 0.13 0.17 0.18 0.16 0.16 0.17 0.22 0.29 0.33 0.35 0.36 0.43 0.50 0.66 0.77 0.79 0.82 0.83 0.87 0.92 0.98 1.10 1.18 1.26
1.47 1.40 0.63 0.39 0.37 0.44 0.49 0.40 0.41 0.58 0.60 0.52 0.31 0.27 0.31 0.24 0.19 0.18 0.15 0.13 0.14 0.17 0.17 0.15 0.16 0.18 0.21 0.27 0.31 0.31 0.33 0.38 0.47 0.62 0.72 0.78 0.84 0.94 1.00 1.03 1.06 1.10 1.24 1.33
1.35 1.30 0.63 0.35 0.23 0.29 0.34 0.26 0.26 0.30 0.29 0.31 0.27 0.31 0.31 0.25 0.18 0.17 0.16 0.15 0.16 0.18 0.17 0.16 0.17 0.20 0.22 0.26 0.29 0.28 0.30 0.36 0.44 0.60 0.67 0.74 0.88 0.99 1.11 1.14 1.19 1.21 1.26 1.35
1.18 1.13 0.96 0.59 0.28 0.45 0.54 0.31 0.26 0.27 0.26 0.27 0.33 0.35 0.28 0.25 0.21 0.19 0.17 0.17 0.16 0.15 0.15 0.15 0.18 0.22 0.24 0.26 0.27 0.27 0.29 0.33 0.39 0.51 0.62 0.69 0.82 0.95 1.05 1.08 1.12 1.16 1.10 1.09
0.94 1.04 1.27 0.89 0.66 0.94 0.49 0.24 0.21 0.24 0.27 0.27 0.29 0.29 0.26 0.27 0.25 0.21 0.18 0.17 0.15 0.14 0.15 0.15 0.17 0.19 0.21 0.25 0.27 0.27 0.27 0.30 0.38 0.46 0.59 0.62 0.71 0.86 0.92 0.98 1.03 1.04 0.98 0.95
0.56 0.98 1.47 1.23 0.93 0.55 0.26 0.20 0.26 0.32 0.39 0.30 0.26 0.26 0.24 0.23 0.25 0.28 0.24 0.18 0.16 0.14 0.14 0.15 0.15 0.16 0.17 0.21 0.25 0.26 0.27 0.29 0.34 0.41 0.50 0.56 0.64 0.79 0.81 0.87 0.97 0.96 0.97 0.94
0.55 0.94 1.57 1.36 1.03 0.54 0.28 0.16 0.19 0.29 0.49 0.29 0.23 0.26 0.27 0.25 0.39 0.39 0.31 0.23 0.19 0.15 0.14 0.15 0.15 0.14 0.16 0.18 0.20 0.21 0.23 0.26 0.33 0.40 0.46 0.50 0.54 0.68 0.70 0.71 0.78 0.82 0.84 0.87
0.86 1.29 1.48 1.11 0.87 0.42 0.23 0.17 0.21 0.53 0.63 0.29 0.23 0.25 0.26 0.31 0.40 0.35 0.29 0.26 0.21 0.18 0.18 0.17 0.17 0.17 0.17 0.18 0.20 0.20 0.20 0.23 0.28 0.34 0.40 0.45 0.49 0.56 0.59 0.62 0.65 0.70 0.75 0.79
0.62 0.86 0.88 0.82 0.90 0.51 0.24 0.25 0.45 0.55 0.32 0.24 0.23 0.23 0.24 0.23 0.21 0.21 0.24 0.25 0.22 0.21 0.21 0.19 0.19 0.19 0.19 0.19 0.19 0.18 0.19 0.22 0.25 0.32 0.38 0.42 0.47 0.50 0.53 0.57 0.63 0.64 0.72 0.82
0.43 0.56 0.61 0.61 0.56 0.40 0.29 0.33 0.36 0.27 0.22 0.20 0.22 0.23 0.23 0.22 0.21 0.21 0.21 0.21 0.21 0.21 0.21 0.20 0.21 0.22 0.22 0.20 0.20 0.18 0.18 0.21 0.26 0.32 0.36 0.43 0.46 0.45 0.52 0.59 0.66 0.69 0.74 0.83
0.35 0.32 0.38 0.36 0.29 0.24 0.24 0.24 0.23 0.21 0.18 0.17 0.18 0.22 0.21 0.21 0.20 0.20 0.19 0.20 0.22 0.21 0.19 0.18 0.19 0.22 0.23 0.21 0.20 0.18 0.18 0.21 0.26 0.31 0.35 0.41 0.48 0.49 0.49 0.56 0.64 0.69 0.74 0.87
0.29 0.28 0.34 0.30 0.22 0.18 0.17 0.17 0.18 0.18 0.15 0.14 0.16 0.18 0.17 0.17 0.18 0.18 0.21 0.21 0.22 0.22 0.19 0.18 0.18 0.20 0.21 0.20 0.18 0.17 0.18 0.23 0.27 0.30 0.34 0.40 0.50 0.54 0.51 0.53 0.59 0.66 0.69 0.89
0.21 0.25 0.30 0.26 0.17 0.18 0.16 0.13 0.12 0.14 0.14 0.13 0.15 0.17 0.16 0.15 0.18 0.18 0.20 0.21 0.20 0.20 0.20 0.19 0.17 0.18 0.19 0.18 0.17 0.18 0.19 0.24 0.31 0.35 0.38 0.42 0.51 0.54 0.53 0.53 0.57 0.65 0.68 0.75

GEFSCGP_prec_meanprecacc_252.txt.gz
Total_Precipitation_Accumulation
1.05 1.12 0.97 0.68 0.59 0.55 0.48 0.38 0.30 0.19 0.18 0.25 0.23 0.17 0.12 0.12 0.13 0.11 0.11 0.12 0.12 0.12 0.12 0.15 0.22 0.30 0.37 0.43 0.50 0.56 0.62 0.71 0.83 0.93 0.97 0.95 1.02 0.99 0.93 0.88 0.89 0.89 0.86 0.81
1.12 0.90 0.46 0.32 0.38 0.46 0.54 0.50 0.33 0.24 0.21 0.28 0.23 0.14 0.10 0.10 0.11 0.10 0.10 0.11 0.10 0.11 0.14 0.16 0.23 0.33 0.38 0.40 0.47 0.55 0.57 0.64 0.70 0.73 0.82 0.89 0.90 0.93 0.93 0.88 0.90 0.94 0.94 0.86
0.79 0.53 0.29 0.33 0.44 0.55 0.55 0.49 0.35 0.30 0.27 0.30 0.29 0.22 0.10 0.08 0.08 0.08 0.09 0.10 0.09 0.11 0.13 0.13 0.19 0.31 0.36 0.38 0.45 0.52 0.57 0.58 0.66 0.72 0.84 0.93 1.00 1.00 0.98 0.92 0.87 0.88 0.92 0.92
0.54 0.36 0.37 0.45 0.45 0.50 0.55 0.36 0.32 0.34 0.47 0.52 0.39 0.41 0.12 0.08 0.10 0.09 0.09 0.09 0.10 0.12 0.14 0.15 0.17 0.26 0.32 0.36 0.45 0.52 0.59 0.66 0.66 0.74 0.83 0.83 0.82 0.83 0.78 0.79 0.79 0.84 0.86 0.87
0.61 0.40 0.46 0.51 0.37 0.36 0.41 0.33 0.38 0.43 0.55 0.62 0.40 0.42 0.15 0.07 0.13 0.14 0.14 0.13 0.12 0.12 0.14 0.14 0.15 0.22 0.30 0.37 0.46 0.54 0.58 0.69 0.73 0.74 0.81 0.79 0.75 0.73 0.75 0.81 0.85 0.85 0.87 0.89
0.49 0.38 0.45 0.39 0.30 0.32 0.40 0.52 0.67 0.71 0.95 1.06 0.39 0.34 0.19 0.12 0.17 0.16 0.13 0.14 0.17 0.15 0.16 0.17 0.17 0.22 0.29 0.36 0.45 0.51 0.57 0.67 0.77 0.76 0.80 0.79 0.75 0.72 0.78 0.83 0.91 0.91 0.92 0.95
0.74 0.54 0.50 0.44 0.52 0.56 0.70 1.09 1.66 1.80 1.71 0.96 0.19 0.22 0.21 0.13 0.12 0.14 0.11 0.12 0.18 0.20 0.21 0.21 0.19 0.22 0.27 0.35 0.43 0.49 0.53 0.65 0.75 0.76 0.77 0.78 0.74 0.72 0.75 0.80 0.86 0.89 0.91 0.94
0.91 0.75 0.52 0.51 0.62 0.76 0.76 0.92 1.23 1.26 0.87 0.33 0.12 0.16 0.15 0.09 0.06 0.06 0.06 0.07 0.10 0.14 0.21 0.24 0.20 0.22 0.27 0.33 0.39 0.47 0.51 0.59 0.72 0.73 0.73 0.76 0.75 0.71 0.72 0.77 0.79 0.84 0.80 0.81
0.93 0.69 0.39 0.35 0.34 0.48 0.70 0.73 0.62 0.82 0.58 0.33 0.20 0.15 0.12 0.08 0.05 0.05 0.07 0.08 0.09 0.10 0.16 0.23 0.21 0.24 0.29 0.36 0.38 0.45 0.53 0.59 0.71 0.76 0.73 0.75 0.77 0.75 0.69 0.73 0.76 0.83 0.81 0.74
1.04 0.85 0.45 0.38 0.44 0.53 0.63 0.70 0.84 1.20 0.96 0.52 0.24 0.16 0.18 0.14 0.09 0.06 0.08 0.11 0.11 0.11 0.14 0.19 0.18 0.23 0.31 0.36 0.38 0.42 0.52 0.58 0.66 0.74 0.75 0.77 0.80 0.79 0.74 0.74 0.75 0.75 0.80 0.81
0.97 1.02 0.71 0.62 0.73 0.67 0.67 0.89 1.15 1.19 0.88 0.67 0.42 0.28 0.25 0.18 0.12 0.09 0.09 0.12 0.13 0.11 0.14 0.17 0.17 0.22 0.30 0.35 0.36 0.40 0.46 0.57 0.66 0.70 0.72 0.78 0.88 0.86 0.85 0.82 0.77 0.73 0.74 0.82
0.99 1.19 0.93 0.64 0.51 0.45 0.60 0.75 0.94 1.20 0.93 0.54 0.48 0.35 0.24 0.17 0.13 0.10 0.09 0.11 0.14 0.13 0.15 0.16 0.17 0.20 0.26 0.31 0.35 0.40 0.45 0.50 0.62 0.70 0.72 0.74 0.85 0.93 0.91 0.95 0.94 0.83 0.76 0.77
1.27 1.54 1.38 1.12 0.93 0.76 0.78 0.70 0.72 0.83 0.87 0.65 0.55 0.38 0.23 0.17 0.13 0.10 0.09 0.10 0.13 0.15 0.18 0.17 0.16 0.18 0.24 0.29 0.35 0.38 0.44 0.47 0.55 0.69 0.73 0.76 0.80 0.89 0.92 0.94 1.02 1.01 0.98 1.00
1.52 1.63 1.20 1.12 0.99 0.88 0.81 0.61 0.58 0.82 1.01 0.68 0.44 0.33 0.24 0.19 0.16 0.13 0.11 0.11 0.13 0.17 0.19 0.17 0.16 0.17 0.22 0.29 0.33 0.35 0.37 0.44 0.52 0.67 0.78 0.79 0.82 0.84 0.87 0.93 0.98 1.11 1.19 1.27
1.51 1.45 0.65 0.41 0.39 0.45 0.50 0.42 0.43 0.59 0.62 0.54 0.33 0.30 0.34 0.26 0.21 0.19 0.16 0.13 0.14 0.18 0.17 0.16 0.17 0.18 0.21 0.27 0.31 0.31 0.33 0.39 0.48 0.63 0.73 0.78 0.84 0.94 1.01 1.04 1.06 1.11 1.24 1.33
1.38 1.33 0.65 0.37 0.25 0.31 0.36 0.28 0.28 0.31 0.31 0.33 0.28 0.33 0.34 0.27 0.20 0.19 0.17 0.16 0.16 0.19 0.17 0.16 0.17 0.20 0.23 0.26 0.29 0.28 0.30 0.36 0.45 0.60 0.67 0.74 0.88 0.99 1.12 1.15 1.20 1.21 1.27 1.36
1.20 1.14 0.98 0.61 0.29 0.47 0.57 0.34 0.28 0.29 0.28 0.28 0.34 0.37 0.31 0.28 0.24 0.21 0.19 0.18 0.17 0.16 0.16 0.16 0.18 0.22 0.24 0.26 0.27 0.27 0.29 0.33 0.39 0.52 0.63 0.69 0.83 0.95 1.05 1.09 1.13 1.16 1.11 1.09
0.96 1.05 1.29 0.91 0.69 0.98 0.52 0.26 0.23 0.26 0.30 0.30 0.31 0.31 0.29 0.30 0.28 0.24 0.20 0.19 0.16 0.15 0.15 0.16 0.17 0.19 0.21 0.25 0.27 0.27 0.27 0.30 0.38 0.46 0.59 0.62 0.72 0.86 0.92 0.99 1.03 1.05 0.98 0.96
0.57 1.00 1.50 1.26 0.96 0.58 0.28 0.21 0.28 0.33 0.42 0.33 0.28 0.27 0.26 0.25 0.27 0.31 0.26 0.19 0.17 0.15 0.15 0.15 0.16 0.16 0.17 0.22 0.25 0.26 0.27 0.29 0.34 0.41 0.51 0.56 0.64 0.80 0.81 0.87 0.98 0.97 0.98 0.96
0.57 0.96 1.59 1.39 1.06 0.57 0.30 0.17 0.20 0.32 0.52 0.31 0.25 0.27 0.28 0.27 0.42 0.41 0.33 0.25 0.20 0.16 0.15 0.16 0.15 0.14 0.16 0.18 0.20 0.22 0.23 0.26 0.33 0.40 0.47 0.50 0.55 0.69 0.70 0.72 0.79 0.83 0.86 0.88
0.89 1.32 1.51 1.14 0.89 0.44 0.25 0.19 0.22 0.56 0.67 0.31 0.25 0.26 0.28 0.33 0.42 0.39 0.32 0.27 0.22 0.20 0.19 0.17 0.17 0.17 0.17 0.18 0.20 0.20 0.20 0.23 0.28 0.35 0.40 0.45 0.50 0.57 0.59 0.63 0.66 0.71 0.76 0.80
0.64 0.89 0.90 0.84 0.92 0.53 0.26 0.27 0.47 0.58 0.34 0.25 0.25 0.24 0.25 0.25 0.23 0.24 0.26 0.26 0.23 0.23 0.23 0.21 0.20 0.19 0.19 0.19 0.19 0.18 0.19 0.22 0.25 0.32 0.38 0.42 0.47 0.50 0.53 0.58 0.63 0.65 0.73 0.83
0.45 0.58 0.63 0.62 0.58 0.42 0.31 0.36 0.38 0.29 0.24 0.21 0.23 0.24 0.24 0.24 0.23 0.23 0.23 0.23 0.23 0.23 0.23 0.22 0.22 0.23 0.22 0.21 0.20 0.18 0.18 0.21 0.26 0.32 0.37 0.43 0.47 0.45 0.53 0.59 0.66 0.69 0.75 0.84
0.36 0.33 0.40 0.38 0.31 0.26 0.26 0.25 0.25 0.22 0.20 0.19 0.20 0.24 0.22 0.23 0.21 0.22 0.21 0.22 0.24 0.23 0.22 0.20 0.21 0.24 0.24 0.22 0.21 0.19 0.18 0.22 0.26 0.32 0.35 0.41 0.49 0.49 0.50 0.56 0.65 0.70 0.74 0.88
0.30 0.29 0.35 0.32 0.23 0.19 0.18 0.19 0.20 0.20 0.17 0.15 0.17 0.19 0.19 0.19 0.19 0.20 0.22 0.23 0.24 0.24 0.23 0.20 0.20 0.22 0.23 0.22 0.19 0.17 0.19 0.24 0.28 0.31 0.34 0.40 0.50 0.54 0.51 0.54 0.60 0.67 0.70 0.91
0.22 0.26 0.31 0.27 0.18 0.19 0.18 0.15 0.14 0.15 0.16 0.15 0.17 0.19 0.18 0.17 0.20 0.20 0.22 0.23 0.23 0.22 0.23 0.22 0.20 0.20 0.20 0.19 0.18 0.19 0.20 0.25 0.32 0.36 0.39 0.43 0.51 0.54 0.53 0.54 0.58 0.67 0.70 0.77

GEFSCGP_prec_meanprecacc_258.txt.gz
Total_Precipitation_Accumulation
1.14 1.23 1.06 0.75 0.64 0.60 0.53 0.42 0.34 0.23 0.20 0.27 0.25 0.18 0.13 0.12 0.14 0.12 0.12 0.14 0.14 0.14 0.13 0.17 0.25 0.35 0.41 0.47 0.54 0.60 0.68 0.78 0.90 1.01 1.05 1.02 1.10 1.10 1.02 0.97 0.98 0.97 0.94 0.87
1.20 0.97 0.51 0.36 0.41 0.50 0.58 0.55 0.38 0.28 0.24 0.29 0.24 0.15 0.10 0.10 0.12 0.11 0.11 0.13 0.13 0.14 0.16 0.18 0.26 0.37 0.41 0.43 0.51 0.58 0.61 0.69 0.75 0.79 0.89 0.94 0.95 0.99 1.01 0.97 0.97 1.01 1.00 0.91
0.82 0.55 0.32 0.37 0.49 0.60 0.60 0.54 0.40 0.34 0.31 0.32 0.30 0.23 0.11 0.09 0.08 0.08 0.10 0.12 0.12 0.13 0.16 0.16 0.22 0.34 0.39 0.42 0.49 0.56 0.61 0.63 0.71 0.79 0.92 1.00 1.06 1.07 1.04 0.99 0.93 0.93 0.97 0.96
0.57 0.37 0.40 0.50 0.49 0.55 0.61 0.40 0.36 0.38 0.51 0.57 0.42 0.45 0.14 0.09 0.10 0.09 0.10 0.11 0.12 0.14 0.16 0.17 0.20 0.29 0.36 0.39 0.49 0.57 0.65 0.72 0.73 0.81 0.91 0.89 0.88 0.87 0.81 0.83 0.83 0.87 0.90 0.92
0.64 0.42 0.49 0.57 0.41 0.39 0.45 0.37 0.42 0.47 0.59 0.66 0.44 0.46 0.18 0.08 0.14 0.15 0.14 0.13 0.13 0.14 0.14 0.15 0.17 0.25 0.33 0.40 0.50 0.58 0.62 0.74 0.79 0.80 0.88 0.87 0.81 0.78 0.80 0.85 0.89 0.88 0.89 0.92
0.51 0.40 0.47 0.43 0.33 0.34 0.44 0.57 0.74 0.77 1.01 1.13 0.43 0.37 0.21 0.13 0.18 0.16 0.13 0.14 0.17 0.16 0.16 0.17 0.17 0.23 0.31 0.38 0.48 0.54 0.61 0.71 0.81 0.81 0.86 0.85 0.81 0.78 0.83 0.87 0.94 0.94 0.94 0.97
0.79 0.58 0.53 0.47 0.57 0.63 0.77 1.17 1.81 1.98 1.88 1.05 0.22 0.24 0.24 0.14 0.12 0.14 0.12 0.12 0.18 0.21 0.22 0.22 0.19 0.22 0.27 0.36 0.45 0.52 0.56 0.69 0.78 0.79 0.81 0.83 0.80 0.77 0.80 0.84 0.89 0.92 0.94 0.97
0.96 0.81 0.57 0.56 0.69 0.86 0.84 0.97 1.30 1.35 0.96 0.38 0.15 0.18 0.17 0.10 0.06 0.07 0.06 0.07 0.10 0.15 0.22 0.24 0.20 0.22 0.27 0.34 0.40 0.49 0.54 0.63 0.76 0.76 0.76 0.79 0.79 0.77 0.77 0.81 0.83 0.87 0.83 0.84
0.97 0.73 0.43 0.39 0.40 0.56 0.78 0.77 0.65 0.84 0.60 0.35 0.23 0.16 0.12 0.08 0.06 0.05 0.07 0.08 0.09 0.10 0.16 0.24 0.22 0.25 0.29 0.36 0.39 0.46 0.55 0.63 0.76 0.81 0.77 0.78 0.80 0.79 0.73 0.77 0.80 0.87 0.85 0.77
1.08 0.88 0.49 0.43 0.50 0.62 0.70 0.74 0.87 1.22 0.99 0.54 0.26 0.17 0.19 0.14 0.09 0.07 0.10 0.12 0.11 0.11 0.15 0.19 0.19 0.24 0.31 0.36 0.38 0.42 0.54 0.61 0.70 0.80 0.81 0.83 0.84 0.83 0.78 0.78 0.78 0.78 0.83 0.85
1.01 1.05 0.75 0.68 0.81 0.77 0.74 0.94 1.19 1.23 0.90 0.69 0.43 0.29 0.26 0.19 0.12 0.10 0.10 0.13 0.14 0.12 0.15 0.18 0.18 0.23 0.30 0.35 0.36 0.40 0.47 0.59 0.69 0.75 0.78 0.83 0.92 0.90 0.88 0.86 0.80 0.76 0.77 0.84
1.03 1.22 0.96 0.69 0.56 0.50 0.65 0.80 0.99 1.24 0.96 0.56 0.50 0.37 0.25 0.17 0.13 0.11 0.10 0.12 0.15 0.14 0.16 0.16 0.17 0.21 0.27 0.32 0.35 0.41 0.46 0.51 0.63 0.74 0.77 0.79 0.90 0.97 0.94 0.99 0.96 0.86 0.78 0.80
1.32 1.57 1.42 1.16 0.97 0.79 0.82 0.75 0.77 0.87 0.90 0.68 0.57 0.40 0.24 0.17 0.13 0.11 0.10 0.11 0.13 0.16 0.19 0.17 0.17 0.19 0.25 0.29 0.35 0.39 0.44 0.47 0.56 0.71 0.76 0.80 0.85 0.94 0.95 0.98 1.04 1.03 1.00 1.02
1.55 1.65 1.22 1.14 1.01 0.91 0.85 0.65 0.63 0.88 1.07 0.72 0.46 0.35 0.25 0.20 0.16 0.14 0.12 0.11 0.14 0.18 0.19 0.17 0.17 0.18 0.23 0.29 0.34 0.36 0.38 0.45 0.53 0.68 0.80 0.82 0.85 0.87 0.91 0.96 1.00 1.12 1.20 1.28
1.54 1.47 0.66 0.42 0.39 0.47 0.53 0.45 0.47 0.63 0.65 0.57 0.35 0.31 0.35 0.28 0.22 0.20 0.17 0.14 0.15 0.19 0.17 0.16 0.17 0.19 0.22 0.27 0.31 0.32 0.34 0.40 0.50 0.64 0.74 0.81 0.87 0.96 1.03 1.05 1.08 1.12 1.25 1.34
1.40 1.35 0.66 0.38 0.26 0.32 0.38 0.30 0.31 0.35 0.33 0.34 0.29 0.35 0.35 0.28 0.21 0.20 0.18 0.17 0.17 0.20 0.18 0.17 0.18 0.20 0.23 0.26 0.30 0.29 0.30 0.37 0.46 0.62 0.69 0.76 0.90 1.01 1.13 1.16 1.21 1.22 1.28 1.37
1.21 1.16 1.00 0.63 0.30 0.48 0.59 0.36 0.31 0.32 0.31 0.31 0.36 0.39 0.32 0.29 0.25 0.23 0.20 0.19 0.19 0.17 0.18 0.17 0.19 0.23 0.25 0.26 0.27 0.28 0.30 0.34 0.40 0.53 0.64 0.71 0.85 0.97 1.06 1.09 1.13 1.17 1.12 1.11
0.97 1.06 1.30 0.93 0.70 1.00 0.54 0.28 0.26 0.28 0.32 0.32 0.33 0.33 0.31 0.32 0.30 0.26 0.21 0.20 0.17 0.16 0.17 0.17 0.18 0.19 0.22 0.25 0.27 0.27 0.28 0.32 0.39 0.47 0.60 0.64 0.74 0.87 0.93 0.99 1.04 1.05 0.99 0.97
0.58 1.01 1.51 1.27 0.97 0.60 0.29 0.22 0.30 0.36 0.44 0.35 0.30 0.29 0.27 0.27 0.29 0.33 0.27 0.21 0.19 0.17 0.16 0.17 0.17 0.16 0.17 0.22 0.25 0.26 0.27 0.30 0.35 0.41 0.51 0.58 0.66 0.81 0.82 0.88 0.98 0.98 0.99 0.96
0.58 0.98 1.61 1.40 1.07 0.58 0.30 0.17 0.21 0.33 0.54 0.33 0.26 0.29 0.31 0.29 0.44 0.44 0.35 0.26 0.22 0.18 0.16 0.17 0.17 0.15 0.16 0.18 0.20 0.22 0.23 0.26 0.33 0.40 0.47 0.51 0.57 0.70 0.71 0.72 0.79 0.84 0.86 0.89
0.91 1.34 1.53 1.15 0.90 0.44 0.26 0.19 0.22 0.57 0.68 0.33 0.27 0.29 0.30 0.36 0.45 0.41 0.34 0.29 0.24 0.22 0.21 0.19 0.18 0.18 0.18 0.19 0.20 0.21 0.21 0.23 0.29 0.35 0.40 0.46 0.51 0.57 0.60 0.64 0.67 0.72 0.76 0.81
0.65 0.91 0.92 0.85 0.93 0.54 0.26 0.28 0.48 0.59 0.35 0.27 0.27 0.26 0.28 0.27 0.26 0.27 0.28 0.28 0.25 0.25 0.25 0.22 0.22 0.21 0.20 0.20 0.20 0.18 0.20 0.23 0.26 0.32 0.38 0.43 0.48 0.50 0.54 0.58 0.64 0.66 0.74 0.83
0.46 0.59 0.64 0.64 0.60 0.44 0.32 0.37 0.40 0.30 0.26 0.23 0.25 0.26 0.26 0.26 0.25 0.25 0.25 0.25 0.24 0.25 0.25 0.24 0.24 0.25 0.23 0.22 0.21 0.19 0.19 0.22 0.27 0.33 0.37 0.43 0.47 0.45 0.53 0.60 0.67 0.70 0.76 0.85
0.37 0.34 0.41 0.39 0.32 0.27 0.27 0.27 0.26 0.24 0.22 0.20 0.21 0.26 0.25 0.25 0.24 0.25 0.23 0.24 0.25 0.24 0.23 0.21 0.23 0.25 0.26 0.24 0.22 0.20 0.19 0.23 0.27 0.32 0.36 0.42 0.49 0.50 0.50 0.57 0.65 0.70 0.75 0.89
0.31 0.30 0.36 0.33 0.24 0.21 0.20 0.20 0.22 0.22 0.18 0.17 0.19 0.21 0.21 0.21 0.22 0.22 0.25 0.25 0.25 0.26 0.24 0.22 0.22 0.23 0.24 0.23 0.21 0.19 0.20 0.25 0.29 0.32 0.35 0.41 0.51 0.55 0.52 0.54 0.60 0.67 0.70 0.91
0.23 0.27 0.32 0.29 0.20 0.21 0.19 0.16 0.15 0.17 0.17 0.16 0.19 0.21 0.20 0.19 0.22 0.22 0.24 0.25 0.24 0.24 0.24 0.23 0.21 0.22 0.22 0.20 0.19 0.20 0.21 0.26 0.33 0.37 0.40 0.44 0.52 0.55 0.54 0.54 0.58 0.67 0.70 0.77

GEFSCGP_prec_meanprecacc_264.txt.gz
Total_Precipitation_Accumulation
1.23 1.35 1.18 0.83 0.69 0.64 0.55 0.45 0.38 0.26 0.23 0.30 0.27 0.19 0.13 0.14 0.15 0.14 0.14 0.17 0.17 0.16 0.17 0.21 0.31 0.41 0.47 0.52 0.59 0.65 0.73 0.83 0.97 1.09 1.14 1.12 1.18 1.17 1.08 1.03 1.05 1.07 1.07 0.99
1.27 1.04 0.56 0.40 0.43 0.54 0.62 0.59 0.42 0.31 0.26 0.31 0.26 0.17 0.11 0.11 0.13 0.13 0.13 0.15 0.15 0.17 0.20 0.22 0.31 0.44 0.48 0.48 0.56 0.63 0.66 0.74 0.80 0.84 0.94 1.02 1.02 1.05 1.06 1.02 1.02 1.07 1.08 1.01
0.87 0.58 0.34 0.42 0.52 0.64 0.65 0.59 0.43 0.37 0.33 0.35 0.33 0.26 0.13 0.10 0.10 0.11 0.13 0.14 0.14 0.15 0.18 0.19 0.25 0.40 0.47 0.48 0.53 0.60 0.66 0.68 0.77 0.84 0.98 1.06 1.14 1.14 1.08 1.02 0.97 0.99 1.03 1.02
0.59 0.39 0.42 0.54 0.54 0.58 0.65 0.43 0.40 0.41 0.55 0.62 0.46 0.49 0.17 0.11 0.11 0.11 0.12 0.13 0.14 0.16 0.18 0.19 0.22 0.32 0.42 0.45 0.55 0.62 0.71 0.78 0.79 0.87 0.97 0.96 0.94 0.93 0.85 0.87 0.88 0.93 0.96 0.97
0.66 0.44 0.52 0.60 0.44 0.42 0.48 0.39 0.45 0.52 0.65 0.71 0.48 0.50 0.20 0.10 0.15 0.16 0.16 0.15 0.15 0.16 0.16 0.16 0.19 0.27 0.38 0.46 0.56 0.66 0.68 0.81 0.87 0.87 0.95 0.96 0.90 0.85 0.86 0.91 0.96 0.96 0.95 0.96
0.53 0.42 0.51 0.46 0.35 0.38 0.48 0.62 0.80 0.85 1.11 1.22 0.47 0.39 0.24 0.15 0.19 0.17 0.14 0.16 0.19 0.19 0.18 0.19 0.19 0.25 0.34 0.42 0.52 0.59 0.67 0.76 0.88 0.89 0.93 0.93 0.89 0.85 0.88 0.92 0.99 1.00 0.99 1.01
0.82 0.61 0.57 0.50 0.61 0.68 0.83 1.24 1.94 2.14 2.03 1.14 0.25 0.26 0.26 0.15 0.13 0.14 0.12 0.13 0.20 0.24 0.24 0.23 0.21 0.24 0.30 0.38 0.47 0.55 0.61 0.74 0.83 0.85 0.87 0.88 0.86 0.84 0.85 0.89 0.94 0.97 0.98 1.01
0.99 0.84 0.62 0.61 0.75 0.91 0.90 1.03 1.38 1.44 1.03 0.42 0.17 0.20 0.18 0.11 0.07 0.07 0.07 0.09 0.12 0.17 0.25 0.26 0.22 0.25 0.29 0.36 0.42 0.52 0.57 0.67 0.79 0.79 0.80 0.84 0.84 0.82 0.82 0.85 0.88 0.92 0.88 0.89
0.99 0.75 0.46 0.44 0.44 0.59 0.83 0.83 0.69 0.88 0.63 0.37 0.25 0.17 0.13 0.09 0.07 0.06 0.08 0.09 0.11 0.12 0.18 0.26 0.23 0.27 0.31 0.38 0.40 0.48 0.57 0.65 0.78 0.82 0.80 0.82 0.84 0.84 0.80 0.83 0.86 0.92 0.90 0.83
1.12 0.91 0.52 0.48 0.54 0.66 0.74 0.79 0.93 1.27 1.03 0.57 0.28 0.18 0.20 0.15 0.10 0.08 0.10 0.12 0.12 0.12 0.16 0.21 0.21 0.26 0.33 0.38 0.40 0.44 0.55 0.63 0.72 0.81 0.82 0.85 0.89 0.89 0.85 0.84 0.83 0.83 0.88 0.90
1.05 1.09 0.78 0.72 0.86 0.84 0.79 1.00 1.24 1.27 0.94 0.72 0.45 0.30 0.26 0.20 0.13 0.10 0.11 0.14 0.15 0.13 0.16 0.19 0.20 0.25 0.32 0.38 0.38 0.41 0.48 0.60 0.70 0.76 0.79 0.84 0.95 0.94 0.93 0.92 0.87 0.82 0.81 0.88
1.07 1.26 1.01 0.74 0.60 0.54 0.69 0.85 1.02 1.27 0.99 0.58 0.51 0.38 0.26 0.18 0.14 0.11 0.10 0.12 0.15 0.15 0.17 0.17 0.19 0.24 0.29 0.34 0.37 0.42 0.47 0.52 0.64 0.75 0.78 0.81 0.92 0.99 0.97 1.03 1.01 0.91 0.83 0.84
1.37 1.62 1.46 1.22 1.04 0.84 0.88 0.79 0.81 0.90 0.93 0.70 0.58 0.41 0.25 0.18 0.14 0.11 0.10 0.11 0.14 0.16 0.20 0.18 0.18 0.22 0.27 0.31 0.36 0.39 0.45 0.48 0.57 0.72 0.78 0.82 0.87 0.96 0.97 1.01 1.09 1.07 1.04 1.06
1.59 1.69 1.26 1.18 1.07 0.95 0.90 0.69 0.67 0.91 1.11 0.75 0.48 0.36 0.27 0.22 0.18 0.15 0.13 0.13 0.15 0.19 0.20 0.18 0.18 0.21 0.26 0.30 0.34 0.36 0.39 0.46 0.54 0.69 0.81 0.83 0.87 0.90 0.94 0.99 1.04 1.16 1.23 1.31
1.56 1.49 0.69 0.43 0.41 0.48 0.55 0.48 0.50 0.66 0.68 0.59 0.37 0.33 0.37 0.29 0.23 0.21 0.18 0.16 0.17 0.20 0.19 0.18 0.19 0.22 0.25 0.29 0.32 0.32 0.34 0.40 0.50 0.65 0.75 0.82 0.88 0.99 1.06 1.08 1.10 1.14 1.27 1.36
1.42 1.37 0.68 0.39 0.27 0.33 0.40 0.32 0.33 0.37 0.35 0.37 0.31 0.36 0.37 0.29 0.22 0.20 0.19 0.18 0.19 0.22 0.20 0.19 0.20 0.24 0.25 0.27 0.31 0.29 0.31 0.38 0.47 0.62 0.69 0.77 0.91 1.03 1.16 1.18 1.23 1.24 1.29 1.38
1.23 1.18 1.02 0.66 0.32 0.49 0.61 0.38 0.32 0.34 0.33 0.32 0.38 0.40 0.34 0.30 0.27 0.24 0.21 0.21 0.20 0.20 0.20 0.20 0.22 0.26 0.27 0.28 0.28 0.29 0.31 0.36 0.41 0.54 0.65 0.71 0.85 0.98 1.08 1.12 1.15 1.18 1.12 1.11
0.98 1.08 1.32 0.96 0.72 1.03 0.57 0.30 0.27 0.29 0.33 0.33 0.35 0.34 0.32 0.33 0.32 0.27 0.23 0.21 0.19 0.18 0.20 0.20 0.21 0.22 0.24 0.27 0.28 0.28 0.29 0.33 0.41 0.48 0.61 0.64 0.74 0.88 0.94 1.01 1.06 1.06 0.99 0.98
0.59 1.02 1.52 1.29 0.99 0.61 0.30 0.23 0.31 0.37 0.45 0.36 0.31 0.30 0.29 0.29 0.31 0.34 0.29 0.22 0.20 0.19 0.19 0.20 0.19 0.19 0.20 0.23 0.27 0.27 0.29 0.31 0.36 0.44 0.53 0.59 0.67 0.82 0.83 0.89 0.99 0.98 0.99 0.96
0.59 0.99 1.62 1.41 1.08 0.58 0.31 0.18 0.22 0.34 0.55 0.34 0.27 0.30 0.32 0.31 0.46 0.45 0.36 0.28 0.24 0.20 0.18 0.20 0.19 0.17 0.19 0.21 0.22 0.23 0.25 0.28 0.35 0.42 0.49 0.53 0.59 0.71 0.72 0.73 0.80 0.85 0.87 0.89
0.93 1.36 1.54 1.16 0.90 0.45 0.26 0.20 0.23 0.58 0.70 0.33 0.28 0.30 0.32 0.37 0.47 0.43 0.36 0.31 0.26 0.24 0.23 0.21 0.21 0.20 0.21 0.21 0.22 0.22 0.23 0.25 0.30 0.36 0.42 0.48 0.53 0.60 0.62 0.65 0.68 0.73 0.77 0.82
0.66 0.92 0.93 0.86 0.94 0.54 0.26 0.28 0.49 0.61 0.36 0.28 0.28 0.27 0.29 0.29 0.28 0.29 0.30 0.30 0.27 0.27 0.27 0.24 0.24 0.23 0.22 0.23 0.22 0.20 0.22 0.24 0.27 0.33 0.39 0.45 0.50 0.52 0.55 0.59 0.65 0.67 0.76 0.86
0.47 0.60 0.66 0.64 0.60 0.44 0.33 0.38 0.41 0.31 0.26 0.24 0.25 0.27 0.28 0.28 0.27 0.27 0.28 0.27 0.26 0.26 0.27 0.25 0.26 0.27 0.26 0.25 0.24 0.21 0.21 0.23 0.28 0.34 0.38 0.45 0.48 0.47 0.54 0.61 0.68 0.71 0.78 0.87
0.38 0.34 0.42 0.40 0.33 0.28 0.28 0.28 0.27 0.24 0.22 0.21 0.22 0.27 0.26 0.27 0.26 0.27 0.26 0.26 0.27 0.25 0.24 0.22 0.25 0.28 0.28 0.27 0.25 0.23 0.21 0.25 0.29 0.34 0.38 0.44 0.51 0.51 0.51 0.58 0.67 0.71 0.75 0.89
0.32 0.31 0.37 0.34 0.26 0.22 0.20 0.21 0.23 0.22 0.19 0.17 0.19 0.22 0.22 0.22 0.23 0.24 0.26 0.26 0.27 0.27 0.25 0.23 0.23 0.25 0.27 0.26 0.23 0.22 0.23 0.28 0.31 0.34 0.38 0.44 0.53 0.56 0.53 0.55 0.61 0.68 0.71 0.92
0.24 0.29 0.35 0.30 0.21 0.22 0.20 0.17 0.16 0.18 0.18 0.17 0.19 0.22 0.21 0.20 0.23 0.23 0.25 0.26 0.25 0.25 0.26 0.24 0.22 0.23 0.24 0.22 0.22 0.23 0.25 0.30 0.36 0.40 0.43 0.46 0.54 0.57 0.55 0.55 0.60 0.68 0.71 0.78

GEFSCGP_prec_meanprecacc_270.txt.gz
Total_Precipitation_Accumulation
1.33 1.45 1.27 0.91 0.76 0.68 0.60 0.50 0.45 0.32 0.25 0.32 0.29 0.20 0.15 0.15 0.16 0.15 0.15 0.19 0.19 0.19 0.20 0.27 0.36 0.47 0.53 0.59 0.65 0.72 0.81 0.90 1.07 1.21 1.27 1.26 1.35 1.30 1.18 1.09 1.09 1.10 1.09 1.01
1.36 1.12 0.61 0.45 0.48 0.59 0.67 0.64 0.48 0.35 0.29 0.35 0.29 0.19 0.13 0.12 0.14 0.14 0.14 0.17 0.18 0.20 0.24 0.27 0.38 0.51 0.53 0.54 0.61 0.69 0.74 0.81 0.87 0.93 1.06 1.13 1.15 1.20 1.18 1.11 1.08 1.11 1.11 1.04
0.94 0.63 0.37 0.46 0.58 0.70 0.71 0.64 0.50 0.43 0.38 0.40 0.38 0.31 0.15 0.11 0.11 0.12 0.14 0.16 0.16 0.18 0.22 0.24 0.32 0.48 0.53 0.53 0.59 0.65 0.72 0.75 0.84 0.92 1.06 1.16 1.25 1.27 1.23 1.13 1.04 1.04 1.08 1.07
0.64 0.42 0.45 0.57 0.59 0.64 0.71 0.47 0.45 0.47 0.61 0.70 0.53 0.57 0.20 0.12 0.13 0.12 0.14 0.16 0.17 0.19 0.21 0.24 0.28 0.40 0.50 0.51 0.60 0.69 0.77 0.85 0.86 0.94 1.03 1.03 1.00 1.02 0.96 0.99 0.98 1.00 1.02 1.02
0.72 0.47 0.55 0.64 0.48 0.46 0.52 0.43 0.51 0.58 0.71 0.79 0.55 0.57 0.24 0.12 0.17 0.17 0.17 0.18 0.19 0.20 0.20 0.20 0.24 0.33 0.46 0.53 0.62 0.74 0.76 0.88 0.94 0.95 1.00 1.00 0.95 0.90 0.93 1.00 1.06 1.06 1.05 1.04
0.57 0.45 0.53 0.48 0.37 0.40 0.51 0.66 0.86 0.93 1.21 1.32 0.53 0.44 0.27 0.17 0.20 0.18 0.16 0.18 0.22 0.23 0.23 0.23 0.24 0.30 0.41 0.49 0.59 0.67 0.77 0.83 0.96 0.97 0.99 0.98 0.93 0.88 0.92 0.96 1.06 1.09 1.09 1.10
0.86 0.64 0.59 0.52 0.64 0.71 0.87 1.31 2.04 2.28 2.19 1.24 0.28 0.29 0.28 0.16 0.14 0.16 0.15 0.16 0.23 0.27 0.29 0.28 0.25 0.28 0.35 0.45 0.55 0.62 0.69 0.83 0.90 0.91 0.93 0.94 0.92 0.87 0.88 0.91 0.97 1.01 1.03 1.07
1.04 0.88 0.64 0.64 0.79 0.96 0.94 1.08 1.45 1.52 1.10 0.46 0.19 0.22 0.19 0.12 0.08 0.09 0.10 0.12 0.15 0.20 0.29 0.30 0.26 0.28 0.33 0.41 0.50 0.60 0.66 0.78 0.87 0.87 0.87 0.90 0.90 0.87 0.85 0.88 0.90 0.95 0.90 0.92
1.03 0.79 0.49 0.48 0.47 0.61 0.87 0.87 0.72 0.93 0.66 0.39 0.28 0.19 0.14 0.09 0.08 0.08 0.12 0.14 0.14 0.15 0.23 0.30 0.27 0.31 0.35 0.43 0.48 0.57 0.67 0.77 0.87 0.91 0.87 0.88 0.89 0.89 0.83 0.85 0.88 0.94 0.92 0.85
1.15 0.94 0.54 0.51 0.58 0.69 0.76 0.81 0.96 1.32 1.09 0.61 0.30 0.19 0.21 0.16 0.12 0.10 0.14 0.17 0.17 0.16 0.20 0.26 0.25 0.31 0.38 0.43 0.47 0.53 0.64 0.73 0.82 0.88 0.89 0.91 0.94 0.93 0.89 0.87 0.86 0.85 0.90 0.92
1.08 1.12 0.81 0.76 0.91 0.89 0.82 1.03 1.28 1.32 0.98 0.78 0.48 0.32 0.28 0.21 0.14 0.12 0.13 0.17 0.19 0.17 0.20 0.23 0.24 0.30 0.37 0.43 0.44 0.48 0.56 0.68 0.78 0.82 0.84 0.88 0.98 0.97 0.97 0.96 0.90 0.84 0.83 0.91
1.09 1.30 1.04 0.76 0.63 0.57 0.71 0.88 1.05 1.31 1.03 0.61 0.56 0.41 0.27 0.19 0.15 0.13 0.12 0.15 0.19 0.19 0.20 0.20 0.22 0.29 0.34 0.38 0.42 0.47 0.53 0.57 0.70 0.80 0.82 0.84 0.95 1.01 0.99 1.05 1.04 0.93 0.85 0.86
1.40 1.66 1.51 1.26 1.08 0.88 0.90 0.81 0.84 0.92 0.96 0.73 0.62 0.43 0.26 0.19 0.15 0.12 0.12 0.13 0.16 0.20 0.23 0.20 0.21 0.26 0.32 0.37 0.41 0.44 0.50 0.53 0.61 0.77 0.82 0.85 0.90 0.99 1.00 1.03 1.11 1.09 1.06 1.08
1.62 1.73 1.29 1.21 1.10 0.99 0.93 0.70 0.69 0.94 1.15 0.78 0.50 0.38 0.28 0.23 0.19 0.16 0.15 0.14 0.17 0.22 0.22 0.20 0.21 0.24 0.30 0.36 0.40 0.41 0.43 0.52 0.59 0.73 0.85 0.87 0.90 0.93 0.97 1.02 1.07 1.18 1.25 1.33
1.58 1.52 0.71 0.45 0.42 0.50 0.57 0.49 0.52 0.68 0.70 0.62 0.39 0.35 0.39 0.31 0.25 0.23 0.20 0.18 0.19 0.23 0.21 0.20 0.21 0.25 0.29 0.33 0.36 0.36 0.38 0.45 0.55 0.69 0.79 0.87 0.92 1.03 1.10 1.12 1.14 1.18 1.31 1.40
1.45 1.40 0.70 0.41 0.29 0.35 0.41 0.33 0.34 0.38 0.36 0.39 0.33 0.38 0.39 0.31 0.24 0.22 0.21 0.21 0.21 0.25 0.23 0.22 0.23 0.27 0.30 0.32 0.34 0.32 0.34 0.41 0.50 0.65 0.72 0.80 0.95 1.06 1.20 1.22 1.26 1.27 1.32 1.41
1.25 1.20 1.05 0.69 0.34 0.51 0.63 0.41 0.34 0.35 0.34 0.34 0.40 0.43 0.36 0.32 0.29 0.26 0.24 0.24 0.24 0.23 0.24 0.23 0.25 0.29 0.33 0.32 0.32 0.32 0.34 0.38 0.44 0.56 0.67 0.74 0.88 1.00 1.10 1.14 1.17 1.20 1.14 1.13
1.00 1.09 1.34 0.99 0.74 1.05 0.59 0.31 0.28 0.30 0.35 0.34 0.36 0.37 0.34 0.35 0.34 0.30 0.26 0.25 0.24 0.23 0.24 0.24 0.25 0.27 0.30 0.32 0.32 0.32 0.32 0.36 0.43 0.51 0.63 0.67 0.77 0.91 0.96 1.03 1.07 1.08 1.01 0.99
0.60 1.03 1.53 1.31 1.01 0.63 0.31 0.24 0.32 0.38 0.46 0.37 0.32 0.31 0.30 0.30 0.32 0.36 0.31 0.26 0.26 0.24 0.23 0.24 0.24 0.25 0.25 0.29 0.31 0.32 0.32 0.34 0.39 0.46 0.56 0.60 0.68 0.84 0.85 0.92 1.01 1.00 1.00 0.98
0.60 1.00 1.63 1.42 1.09 0.60 0.32 0.18 0.22 0.35 0.56 0.35 0.28 0.31 0.33 0.32 0.48 0.47 0.38 0.32 0.29 0.24 0.22 0.24 0.25 0.22 0.23 0.26 0.26 0.26 0.27 0.30 0.37 0.44 0.51 0.55 0.60 0.73 0.74 0.75 0.81 0.86 0.87 0.90
0.95 1.38 1.55 1.17 0.91 0.45 0.27 0.20 0.23 0.60 0.71 0.34 0.29 0.31 0.32 0.38 0.49 0.44 0.38 0.34 0.29 0.28 0.26 0.25 0.25 0.25 0.25 0.26 0.26 0.26 0.25 0.27 0.32 0.38 0.44 0.50 0.55 0.62 0.63 0.66 0.68 0.73 0.78 0.82
0.67 0.93 0.94 0.87 0.95 0.55 0.27 0.28 0.50 0.62 0.36 0.28 0.28 0.28 0.29 0.29 0.28 0.30 0.32 0.32 0.29 0.30 0.30 0.28 0.28 0.27 0.27 0.27 0.26 0.24 0.25 0.27 0.29 0.35 0.41 0.46 0.52 0.55 0.57 0.61 0.66 0.68 0.76 0.87
0.48 0.61 0.66 0.65 0.61 0.45 0.34 0.39 0.41 0.32 0.27 0.24 0.26 0.27 0.28 0.28 0.27 0.29 0.29 0.29 0.28 0.29 0.30 0.28 0.29 0.31 0.31 0.30 0.29 0.25 0.24 0.27 0.31 0.37 0.41 0.47 0.51 0.50 0.57 0.63 0.69 0.73 0.79 0.89
0.38 0.35 0.42 0.40 0.33 0.28 0.29 0.28 0.27 0.24 0.22 0.21 0.22 0.27 0.26 0.27 0.26 0.27 0.26 0.27 0.29 0.28 0.27 0.25 0.28 0.31 0.33 0.32 0.30 0.27 0.25 0.29 0.33 0.38 0.40 0.46 0.54 0.55 0.55 0.61 0.69 0.73 0.77 0.91
0.32 0.31 0.37 0.34 0.26 0.22 0.21 0.21 0.23 0.23 0.19 0.17 0.19 0.22 0.22 0.23 0.24 0.25 0.27 0.27 0.28 0.29 0.27 0.25 0.27 0.28 0.31 0.30 0.28 0.27 0.28 0.32 0.37 0.39 0.41 0.47 0.56 0.59 0.56 0.58 0.64 0.71 0.73 0.94
0.24 0.29 0.35 0.31 0.22 0.23 0.20 0.17 0.16 0.18 0.18 0.17 0.20 0.22 0.21 0.21 0.24 0.24 0.25 0.26 0.26 0.27 0.27 0.26 0.24 0.26 0.27 0.26 0.26 0.28 0.30 0.35 0.42 0.44 0.46 0.50 0.57 0.59 0.58 0.58 0.63 0.71 0.74 0.81

GEFSCGP_prec_meanprecacc_276.txt.gz
Total_Precipitation_Accumulation
1.40 1.55 1.36 0.98 0.82 0.72 0.62 0.52 0.47 0.35 0.30 0.37 0.33 0.22 0.16 0.17 0.19 0.17 0.19 0.22 0.24 0.25 0.27 0.32 0.42 0.54 0.63 0.69 0.74 0.80 0.88 0.96 1.15 1.31 1.38 1.37 1.43 1.38 1.28 1.23 1.22 1.20 1.18 1.09
1.42 1.19 0.68 0.50 0.53 0.63 0.70 0.66 0.50 0.38 0.33 0.39 0.33 0.22 0.15 0.15 0.17 0.16 0.17 0.20 0.21 0.24 0.30 0.34 0.46 0.59 0.61 0.62 0.71 0.78 0.82 0.87 0.93 1.00 1.16 1.25 1.27 1.30 1.27 1.21 1.22 1.25 1.22 1.13
0.99 0.68 0.43 0.52 0.63 0.75 0.74 0.66 0.52 0.46 0.44 0.46 0.43 0.36 0.18 0.14 0.14 0.15 0.18 0.19 0.20 0.22 0.25 0.28 0.39 0.57 0.61 0.61 0.68 0.74 0.81 0.83 0.90 0.97 1.14 1.28 1.40 1.41 1.34 1.23 1.16 1.19 1.21 1.16
0.68 0.45 0.49 0.63 0.65 0.69 0.76 0.50 0.47 0.50 0.68 0.80 0.61 0.66 0.26 0.16 0.16 0.16 0.17 0.18 0.20 0.23 0.25 0.27 0.34 0.50 0.61 0.60 0.69 0.79 0.87 0.94 0.93 1.00 1.09 1.08 1.10 1.16 1.11 1.11 1.07 1.11 1.19 1.19
0.76 0.52 0.60 0.70 0.55 0.52 0.57 0.46 0.54 0.62 0.77 0.88 0.63 0.65 0.30 0.15 0.20 0.20 0.20 0.19 0.21 0.24 0.24 0.24 0.29 0.43 0.59 0.65 0.72 0.84 0.88 0.98 1.03 1.03 1.07 1.06 1.00 0.98 1.06 1.16 1.21 1.16 1.15 1.19
0.61 0.49 0.59 0.53 0.43 0.46 0.55 0.71 0.92 1.01 1.31 1.44 0.61 0.50 0.33 0.22 0.24 0.20 0.17 0.20 0.24 0.25 0.26 0.27 0.30 0.41 0.51 0.60 0.70 0.78 0.89 0.94 1.06 1.07 1.07 1.05 0.98 0.93 0.98 1.06 1.20 1.23 1.19 1.18
0.90 0.67 0.62 0.55 0.68 0.77 0.91 1.36 2.14 2.41 2.34 1.37 0.34 0.33 0.34 0.21 0.18 0.18 0.17 0.18 0.24 0.29 0.31 0.31 0.30 0.35 0.43 0.53 0.65 0.72 0.81 0.96 1.02 1.06 1.03 1.01 0.98 0.92 0.92 0.96 1.04 1.11 1.14 1.15
1.06 0.92 0.67 0.66 0.83 1.04 1.00 1.12 1.51 1.61 1.19 0.53 0.25 0.28 0.25 0.16 0.10 0.10 0.12 0.14 0.17 0.23 0.32 0.33 0.30 0.32 0.37 0.47 0.57 0.68 0.76 0.91 1.00 1.01 1.00 0.98 0.96 0.92 0.90 0.93 0.95 1.01 0.98 0.99
1.06 0.83 0.52 0.50 0.50 0.66 0.92 0.91 0.74 0.96 0.69 0.43 0.34 0.25 0.18 0.12 0.09 0.10 0.14 0.15 0.16 0.17 0.27 0.33 0.30 0.34 0.38 0.47 0.54 0.63 0.74 0.86 0.98 1.04 1.03 0.98 0.95 0.94 0.88 0.91 0.94 1.01 0.98 0.91
1.18 0.98 0.58 0.54 0.61 0.73 0.80 0.85 0.99 1.35 1.13 0.65 0.34 0.23 0.25 0.19 0.13 0.12 0.17 0.19 0.19 0.18 0.24 0.29 0.28 0.34 0.40 0.47 0.52 0.58 0.71 0.80 0.90 0.98 1.03 1.03 1.01 1.00 0.95 0.93 0.91 0.90 0.96 0.97
1.10 1.15 0.84 0.80 0.96 0.94 0.86 1.09 1.33 1.34 1.01 0.82 0.52 0.34 0.30 0.23 0.17 0.15 0.16 0.21 0.22 0.19 0.23 0.27 0.27 0.33 0.41 0.48 0.50 0.54 0.62 0.76 0.87 0.94 0.96 1.01 1.08 1.04 1.02 1.01 0.96 0.89 0.87 0.94
1.12 1.32 1.07 0.81 0.67 0.61 0.75 0.92 1.09 1.33 1.05 0.63 0.59 0.43 0.28 0.20 0.17 0.15 0.15 0.19 0.23 0.21 0.23 0.24 0.26 0.33 0.38 0.44 0.49 0.54 0.59 0.65 0.78 0.91 0.95 0.96 1.06 1.10 1.06 1.10 1.09 0.98 0.89 0.90
1.43 1.68 1.54 1.31 1.11 0.91 0.95 0.85 0.87 0.95 0.98 0.75 0.65 0.46 0.27 0.20 0.16 0.14 0.14 0.16 0.21 0.22 0.25 0.24 0.25 0.31 0.37 0.43 0.48 0.51 0.57 0.61 0.68 0.84 0.91 0.97 1.01 1.08 1.07 1.08 1.15 1.13 1.10 1.11
1.65 1.75 1.31 1.24 1.12 1.02 0.96 0.74 0.72 0.97 1.18 0.80 0.52 0.40 0.31 0.25 0.21 0.19 0.16 0.16 0.20 0.25 0.25 0.23 0.25 0.29 0.36 0.43 0.47 0.48 0.50 0.59 0.66 0.81 0.94 0.96 1.00 1.03 1.05 1.09 1.12 1.23 1.29 1.36
1.60 1.55 0.72 0.46 0.43 0.51 0.58 0.51 0.54 0.70 0.73 0.64 0.41 0.37 0.42 0.35 0.29 0.26 0.22 0.20 0.21 0.26 0.24 0.23 0.26 0.30 0.35 0.41 0.45 0.44 0.46 0.53 0.63 0.77 0.88 0.95 1.00 1.11 1.19 1.20 1.21 1.24 1.36 1.44
1.46 1.42 0.72 0.42 0.29 0.35 0.42 0.35 0.37 0.40 0.38 0.41 0.34 0.41 0.42 0.35 0.27 0.26 0.25 0.24 0.24 0.28 0.26 0.26 0.27 0.32 0.36 0.39 0.43 0.40 0.41 0.48 0.58 0.73 0.80 0.89 1.02 1.12 1.25 1.28 1.31 1.32 1.36 1.44
1.27 1.22 1.07 0.71 0.34 0.52 0.65 0.43 0.36 0.37 0.36 0.36 0.43 0.47 0.40 0.35 0.31 0.30 0.28 0.28 0.28 0.27 0.27 0.26 0.29 0.34 0.39 0.40 0.40 0.40 0.40 0.44 0.50 0.62 0.73 0.80 0.96 1.06 1.14 1.18 1.20 1.23 1.17 1.15
1.02 1.12 1.37 1.01 0.76 1.07 0.61 0.33 0.30 0.32 0.37 0.36 0.39 0.40 0.38 0.38 0.37 0.33 0.30 0.30 0.29 0.28 0.28 0.27 0.28 0.31 0.35 0.38 0.40 0.40 0.40 0.42 0.49 0.57 0.67 0.71 0.83 0.96 1.00 1.06 1.09 1.09 1.03 1.01
0.62 1.05 1.56 1.33 1.03 0.64 0.32 0.25 0.33 0.39 0.48 0.39 0.34 0.33 0.32 0.33 0.34 0.39 0.36 0.30 0.30 0.28 0.27 0.28 0.28 0.29 0.30 0.34 0.38 0.39 0.40 0.40 0.45 0.52 0.60 0.64 0.73 0.88 0.88 0.95 1.04 1.01 1.02 0.99
0.62 1.01 1.65 1.43 1.10 0.60 0.33 0.19 0.23 0.36 0.57 0.36 0.30 0.32 0.34 0.33 0.49 0.50 0.42 0.35 0.32 0.28 0.26 0.27 0.30 0.27 0.28 0.31 0.32 0.33 0.34 0.36 0.42 0.49 0.56 0.59 0.64 0.77 0.77 0.78 0.84 0.88 0.89 0.91
0.97 1.40 1.57 1.18 0.92 0.46 0.28 0.20 0.23 0.61 0.72 0.35 0.30 0.32 0.34 0.40 0.50 0.47 0.41 0.36 0.33 0.32 0.30 0.29 0.30 0.30 0.31 0.32 0.33 0.33 0.33 0.33 0.37 0.42 0.47 0.54 0.60 0.66 0.67 0.69 0.72 0.77 0.80 0.84
0.68 0.94 0.96 0.88 0.96 0.56 0.27 0.29 0.51 0.63 0.37 0.29 0.29 0.29 0.30 0.30 0.29 0.31 0.34 0.34 0.33 0.34 0.35 0.33 0.33 0.33 0.33 0.33 0.33 0.32 0.34 0.33 0.34 0.39 0.45 0.50 0.57 0.60 0.61 0.64 0.70 0.71 0.79 0.89
0.48 0.62 0.67 0.66 0.62 0.45 0.34 0.39 0.42 0.32 0.27 0.25 0.26 0.28 0.29 0.29 0.28 0.29 0.30 0.31 0.31 0.32 0.34 0.33 0.35 0.37 0.37 0.36 0.35 0.33 0.33 0.33 0.36 0.41 0.44 0.50 0.55 0.55 0.61 0.66 0.73 0.76 0.82 0.91
0.39 0.35 0.43 0.41 0.34 0.29 0.29 0.28 0.28 0.25 0.23 0.21 0.22 0.27 0.26 0.28 0.27 0.28 0.27 0.29 0.30 0.30 0.30 0.30 0.33 0.37 0.39 0.38 0.37 0.35 0.34 0.35 0.37 0.41 0.42 0.48 0.57 0.59 0.59 0.64 0.72 0.75 0.79 0.93
0.33 0.32 0.38 0.36 0.26 0.22 0.21 0.21 0.23 0.23 0.19 0.17 0.19 0.22 0.23 0.23 0.24 0.25 0.27 0.28 0.29 0.30 0.29 0.28 0.31 0.34 0.37 0.37 0.35 0.35 0.36 0.39 0.41 0.41 0.43 0.48 0.58 0.62 0.60 0.62 0.67 0.73 0.75 0.96
0.25 0.30 0.37 0.33 0.22 0.24 0.20 0.17 0.16 0.19 0.19 0.17 0.20 0.22 0.21 0.21 0.24 0.24 0.26 0.28 0.27 0.28 0.29 0.28 0.27 0.30 0.32 0.32 0.33 0.35 0.39 0.42 0.46 0.47 0.48 0.52 0.60 0.62 0.62 0.63 0.67 0.74 0.77 0.84

GEFSCGP_prec_meanprecacc_282.txt.gz
Total_Precipitation_Accumulation
1.46 1.61 1.42 1.02 0.87 0.77 0.66 0.54 0.49 0.37 0.30 0.39 0.36 0.25 0.18 0.20 0.25 0.25 0.25 0.28 0.32 0.34 0.35 0.40 0.50 0.64 0.74 0.79 0.84 0.91 0.95 1.01 1.19 1.36 1.43 1.43 1.52 1.50 1.46 1.44 1.37 1.28 1.23 1.13
1.49 1.24 0.70 0.53 0.56 0.68 0.75 0.70 0.52 0.40 0.34 0.41 0.36 0.24 0.17 0.17 0.22 0.23 0.26 0.28 0.30 0.33 0.38 0.41 0.55 0.70 0.74 0.74 0.82 0.90 0.89 0.92 0.98 1.05 1.21 1.30 1.32 1.36 1.38 1.37 1.41 1.41 1.32 1.20
1.05 0.71 0.45 0.55 0.67 0.81 0.80 0.70 0.54 0.49 0.48 0.52 0.49 0.42 0.23 0.18 0.19 0.21 0.26 0.26 0.28 0.30 0.31 0.33 0.46 0.69 0.76 0.75 0.81 0.87 0.89 0.89 0.97 1.05 1.21 1.33 1.46 1.48 1.41 1.33 1.31 1.35 1.33 1.26
0.72 0.47 0.52 0.68 0.69 0.74 0.81 0.53 0.50 0.53 0.74 0.90 0.70 0.76 0.33 0.20 0.21 0.21 0.24 0.26 0.26 0.29 0.30 0.31 0.39 0.61 0.75 0.74 0.83 0.93 0.98 1.01 1.01 1.09 1.17 1.15 1.16 1.22 1.17 1.16 1.15 1.25 1.35 1.30
0.80 0.54 0.63 0.73 0.58 0.56 0.60 0.49 0.58 0.66 0.85 0.99 0.72 0.74 0.38 0.20 0.25 0.25 0.25 0.27 0.26 0.28 0.29 0.28 0.34 0.53 0.72 0.79 0.87 0.99 1.02 1.09 1.12 1.10 1.15 1.14 1.07 1.04 1.11 1.22 1.27 1.24 1.28 1.35
0.64 0.52 0.62 0.56 0.46 0.49 0.57 0.74 0.98 1.07 1.41 1.56 0.69 0.57 0.40 0.28 0.30 0.28 0.25 0.27 0.30 0.30 0.31 0.31 0.35 0.50 0.63 0.73 0.86 0.94 1.05 1.09 1.20 1.17 1.15 1.11 1.03 0.97 1.02 1.10 1.25 1.32 1.30 1.32
0.93 0.70 0.65 0.57 0.72 0.82 0.97 1.42 2.22 2.51 2.47 1.49 0.40 0.37 0.40 0.28 0.26 0.28 0.25 0.24 0.30 0.33 0.35 0.35 0.34 0.43 0.52 0.62 0.77 0.86 0.95 1.11 1.17 1.20 1.14 1.09 1.03 0.97 0.96 1.00 1.08 1.15 1.22 1.27
1.08 0.95 0.69 0.68 0.87 1.10 1.06 1.18 1.57 1.70 1.29 0.60 0.30 0.33 0.31 0.22 0.17 0.18 0.17 0.18 0.21 0.27 0.35 0.37 0.33 0.37 0.44 0.53 0.64 0.77 0.86 1.03 1.14 1.15 1.16 1.11 1.06 1.00 0.96 0.98 0.99 1.05 1.02 1.07
1.07 0.84 0.53 0.51 0.53 0.70 0.98 0.97 0.78 0.99 0.73 0.47 0.39 0.30 0.23 0.15 0.12 0.13 0.17 0.18 0.19 0.21 0.30 0.36 0.33 0.38 0.43 0.52 0.59 0.69 0.81 0.95 1.08 1.16 1.19 1.14 1.09 1.06 0.98 0.98 0.99 1.05 1.02 0.95
1.19 0.98 0.59 0.56 0.65 0.78 0.85 0.91 1.04 1.39 1.16 0.68 0.36 0.26 0.28 0.22 0.16 0.15 0.19 0.22 0.22 0.22 0.27 0.31 0.30 0.36 0.45 0.53 0.57 0.64 0.77 0.87 0.98 1.08 1.15 1.17 1.17 1.16 1.09 1.04 0.99 0.96 1.00 1.01
1.11 1.16 0.86 0.82 1.00 1.00 0.92 1.15 1.37 1.37 1.04 0.84 0.54 0.38 0.34 0.26 0.19 0.17 0.18 0.24 0.25 0.23 0.26 0.28 0.28 0.34 0.43 0.52 0.55 0.59 0.68 0.83 0.94 1.02 1.07 1.13 1.22 1.19 1.17 1.15 1.08 0.98 0.93 1.00
1.13 1.34 1.09 0.83 0.70 0.65 0.81 0.99 1.13 1.36 1.06 0.65 0.61 0.46 0.31 0.22 0.18 0.16 0.17 0.21 0.25 0.24 0.25 0.26 0.28 0.34 0.39 0.46 0.52 0.58 0.64 0.71 0.85 0.98 1.04 1.07 1.18 1.24 1.20 1.22 1.19 1.07 0.96 0.96
1.47 1.70 1.57 1.34 1.15 0.96 1.00 0.91 0.91 0.98 1.00 0.76 0.66 0.48 0.28 0.21 0.17 0.15 0.16 0.17 0.22 0.24 0.27 0.26 0.28 0.34 0.39 0.44 0.51 0.55 0.61 0.65 0.74 0.91 0.98 1.06 1.12 1.19 1.20 1.21 1.26 1.22 1.17 1.18
1.69 1.77 1.33 1.26 1.15 1.05 1.01 0.79 0.75 1.00 1.21 0.82 0.54 0.41 0.32 0.27 0.23 0.20 0.18 0.18 0.22 0.27 0.28 0.26 0.27 0.32 0.39 0.45 0.49 0.50 0.53 0.63 0.72 0.88 1.00 1.02 1.07 1.12 1.17 1.22 1.25 1.33 1.37 1.43
1.65 1.58 0.73 0.46 0.44 0.52 0.61 0.55 0.57 0.73 0.75 0.66 0.42 0.38 0.43 0.38 0.33 0.29 0.25 0.23 0.24 0.29 0.27 0.26 0.28 0.32 0.38 0.44 0.48 0.46 0.48 0.56 0.67 0.82 0.94 1.01 1.07 1.19 1.27 1.32 1.35 1.36 1.45 1.51
1.51 1.45 0.74 0.44 0.30 0.37 0.45 0.39 0.40 0.42 0.40 0.43 0.36 0.42 0.44 0.37 0.30 0.29 0.28 0.27 0.27 0.31 0.29 0.29 0.30 0.34 0.39 0.42 0.45 0.43 0.44 0.51 0.61 0.77 0.85 0.94 1.09 1.20 1.34 1.37 1.44 1.45 1.45 1.51
1.30 1.25 1.10 0.73 0.36 0.54 0.68 0.46 0.39 0.39 0.37 0.37 0.44 0.49 0.42 0.38 0.34 0.33 0.31 0.30 0.30 0.30 0.29 0.29 0.32 0.37 0.42 0.43 0.42 0.42 0.42 0.47 0.54 0.67 0.78 0.86 1.02 1.13 1.22 1.26 1.29 1.32 1.24 1.21
1.05 1.14 1.40 1.04 0.78 1.10 0.62 0.35 0.33 0.34 0.38 0.37 0.40 0.42 0.41 0.42 0.40 0.36 0.34 0.33 0.32 0.31 0.31 0.30 0.31 0.34 0.38 0.42 0.44 0.44 0.43 0.46 0.54 0.62 0.72 0.76 0.89 1.03 1.07 1.13 1.17 1.17 1.10 1.07
0.65 1.09 1.59 1.36 1.05 0.66 0.33 0.26 0.35 0.41 0.49 0.40 0.35 0.34 0.34 0.35 0.36 0.41 0.38 0.32 0.33 0.30 0.30 0.30 0.30 0.31 0.33 0.37 0.41 0.43 0.44 0.45 0.50 0.58 0.66 0.69 0.78 0.95 0.96 1.02 1.10 1.08 1.09 1.07
0.66 1.05 1.69 1.46 1.12 0.61 0.34 0.19 0.24 0.37 0.58 0.37 0.31 0.34 0.35 0.34 0.51 0.52 0.45 0.38 0.35 0.30 0.27 0.29 0.31 0.29 0.31 0.34 0.35 0.37 0.39 0.41 0.47 0.54 0.62 0.66 0.70 0.82 0.83 0.85 0.92 0.95 0.96 0.99
1.00 1.43 1.60 1.20 0.94 0.47 0.28 0.21 0.24 0.62 0.74 0.36 0.31 0.33 0.35 0.41 0.52 0.49 0.42 0.38 0.36 0.35 0.32 0.31 0.32 0.33 0.33 0.35 0.36 0.38 0.38 0.38 0.42 0.47 0.53 0.60 0.66 0.73 0.74 0.76 0.79 0.84 0.88 0.91
0.69 0.96 0.97 0.90 0.98 0.56 0.28 0.29 0.52 0.64 0.38 0.30 0.30 0.30 0.32 0.31 0.30 0.32 0.35 0.36 0.34 0.36 0.37 0.35 0.36 0.36 0.36 0.37 0.37 0.36 0.39 0.38 0.39 0.45 0.50 0.56 0.63 0.66 0.68 0.71 0.77 0.78 0.86 0.96
0.49 0.63 0.68 0.67 0.62 0.46 0.35 0.40 0.43 0.33 0.29 0.26 0.27 0.29 0.29 0.30 0.29 0.30 0.31 0.32 0.32 0.34 0.36 0.35 0.37 0.40 0.40 0.40 0.39 0.37 0.38 0.38 0.40 0.45 0.49 0.55 0.61 0.61 0.69 0.73 0.78 0.82 0.89 0.98
0.39 0.36 0.44 0.42 0.34 0.29 0.30 0.30 0.29 0.26 0.25 0.23 0.23 0.28 0.27 0.29 0.28 0.29 0.28 0.30 0.31 0.31 0.32 0.32 0.35 0.40 0.42 0.42 0.42 0.40 0.40 0.40 0.42 0.46 0.47 0.53 0.62 0.65 0.67 0.72 0.78 0.80 0.84 0.98
0.34 0.33 0.40 0.37 0.27 0.23 0.22 0.22 0.25 0.24 0.20 0.18 0.20 0.22 0.23 0.24 0.25 0.25 0.28 0.29 0.30 0.31 0.31 0.30 0.33 0.37 0.41 0.41 0.41 0.41 0.43 0.45 0.47 0.46 0.47 0.52 0.62 0.66 0.65 0.69 0.74 0.78 0.79 0.99
0.26 0.31 0.38 0.34 0.24 0.26 0.23 0.19 0.18 0.20 0.19 0.18 0.20 0.23 0.21 0.21 0.24 0.24 0.26 0.28 0.28 0.28 0.30 0.30 0.30 0.33 0.36 0.37 0.39 0.42 0.46 0.49 0.52 0.51 0.51 0.55 0.64 0.66 0.65 0.67 0.72 0.80 0.81 0.88

GEFSCGP_prec_meanprecacc_288.txt.gz
Total_Precipitation_Accumulation
1.50 1.65 1.46 1.05 0.89 0.79 0.69 0.58 0.51 0.38 0.31 0.41 0.38 0.26 0.20 0.23 0.27 0.29 0.30 0.34 0.37 0.38 0.39 0.47 0.58 0.70 0.82 0.90 0.95 0.99 1.04 1.12 1.29 1.45 1.52 1.49 1.59 1.60 1.59 1.56 1.47 1.37 1.31 1.20
1.55 1.28 0.73 0.54 0.58 0.70 0.78 0.73 0.55 0.41 0.35 0.43 0.38 0.26 0.20 0.20 0.25 0.27 0.30 0.33 0.35 0.38 0.45 0.51 0.64 0.78 0.83 0.84 0.93 0.99 0.99 1.02 1.07 1.12 1.28 1.35 1.38 1.45 1.49 1.52 1.55 1.52 1.43 1.29
1.10 0.75 0.46 0.57 0.69 0.83 0.82 0.73 0.57 0.51 0.50 0.54 0.52 0.46 0.26 0.22 0.23 0.24 0.29 0.30 0.32 0.34 0.38 0.41 0.54 0.77 0.86 0.85 0.90 0.97 0.99 0.98 1.05 1.13 1.30 1.41 1.53 1.55 1.50 1.44 1.45 1.49 1.46 1.37
0.76 0.50 0.55 0.70 0.72 0.76 0.83 0.55 0.52 0.56 0.78 0.96 0.77 0.83 0.38 0.25 0.25 0.24 0.28 0.31 0.30 0.33 0.35 0.37 0.45 0.67 0.85 0.84 0.93 1.03 1.09 1.11 1.11 1.17 1.27 1.23 1.21 1.28 1.23 1.24 1.25 1.35 1.46 1.42
0.84 0.57 0.65 0.75 0.60 0.58 0.62 0.50 0.60 0.70 0.90 1.07 0.80 0.83 0.45 0.25 0.29 0.29 0.30 0.33 0.32 0.34 0.35 0.33 0.38 0.58 0.79 0.87 0.94 1.09 1.13 1.20 1.23 1.19 1.23 1.22 1.13 1.10 1.18 1.30 1.35 1.32 1.36 1.44
0.67 0.55 0.64 0.58 0.47 0.51 0.59 0.77 1.02 1.13 1.50 1.66 0.76 0.66 0.52 0.36 0.37 0.34 0.32 0.35 0.37 0.37 0.38 0.37 0.40 0.55 0.70 0.80 0.93 1.02 1.15 1.21 1.31 1.26 1.23 1.19 1.10 1.04 1.09 1.17 1.33 1.40 1.39 1.41
0.96 0.73 0.69 0.60 0.74 0.84 0.99 1.48 2.30 2.60 2.58 1.57 0.44 0.44 0.52 0.38 0.34 0.36 0.34 0.33 0.36 0.39 0.42 0.40 0.39 0.48 0.59 0.70 0.84 0.95 1.04 1.21 1.29 1.29 1.23 1.17 1.10 1.03 1.02 1.05 1.13 1.22 1.30 1.35
1.11 0.98 0.73 0.71 0.90 1.13 1.09 1.23 1.64 1.77 1.36 0.66 0.34 0.40 0.41 0.31 0.27 0.27 0.27 0.28 0.27 0.33 0.43 0.43 0.37 0.41 0.50 0.61 0.74 0.87 0.96 1.13 1.26 1.26 1.25 1.21 1.14 1.06 1.01 1.02 1.03 1.09 1.07 1.12
1.10 0.87 0.57 0.54 0.55 0.72 1.00 1.00 0.82 1.04 0.77 0.51 0.45 0.36 0.30 0.23 0.19 0.20 0.25 0.30 0.30 0.31 0.37 0.41 0.37 0.41 0.48 0.58 0.67 0.79 0.91 1.05 1.19 1.27 1.31 1.26 1.19 1.14 1.05 1.03 1.03 1.09 1.06 0.99
1.22 1.01 0.61 0.59 0.68 0.80 0.88 0.94 1.09 1.45 1.21 0.71 0.41 0.30 0.34 0.29 0.23 0.21 0.26 0.32 0.32 0.28 0.33 0.35 0.34 0.39 0.48 0.57 0.63 0.72 0.86 0.96 1.08 1.19 1.27 1.30 1.28 1.25 1.18 1.13 1.06 1.02 1.06 1.06
1.15 1.20 0.89 0.85 1.04 1.04 0.95 1.18 1.42 1.41 1.07 0.86 0.56 0.42 0.39 0.31 0.23 0.22 0.23 0.29 0.30 0.28 0.33 0.34 0.33 0.38 0.46 0.57 0.61 0.65 0.76 0.91 1.04 1.12 1.17 1.25 1.32 1.26 1.24 1.23 1.16 1.07 1.02 1.08
1.17 1.38 1.12 0.85 0.73 0.68 0.83 1.01 1.17 1.40 1.09 0.66 0.62 0.49 0.33 0.24 0.20 0.19 0.20 0.26 0.30 0.30 0.32 0.31 0.33 0.38 0.43 0.51 0.58 0.63 0.70 0.79 0.95 1.08 1.15 1.20 1.28 1.32 1.27 1.28 1.26 1.14 1.06 1.05
1.50 1.75 1.61 1.37 1.17 0.98 1.04 0.94 0.95 1.02 1.03 0.78 0.68 0.49 0.29 0.22 0.18 0.17 0.18 0.21 0.27 0.29 0.32 0.30 0.32 0.38 0.43 0.48 0.54 0.58 0.65 0.71 0.82 1.00 1.08 1.17 1.23 1.28 1.29 1.28 1.32 1.29 1.24 1.25
1.73 1.82 1.36 1.28 1.16 1.07 1.03 0.82 0.78 1.03 1.24 0.83 0.55 0.43 0.32 0.28 0.24 0.22 0.20 0.21 0.25 0.31 0.33 0.31 0.32 0.36 0.44 0.49 0.52 0.53 0.56 0.67 0.76 0.94 1.08 1.12 1.18 1.20 1.25 1.31 1.31 1.40 1.45 1.50
1.69 1.63 0.75 0.47 0.44 0.53 0.62 0.58 0.60 0.75 0.77 0.67 0.43 0.39 0.44 0.39 0.34 0.31 0.28 0.26 0.27 0.32 0.33 0.32 0.33 0.37 0.43 0.48 0.51 0.48 0.51 0.59 0.70 0.86 0.99 1.07 1.14 1.26 1.34 1.39 1.43 1.44 1.53 1.59
1.55 1.49 0.76 0.45 0.31 0.37 0.46 0.40 0.42 0.44 0.41 0.44 0.37 0.43 0.45 0.39 0.32 0.30 0.30 0.29 0.30 0.35 0.35 0.35 0.37 0.40 0.45 0.46 0.48 0.45 0.46 0.54 0.64 0.80 0.88 0.97 1.12 1.24 1.39 1.42 1.50 1.54 1.56 1.60
1.35 1.30 1.13 0.76 0.37 0.55 0.70 0.48 0.42 0.41 0.39 0.39 0.46 0.50 0.44 0.39 0.36 0.35 0.33 0.33 0.33 0.34 0.34 0.34 0.38 0.43 0.47 0.48 0.46 0.44 0.45 0.50 0.56 0.69 0.80 0.88 1.04 1.15 1.26 1.31 1.34 1.40 1.35 1.32
1.08 1.19 1.45 1.08 0.80 1.12 0.64 0.36 0.35 0.37 0.40 0.39 0.42 0.44 0.43 0.44 0.42 0.38 0.36 0.36 0.36 0.35 0.34 0.33 0.35 0.39 0.42 0.45 0.48 0.47 0.45 0.49 0.56 0.63 0.74 0.77 0.91 1.05 1.10 1.17 1.21 1.23 1.18 1.16
0.67 1.12 1.65 1.40 1.08 0.67 0.34 0.27 0.37 0.44 0.51 0.41 0.37 0.36 0.36 0.37 0.39 0.43 0.40 0.35 0.36 0.34 0.33 0.32 0.33 0.35 0.36 0.40 0.45 0.46 0.48 0.49 0.53 0.60 0.68 0.71 0.80 0.97 0.99 1.06 1.14 1.12 1.14 1.14
0.67 1.09 1.74 1.51 1.15 0.63 0.35 0.21 0.25 0.39 0.60 0.39 0.33 0.36 0.38 0.37 0.55 0.56 0.48 0.41 0.38 0.33 0.30 0.31 0.33 0.32 0.34 0.36 0.38 0.40 0.43 0.45 0.50 0.57 0.64 0.68 0.72 0.85 0.86 0.90 0.97 1.00 1.01 1.05
1.02 1.47 1.65 1.24 0.97 0.48 0.29 0.22 0.25 0.64 0.76 0.38 0.33 0.36 0.37 0.44 0.55 0.52 0.46 0.42 0.39 0.37 0.35 0.33 0.34 0.35 0.36 0.37 0.39 0.42 0.41 0.41 0.46 0.51 0.56 0.63 0.70 0.77 0.78 0.81 0.85 0.92 0.95 0.99
0.71 0.98 0.99 0.92 1.01 0.58 0.28 0.30 0.53 0.65 0.39 0.32 0.32 0.32 0.34 0.34 0.32 0.34 0.37 0.38 0.37 0.39 0.39 0.37 0.37 0.38 0.38 0.39 0.40 0.39 0.42 0.41 0.42 0.49 0.55 0.60 0.67 0.71 0.74 0.78 0.84 0.86 0.94 1.05
0.50 0.64 0.70 0.69 0.64 0.46 0.35 0.41 0.44 0.35 0.30 0.27 0.30 0.31 0.31 0.32 0.30 0.32 0.33 0.34 0.34 0.36 0.38 0.37 0.39 0.42 0.42 0.42 0.41 0.39 0.40 0.41 0.43 0.48 0.53 0.61 0.66 0.66 0.74 0.80 0.86 0.91 0.98 1.07
0.40 0.37 0.46 0.44 0.35 0.30 0.30 0.30 0.30 0.28 0.26 0.25 0.26 0.30 0.29 0.30 0.29 0.30 0.29 0.31 0.33 0.33 0.33 0.33 0.36 0.41 0.44 0.44 0.44 0.42 0.42 0.43 0.45 0.49 0.51 0.57 0.67 0.70 0.72 0.78 0.85 0.89 0.93 1.07
0.35 0.35 0.42 0.39 0.28 0.24 0.23 0.23 0.25 0.26 0.22 0.20 0.21 0.24 0.25 0.26 0.26 0.27 0.29 0.31 0.32 0.33 0.32 0.31 0.34 0.38 0.43 0.44 0.44 0.44 0.47 0.50 0.51 0.50 0.50 0.55 0.65 0.70 0.70 0.75 0.81 0.86 0.88 1.08
0.27 0.32 0.40 0.37 0.25 0.27 0.24 0.20 0.19 0.22 0.21 0.19 0.21 0.24 0.23 0.23 0.26 0.26 0.27 0.29 0.29 0.30 0.31 0.31 0.31 0.34 0.38 0.40 0.42 0.45 0.50 0.55 0.57 0.55 0.55 0.58 0.66 0.68 0.69 0.73 0.79 0.88 0.90 0.96

GEFSCGP_prec_meanprecacc_294.txt.gz
Total_Precipitation_Accumulation
1.54 1.69 1.49 1.09 0.92 0.81 0.71 0.60 0.53 0.38 0.32 0.42 0.39 0.28 0.21 0.23 0.28 0.30 0.32 0.36 0.41 0.40 0.41 0.49 0.59 0.72 0.85 0.95 1.04 1.10 1.15 1.24 1.42 1.56 1.62 1.59 1.69 1.68 1.68 1.67 1.56 1.46 1.38 1.28
1.59 1.31 0.74 0.56 0.61 0.73 0.81 0.76 0.57 0.42 0.36 0.44 0.39 0.27 0.21 0.21 0.26 0.28 0.32 0.36 0.39 0.42 0.48 0.53 0.67 0.80 0.85 0.88 1.00 1.10 1.11 1.17 1.22 1.25 1.37 1.43 1.47 1.52 1.57 1.62 1.65 1.62 1.52 1.38
1.13 0.76 0.48 0.59 0.72 0.87 0.86 0.75 0.59 0.52 0.51 0.56 0.54 0.47 0.27 0.23 0.24 0.25 0.30 0.33 0.36 0.40 0.42 0.44 0.57 0.80 0.89 0.89 0.96 1.05 1.10 1.12 1.22 1.27 1.43 1.51 1.63 1.66 1.59 1.54 1.56 1.60 1.56 1.46
0.78 0.52 0.56 0.72 0.74 0.80 0.86 0.56 0.54 0.58 0.81 0.99 0.79 0.87 0.40 0.27 0.28 0.26 0.29 0.35 0.35 0.38 0.41 0.40 0.48 0.71 0.88 0.87 0.98 1.10 1.17 1.23 1.27 1.33 1.42 1.35 1.31 1.37 1.32 1.33 1.34 1.46 1.57 1.53
0.86 0.58 0.67 0.77 0.62 0.60 0.64 0.52 0.63 0.73 0.93 1.10 0.83 0.88 0.48 0.28 0.35 0.33 0.34 0.39 0.38 0.38 0.41 0.39 0.42 0.61 0.83 0.92 0.99 1.17 1.23 1.29 1.34 1.31 1.39 1.36 1.25 1.20 1.28 1.40 1.47 1.43 1.46 1.54
0.69 0.56 0.66 0.60 0.48 0.53 0.62 0.81 1.06 1.18 1.56 1.72 0.79 0.71 0.56 0.43 0.44 0.40 0.38 0.42 0.42 0.40 0.43 0.45 0.46 0.59 0.74 0.86 0.98 1.10 1.28 1.30 1.40 1.35 1.36 1.32 1.21 1.15 1.19 1.27 1.44 1.50 1.49 1.52
1.00 0.75 0.71 0.62 0.76 0.87 1.03 1.53 2.39 2.70 2.67 1.63 0.47 0.48 0.57 0.44 0.41 0.43 0.42 0.41 0.42 0.42 0.46 0.45 0.44 0.52 0.62 0.76 0.90 1.02 1.16 1.33 1.38 1.38 1.32 1.30 1.20 1.12 1.12 1.15 1.23 1.32 1.39 1.45
1.15 1.02 0.75 0.73 0.92 1.15 1.11 1.26 1.71 1.85 1.41 0.69 0.37 0.44 0.46 0.37 0.33 0.33 0.34 0.36 0.34 0.38 0.47 0.47 0.42 0.46 0.54 0.67 0.81 0.94 1.04 1.25 1.37 1.35 1.34 1.35 1.25 1.14 1.09 1.10 1.12 1.17 1.14 1.19
1.14 0.89 0.58 0.55 0.57 0.74 1.02 1.03 0.84 1.08 0.80 0.53 0.48 0.39 0.34 0.28 0.26 0.28 0.33 0.38 0.38 0.39 0.45 0.47 0.41 0.45 0.51 0.64 0.75 0.85 0.96 1.12 1.30 1.37 1.39 1.39 1.31 1.21 1.12 1.10 1.10 1.17 1.12 1.04
1.26 1.05 0.63 0.60 0.70 0.82 0.91 0.97 1.13 1.50 1.26 0.75 0.44 0.33 0.38 0.36 0.32 0.31 0.35 0.39 0.38 0.36 0.39 0.40 0.38 0.42 0.51 0.62 0.72 0.80 0.91 1.02 1.16 1.27 1.36 1.40 1.42 1.32 1.25 1.21 1.14 1.09 1.11 1.11
1.19 1.25 0.92 0.87 1.06 1.06 0.98 1.21 1.45 1.45 1.11 0.91 0.60 0.45 0.43 0.36 0.30 0.28 0.30 0.35 0.35 0.35 0.39 0.38 0.37 0.41 0.49 0.61 0.70 0.74 0.82 0.97 1.11 1.19 1.25 1.33 1.45 1.35 1.31 1.31 1.24 1.13 1.08 1.12
1.22 1.44 1.15 0.87 0.74 0.70 0.86 1.04 1.20 1.43 1.11 0.69 0.66 0.52 0.35 0.27 0.24 0.23 0.24 0.30 0.36 0.36 0.37 0.35 0.37 0.42 0.46 0.55 0.66 0.72 0.78 0.85 1.00 1.14 1.20 1.26 1.39 1.40 1.32 1.33 1.31 1.19 1.10 1.09
1.56 1.82 1.67 1.42 1.21 1.01 1.07 0.97 0.98 1.04 1.05 0.80 0.70 0.52 0.31 0.23 0.20 0.20 0.21 0.25 0.33 0.34 0.36 0.34 0.36 0.43 0.47 0.51 0.62 0.69 0.74 0.79 0.87 1.05 1.12 1.22 1.31 1.37 1.34 1.31 1.36 1.32 1.27 1.28
1.80 1.88 1.41 1.32 1.19 1.10 1.06 0.84 0.80 1.06 1.27 0.85 0.56 0.44 0.33 0.29 0.26 0.25 0.24 0.25 0.31 0.35 0.35 0.34 0.36 0.42 0.48 0.53 0.58 0.63 0.66 0.76 0.83 1.00 1.12 1.16 1.24 1.28 1.30 1.34 1.34 1.43 1.48 1.54
1.73 1.66 0.78 0.50 0.46 0.54 0.64 0.60 0.62 0.78 0.80 0.70 0.44 0.40 0.46 0.41 0.37 0.35 0.32 0.30 0.30 0.34 0.35 0.35 0.39 0.43 0.47 0.53 0.56 0.56 0.59 0.67 0.76 0.92 1.03 1.10 1.18 1.31 1.39 1.43 1.47 1.47 1.57 1.62
1.57 1.51 0.78 0.47 0.32 0.38 0.48 0.42 0.44 0.46 0.44 0.46 0.38 0.44 0.46 0.41 0.34 0.34 0.34 0.33 0.33 0.37 0.37 0.38 0.42 0.46 0.49 0.50 0.53 0.51 0.52 0.61 0.70 0.85 0.92 1.00 1.15 1.28 1.43 1.46 1.54 1.57 1.59 1.64
1.37 1.32 1.16 0.78 0.38 0.57 0.72 0.49 0.43 0.43 0.40 0.41 0.48 0.52 0.45 0.41 0.38 0.38 0.36 0.36 0.36 0.37 0.36 0.37 0.44 0.48 0.51 0.52 0.50 0.50 0.50 0.55 0.62 0.75 0.85 0.92 1.08 1.18 1.29 1.34 1.36 1.42 1.38 1.35
1.10 1.21 1.48 1.10 0.83 1.16 0.65 0.37 0.36 0.38 0.41 0.40 0.43 0.46 0.45 0.47 0.45 0.40 0.38 0.38 0.38 0.38 0.37 0.36 0.40 0.44 0.46 0.50 0.52 0.51 0.50 0.54 0.61 0.69 0.78 0.81 0.95 1.08 1.13 1.20 1.24 1.25 1.20 1.18
0.68 1.14 1.69 1.43 1.10 0.69 0.35 0.28 0.38 0.45 0.52 0.43 0.38 0.38 0.38 0.41 0.42 0.45 0.42 0.37 0.39 0.38 0.37 0.36 0.38 0.41 0.42 0.45 0.49 0.50 0.51 0.53 0.58 0.65 0.72 0.75 0.84 1.00 1.02 1.09 1.17 1.15 1.17 1.16
0.69 1.11 1.79 1.55 1.19 0.65 0.36 0.22 0.26 0.41 0.62 0.40 0.34 0.38 0.40 0.40 0.58 0.58 0.50 0.43 0.40 0.37 0.34 0.36 0.38 0.38 0.41 0.43 0.43 0.45 0.47 0.49 0.54 0.62 0.70 0.71 0.76 0.88 0.89 0.93 1.00 1.03 1.04 1.08
1.03 1.49 1.67 1.27 1.01 0.50 0.30 0.23 0.26 0.67 0.79 0.39 0.35 0.38 0.41 0.49 0.59 0.55 0.48 0.45 0.42 0.42 0.39 0.37 0.38 0.42 0.43 0.43 0.44 0.46 0.46 0.46 0.50 0.56 0.62 0.67 0.73 0.80 0.81 0.83 0.88 0.95 0.99 1.03
0.72 0.99 1.01 0.95 1.04 0.59 0.30 0.31 0.54 0.67 0.40 0.34 0.34 0.36 0.39 0.38 0.36 0.37 0.40 0.42 0.41 0.43 0.43 0.40 0.41 0.45 0.44 0.43 0.43 0.43 0.46 0.46 0.47 0.54 0.62 0.66 0.70 0.74 0.76 0.80 0.86 0.89 0.97 1.09
0.51 0.65 0.71 0.71 0.66 0.47 0.37 0.43 0.45 0.36 0.32 0.29 0.32 0.34 0.34 0.34 0.33 0.35 0.36 0.38 0.39 0.41 0.42 0.40 0.42 0.46 0.46 0.46 0.43 0.42 0.45 0.45 0.47 0.54 0.59 0.65 0.70 0.69 0.77 0.81 0.88 0.94 1.01 1.11
0.41 0.38 0.47 0.45 0.36 0.30 0.31 0.31 0.31 0.29 0.28 0.27 0.28 0.32 0.32 0.33 0.32 0.33 0.33 0.36 0.38 0.38 0.37 0.36 0.39 0.44 0.46 0.47 0.46 0.45 0.46 0.47 0.50 0.54 0.55 0.60 0.69 0.73 0.75 0.81 0.87 0.90 0.95 1.11
0.35 0.35 0.43 0.40 0.29 0.24 0.23 0.24 0.27 0.27 0.23 0.21 0.23 0.26 0.28 0.29 0.30 0.31 0.34 0.36 0.38 0.38 0.36 0.35 0.37 0.41 0.45 0.46 0.46 0.46 0.49 0.53 0.55 0.54 0.54 0.58 0.67 0.72 0.73 0.77 0.83 0.89 0.90 1.11
0.27 0.33 0.42 0.38 0.26 0.29 0.25 0.20 0.20 0.23 0.22 0.21 0.23 0.26 0.25 0.25 0.28 0.29 0.31 0.34 0.34 0.34 0.35 0.34 0.34 0.38 0.41 0.43 0.44 0.47 0.52 0.57 0.60 0.59 0.59 0.62 0.69 0.71 0.72 0.75 0.81 0.91 0.95 1.02

GEFSCGP_prec_meanprecacc_300.txt.gz
Total_Precipitation_Accumulation
1.58 1.73 1.51 1.09 0.93 0.82 0.72 0.62 0.54 0.39 0.33 0.44 0.41 0.28 0.22 0.24 0.31 0.35 0.36 0.40 0.44 0.43 0.43 0.51 0.61 0.74 0.88 0.98 1.07 1.13 1.21 1.32 1.52 1.64 1.66 1.63 1.74 1.77 1.80 1.79 1.69 1.57 1.46 1.35
1.63 1.33 0.75 0.56 0.61 0.74 0.82 0.78 0.58 0.43 0.37 0.46 0.41 0.29 0.22 0.22 0.29 0.32 0.36 0.39 0.43 0.45 0.50 0.55 0.69 0.83 0.89 0.91 1.02 1.13 1.16 1.24 1.32 1.37 1.43 1.48 1.52 1.59 1.66 1.73 1.77 1.75 1.64 1.48
1.15 0.77 0.48 0.61 0.73 0.89 0.87 0.76 0.60 0.54 0.53 0.58 0.56 0.49 0.28 0.25 0.28 0.29 0.35 0.37 0.39 0.44 0.45 0.47 0.60 0.83 0.93 0.91 0.98 1.07 1.13 1.18 1.30 1.42 1.52 1.58 1.70 1.75 1.68 1.63 1.66 1.71 1.68 1.57
0.80 0.52 0.57 0.74 0.76 0.82 0.89 0.57 0.56 0.60 0.84 1.03 0.83 0.91 0.41 0.29 0.32 0.30 0.34 0.39 0.38 0.42 0.44 0.44 0.52 0.74 0.92 0.90 1.01 1.13 1.20 1.28 1.35 1.50 1.53 1.44 1.40 1.47 1.41 1.41 1.41 1.53 1.67 1.64
0.87 0.59 0.68 0.79 0.63 0.62 0.66 0.54 0.65 0.76 0.97 1.14 0.87 0.93 0.50 0.30 0.39 0.37 0.38 0.43 0.41 0.42 0.45 0.44 0.47 0.65 0.87 0.95 1.02 1.19 1.26 1.35 1.44 1.48 1.53 1.43 1.32 1.29 1.36 1.48 1.55 1.51 1.54 1.64
0.69 0.56 0.67 0.60 0.49 0.54 0.64 0.85 1.10 1.21 1.61 1.77 0.82 0.75 0.60 0.46 0.48 0.43 0.42 0.45 0.46 0.44 0.46 0.50 0.52 0.64 0.79 0.91 1.02 1.13 1.30 1.35 1.49 1.50 1.52 1.40 1.28 1.22 1.27 1.35 1.54 1.61 1.60 1.62
1.01 0.75 0.71 0.63 0.78 0.90 1.07 1.59 2.47 2.76 2.72 1.67 0.49 0.52 0.61 0.48 0.46 0.47 0.47 0.45 0.45 0.46 0.50 0.51 0.52 0.60 0.69 0.82 0.95 1.06 1.20 1.39 1.48 1.51 1.46 1.37 1.26 1.18 1.17 1.20 1.32 1.43 1.51 1.58
1.19 1.04 0.76 0.74 0.94 1.18 1.14 1.30 1.78 1.91 1.45 0.72 0.39 0.48 0.49 0.41 0.36 0.37 0.38 0.40 0.39 0.44 0.55 0.54 0.50 0.56 0.64 0.76 0.88 1.02 1.12 1.33 1.48 1.49 1.47 1.43 1.30 1.20 1.15 1.16 1.18 1.24 1.22 1.29
1.17 0.92 0.59 0.56 0.57 0.76 1.05 1.06 0.88 1.14 0.84 0.57 0.51 0.41 0.36 0.30 0.28 0.32 0.37 0.43 0.44 0.47 0.56 0.58 0.52 0.56 0.62 0.74 0.84 0.95 1.07 1.22 1.42 1.53 1.56 1.52 1.39 1.27 1.18 1.15 1.15 1.21 1.17 1.10
1.30 1.09 0.65 0.62 0.71 0.84 0.93 1.00 1.17 1.59 1.33 0.79 0.47 0.35 0.42 0.39 0.35 0.34 0.38 0.44 0.42 0.41 0.48 0.52 0.49 0.52 0.61 0.72 0.82 0.90 1.02 1.13 1.28 1.40 1.51 1.55 1.52 1.38 1.30 1.26 1.19 1.14 1.16 1.16
1.23 1.29 0.95 0.89 1.08 1.08 1.00 1.25 1.50 1.51 1.17 0.96 0.64 0.48 0.45 0.39 0.33 0.32 0.33 0.39 0.40 0.40 0.45 0.46 0.45 0.49 0.57 0.71 0.81 0.86 0.94 1.08 1.22 1.29 1.34 1.45 1.57 1.43 1.36 1.35 1.28 1.18 1.12 1.16
1.25 1.47 1.19 0.89 0.75 0.71 0.88 1.08 1.25 1.50 1.16 0.72 0.70 0.57 0.37 0.28 0.27 0.26 0.28 0.34 0.40 0.40 0.43 0.42 0.43 0.48 0.52 0.62 0.76 0.84 0.91 0.96 1.11 1.23 1.27 1.34 1.49 1.49 1.38 1.37 1.35 1.23 1.14 1.12
1.60 1.88 1.73 1.46 1.23 1.03 1.09 1.00 1.02 1.09 1.10 0.83 0.73 0.55 0.33 0.25 0.23 0.23 0.24 0.28 0.36 0.38 0.41 0.40 0.43 0.50 0.53 0.58 0.69 0.80 0.89 0.90 0.98 1.15 1.20 1.29 1.39 1.45 1.40 1.35 1.39 1.35 1.30 1.31
1.85 1.94 1.45 1.37 1.22 1.12 1.09 0.86 0.83 1.11 1.33 0.88 0.58 0.46 0.35 0.31 0.29 0.29 0.27 0.28 0.34 0.38 0.40 0.40 0.43 0.50 0.55 0.59 0.65 0.73 0.79 0.87 0.94 1.10 1.21 1.22 1.29 1.33 1.35 1.38 1.37 1.46 1.51 1.56
1.76 1.70 0.80 0.51 0.47 0.56 0.66 0.61 0.64 0.81 0.82 0.72 0.46 0.41 0.47 0.43 0.39 0.37 0.35 0.33 0.34 0.38 0.39 0.39 0.44 0.50 0.53 0.58 0.62 0.64 0.70 0.77 0.86 1.02 1.13 1.17 1.22 1.35 1.43 1.47 1.50 1.50 1.60 1.65
1.60 1.54 0.79 0.48 0.33 0.39 0.49 0.43 0.45 0.47 0.45 0.48 0.40 0.45 0.47 0.42 0.36 0.35 0.37 0.36 0.37 0.40 0.40 0.41 0.46 0.50 0.53 0.55 0.58 0.57 0.61 0.70 0.81 0.96 1.03 1.08 1.20 1.32 1.47 1.50 1.57 1.60 1.62 1.66
1.38 1.34 1.18 0.79 0.39 0.58 0.73 0.51 0.45 0.44 0.42 0.43 0.50 0.53 0.47 0.43 0.39 0.39 0.39 0.40 0.41 0.40 0.38 0.39 0.47 0.52 0.55 0.56 0.54 0.55 0.58 0.62 0.70 0.84 0.94 1.01 1.15 1.23 1.33 1.37 1.39 1.45 1.41 1.38
1.11 1.22 1.50 1.12 0.84 1.18 0.67 0.39 0.38 0.40 0.43 0.43 0.46 0.48 0.47 0.50 0.47 0.42 0.41 0.42 0.44 0.42 0.40 0.38 0.44 0.48 0.49 0.53 0.56 0.56 0.56 0.60 0.69 0.76 0.86 0.89 1.01 1.13 1.17 1.23 1.26 1.28 1.23 1.21
0.69 1.16 1.71 1.46 1.12 0.70 0.36 0.29 0.40 0.47 0.54 0.46 0.41 0.40 0.40 0.42 0.44 0.47 0.45 0.41 0.43 0.42 0.40 0.38 0.41 0.44 0.45 0.50 0.54 0.56 0.57 0.59 0.64 0.71 0.77 0.80 0.88 1.05 1.06 1.12 1.20 1.17 1.20 1.19
0.69 1.13 1.82 1.58 1.22 0.67 0.37 0.23 0.28 0.43 0.64 0.42 0.36 0.40 0.42 0.43 0.61 0.61 0.53 0.46 0.43 0.40 0.37 0.38 0.41 0.41 0.45 0.48 0.48 0.50 0.53 0.55 0.60 0.67 0.74 0.75 0.80 0.91 0.92 0.96 1.04 1.06 1.06 1.11
1.04 1.50 1.69 1.29 1.03 0.51 0.31 0.23 0.28 0.69 0.81 0.41 0.37 0.41 0.44 0.53 0.64 0.59 0.54 0.50 0.45 0.44 0.42 0.40 0.41 0.44 0.47 0.49 0.50 0.51 0.50 0.51 0.56 0.62 0.67 0.72 0.77 0.83 0.84 0.86 0.91 0.97 1.01 1.05
0.73 1.01 1.02 0.96 1.06 0.61 0.30 0.32 0.56 0.69 0.42 0.35 0.36 0.38 0.42 0.42 0.40 0.42 0.46 0.46 0.43 0.46 0.46 0.43 0.44 0.47 0.48 0.48 0.48 0.47 0.51 0.50 0.52 0.59 0.67 0.72 0.75 0.78 0.79 0.82 0.88 0.91 0.99 1.11
0.52 0.66 0.72 0.72 0.67 0.48 0.37 0.44 0.47 0.38 0.33 0.30 0.33 0.36 0.37 0.37 0.37 0.40 0.40 0.41 0.42 0.44 0.44 0.43 0.45 0.49 0.50 0.50 0.48 0.46 0.50 0.50 0.52 0.58 0.64 0.71 0.76 0.75 0.80 0.84 0.90 0.95 1.03 1.13
0.41 0.38 0.48 0.46 0.37 0.31 0.31 0.32 0.32 0.30 0.30 0.29 0.30 0.34 0.34 0.36 0.35 0.37 0.36 0.39 0.41 0.41 0.40 0.40 0.42 0.47 0.50 0.50 0.50 0.50 0.51 0.52 0.55 0.59 0.61 0.66 0.76 0.80 0.81 0.85 0.90 0.92 0.97 1.12
0.36 0.36 0.44 0.41 0.29 0.25 0.24 0.24 0.28 0.28 0.25 0.23 0.25 0.28 0.31 0.31 0.32 0.33 0.37 0.39 0.41 0.41 0.39 0.38 0.41 0.44 0.49 0.50 0.50 0.51 0.55 0.59 0.61 0.60 0.60 0.63 0.72 0.79 0.80 0.83 0.87 0.92 0.92 1.13
0.28 0.34 0.43 0.39 0.26 0.29 0.26 0.21 0.21 0.24 0.24 0.22 0.25 0.28 0.27 0.27 0.31 0.32 0.34 0.37 0.37 0.38 0.39 0.38 0.37 0.42 0.45 0.47 0.50 0.53 0.60 0.65 0.67 0.66 0.65 0.67 0.73 0.75 0.77 0.80 0.86 0.97 0.99 1.06